<?xml version="1.0" encoding="UTF-8" standalone="no" ?><gpx xmlns="http://www.topografix.com/GPX/1/1" xmlns:gpxx="http://www.garmin.com/xmlschemas/GpxExtensions/v3" xmlns:gpxtrkx="http://www.garmin.com/xmlschemas/TrackStatsExtension/v1" xmlns:wptx1="http://www.garmin.com/xmlschemas/WaypointExtension/v1" xmlns:gpxtpx="http://www.garmin.com/xmlschemas/TrackPointExtension/v1" creator="GPSMAP 62s" version="1.1" xmlns:xsi="http://www.w3.org/2001/XMLSchema-instance" xsi:schemaLocation="http://www.topografix.com/GPX/1/1 http://www.topografix.com/GPX/1/1/gpx.xsd http://www.garmin.com/xmlschemas/GpxExtensions/v3 http://www8.garmin.com/xmlschemas/GpxExtensionsv3.xsd http://www.garmin.com/xmlschemas/TrackStatsExtension/v1 http://www8.garmin.com/xmlschemas/TrackStatsExtension.xsd http://www.garmin.com/xmlschemas/WaypointExtension/v1 http://www8.garmin.com/xmlschemas/WaypointExtensionv1.xsd http://www.garmin.com/xmlschemas/TrackPointExtension/v1 http://www.garmin.com/xmlschemas/TrackPointExtensionv1.xsd"><metadata><link href="http://www.garmin.com"><text>Garmin International</text></link><time>2026-09-03T17:00:48Z</time></metadata><trk><name>2026-09-03 20:00:44</name><extensions><gpxx:TrackExtension><gpxx:DisplayColor>Cyan</gpxx:DisplayColor></gpxx:TrackExtension><gpxtrkx:TrackStatsExtension><gpxtrkx:Distance>12630</gpxtrkx:Distance></gpxtrkx:TrackStatsExtension></extensions><trkseg><trkpt lat="59.2184171453" lon="31.4451545756"><ele>-18.13</ele><time>2026-09-03T10:40:58Z</time></trkpt><trkpt lat="59.2184164748" lon="31.4451537374"><ele>-18.13</ele><time>2026-09-03T10:40:59Z</time></trkpt></trkseg><trkseg><trkpt lat="59.2184173129" lon="31.4451546595"><ele>37.63</ele><time>2026-09-03T10:41:03Z</time></trkpt><trkpt lat="59.2184194084" lon="31.4451538213"><ele>40.99</ele><time>2026-09-03T10:41:06Z</time></trkpt><trkpt lat="59.2184194922" lon="31.4451523125"><ele>40.99</ele><time>2026-09-03T10:41:07Z</time></trkpt><trkpt lat="59.2184211686" lon="31.4451070502"><ele>44.84</ele><time>2026-09-03T10:41:33Z</time></trkpt><trkpt lat="59.2184209172" lon="31.4451074693"><ele>44.84</ele><time>2026-09-03T10:41:34Z</time></trkpt><trkpt lat="59.2184422072" lon="31.4451176114"><ele>44.84</ele><time>2026-09-03T10:42:02Z</time></trkpt><trkpt lat="59.2184429616" lon="31.4451144263"><ele>43.40</ele><time>2026-09-03T10:42:05Z</time></trkpt><trkpt lat="59.2184276227" lon="31.4451471157"><ele>45.32</ele><time>2026-09-03T10:42:16Z</time></trkpt><trkpt lat="59.2184108589" lon="31.4451918751"><ele>48.20</ele><time>2026-09-03T10:42:39Z</time></trkpt><trkpt lat="59.2183909100" lon="31.4452332817"><ele>51.57</ele><time>2026-09-03T10:43:04Z</time></trkpt><trkpt lat="59.2184181511" lon="31.4452264085"><ele>54.45</ele><time>2026-09-03T10:43:14Z</time></trkpt><trkpt lat="59.2184466496" lon="31.4452000894"><ele>56.86</ele><time>2026-09-03T10:43:41Z</time></trkpt><trkpt lat="59.2184440512" lon="31.4452090580"><ele>60.22</ele><time>2026-09-03T10:44:03Z</time></trkpt><trkpt lat="59.2184623238" lon="31.4452098124"><ele>63.10</ele><time>2026-09-03T10:44:23Z</time></trkpt><trkpt lat="59.2184494156" lon="31.4452395681"><ele>66.47</ele><time>2026-09-03T10:44:44Z</time></trkpt><trkpt lat="59.2184515111" lon="31.4452346228"><ele>69.35</ele><time>2026-09-03T10:45:04Z</time></trkpt><trkpt lat="59.2184552830" lon="31.4452020172"><ele>72.72</ele><time>2026-09-03T10:45:28Z</time></trkpt><trkpt lat="59.2184374295" lon="31.4452035259"><ele>74.64</ele><time>2026-09-03T10:45:47Z</time></trkpt><trkpt lat="59.2184381001" lon="31.4451653045"><ele>77.04</ele><time>2026-09-03T10:46:02Z</time></trkpt><trkpt lat="59.2184339929" lon="31.4451733511"><ele>78.48</ele><time>2026-09-03T10:46:13Z</time></trkpt><trkpt lat="59.2184461467" lon="31.4451951440"><ele>79.93</ele><time>2026-09-03T10:46:24Z</time></trkpt><trkpt lat="59.2184175644" lon="31.4452023525"><ele>79.93</ele><time>2026-09-03T10:46:38Z</time></trkpt><trkpt lat="59.2184097692" lon="31.4452244807"><ele>80.41</ele><time>2026-09-03T10:46:41Z</time></trkpt><trkpt lat="59.2183824442" lon="31.4452896081"><ele>82.33</ele><time>2026-09-03T10:46:53Z</time></trkpt><trkpt lat="59.2183718830" lon="31.4452982415"><ele>82.33</ele><time>2026-09-03T10:46:57Z</time></trkpt><trkpt lat="59.2183936760" lon="31.4452259894"><ele>81.37</ele><time>2026-09-03T10:47:05Z</time></trkpt><trkpt lat="59.2184347473" lon="31.4452319406"><ele>80.41</ele><time>2026-09-03T10:47:25Z</time></trkpt><trkpt lat="59.2184331547" lon="31.4452046156"><ele>77.52</ele><time>2026-09-03T10:47:50Z</time></trkpt><trkpt lat="59.2184315622" lon="31.4451969042"><ele>74.64</ele><time>2026-09-03T10:47:56Z</time></trkpt><trkpt lat="59.2184323166" lon="31.4452021848"><ele>75.12</ele><time>2026-09-03T10:47:57Z</time></trkpt><trkpt lat="59.2184478231" lon="31.4451992512"><ele>77.04</ele><time>2026-09-03T10:48:02Z</time></trkpt><trkpt lat="59.2185055744" lon="31.4452139195"><ele>76.08</ele><time>2026-09-03T10:48:13Z</time></trkpt><trkpt lat="59.2185560334" lon="31.4451738540"><ele>73.20</ele><time>2026-09-03T10:48:26Z</time></trkpt><trkpt lat="59.2185701150" lon="31.4451681543"><ele>74.64</ele><time>2026-09-03T10:48:40Z</time></trkpt><trkpt lat="59.2186233401" lon="31.4451757818"><ele>75.12</ele><time>2026-09-03T10:48:51Z</time></trkpt><trkpt lat="59.2187246773" lon="31.4452989958"><ele>74.16</ele><time>2026-09-03T10:49:09Z</time></trkpt><trkpt lat="59.2187401839" lon="31.4453092217"><ele>72.24</ele><time>2026-09-03T10:49:12Z</time></trkpt><trkpt lat="59.2187784892" lon="31.4451916236"><ele>71.27</ele><time>2026-09-03T10:49:24Z</time></trkpt><trkpt lat="59.2188229971" lon="31.4450385701"><ele>72.24</ele><time>2026-09-03T10:49:38Z</time></trkpt><trkpt lat="59.2188117653" lon="31.4450348821"><ele>73.68</ele><time>2026-09-03T10:49:45Z</time></trkpt><trkpt lat="59.2188191414" lon="31.4448115043"><ele>74.16</ele><time>2026-09-03T10:50:09Z</time></trkpt><trkpt lat="59.2188123520" lon="31.4447591174"><ele>77.04</ele><time>2026-09-03T10:50:28Z</time></trkpt><trkpt lat="59.2188151181" lon="31.4447549265"><ele>76.56</ele><time>2026-09-03T10:50:29Z</time></trkpt><trkpt lat="59.2188203987" lon="31.4444875438"><ele>78.00</ele><time>2026-09-03T10:50:41Z</time></trkpt><trkpt lat="59.2187059857" lon="31.4443142060"><ele>77.52</ele><time>2026-09-03T10:50:55Z</time></trkpt><trkpt lat="59.2186988611" lon="31.4442313928"><ele>78.97</ele><time>2026-09-03T10:51:00Z</time></trkpt><trkpt lat="59.2186872941" lon="31.4441996254"><ele>80.41</ele><time>2026-09-03T10:51:02Z</time></trkpt><trkpt lat="59.2185984459" lon="31.4440376032"><ele>77.04</ele><time>2026-09-03T10:51:14Z</time></trkpt><trkpt lat="59.2185887229" lon="31.4440291375"><ele>79.93</ele><time>2026-09-03T10:51:15Z</time></trkpt><trkpt lat="59.2185723782" lon="31.4440061711"><ele>80.41</ele><time>2026-09-03T10:51:17Z</time></trkpt><trkpt lat="59.2185582966" lon="31.4439832885"><ele>80.41</ele><time>2026-09-03T10:51:19Z</time></trkpt><trkpt lat="59.2185180634" lon="31.4437828772"><ele>83.29</ele><time>2026-09-03T10:51:32Z</time></trkpt><trkpt lat="59.2185354140" lon="31.4436838031"><ele>84.25</ele><time>2026-09-03T10:51:37Z</time></trkpt><trkpt lat="59.2185451370" lon="31.4434393030"><ele>86.18</ele><time>2026-09-03T10:51:49Z</time></trkpt><trkpt lat="59.2185085081" lon="31.4432519674"><ele>89.54</ele><time>2026-09-03T10:52:02Z</time></trkpt><trkpt lat="59.2184967734" lon="31.4432922006"><ele>92.42</ele><time>2026-09-03T10:52:16Z</time></trkpt><trkpt lat="59.2184852064" lon="31.4432202838"><ele>95.31</ele><time>2026-09-03T10:52:27Z</time></trkpt><trkpt lat="59.2184783332" lon="31.4431657176"><ele>91.46</ele><time>2026-09-03T10:52:31Z</time></trkpt><trkpt lat="59.2184722144" lon="31.4431597665"><ele>91.94</ele><time>2026-09-03T10:52:32Z</time></trkpt><trkpt lat="59.2184637487" lon="31.4431394823"><ele>93.39</ele><time>2026-09-03T10:52:34Z</time></trkpt><trkpt lat="59.2184520140" lon="31.4430865087"><ele>95.31</ele><time>2026-09-03T10:52:37Z</time></trkpt><trkpt lat="59.2184575461" lon="31.4430333674"><ele>97.23</ele><time>2026-09-03T10:52:41Z</time></trkpt><trkpt lat="59.2184505891" lon="31.4429281745"><ele>98.67</ele><time>2026-09-03T10:52:55Z</time></trkpt><trkpt lat="59.2185239308" lon="31.4429470338"><ele>101.08</ele><time>2026-09-03T10:53:10Z</time></trkpt><trkpt lat="59.2186960950" lon="31.4429845847"><ele>103.00</ele><time>2026-09-03T10:53:27Z</time></trkpt><trkpt lat="59.2186494917" lon="31.4429583494"><ele>103.96</ele><time>2026-09-03T10:53:36Z</time></trkpt><trkpt lat="59.2184840329" lon="31.4429157693"><ele>107.81</ele><time>2026-09-03T10:53:51Z</time></trkpt><trkpt lat="59.2184263654" lon="31.4428200480"><ele>109.73</ele><time>2026-09-03T10:54:04Z</time></trkpt><trkpt lat="59.2184378486" lon="31.4427971654"><ele>111.17</ele><time>2026-09-03T10:54:06Z</time></trkpt><trkpt lat="59.2184232641" lon="31.4426203910"><ele>113.09</ele><time>2026-09-03T10:54:19Z</time></trkpt><trkpt lat="59.2184303887" lon="31.4424895495"><ele>115.50</ele><time>2026-09-03T10:54:37Z</time></trkpt><trkpt lat="59.2184075899" lon="31.4422489051"><ele>117.42</ele><time>2026-09-03T10:54:51Z</time></trkpt><trkpt lat="59.2184110265" lon="31.4421066642"><ele>119.82</ele><time>2026-09-03T10:55:04Z</time></trkpt><trkpt lat="59.2183917481" lon="31.4418138005"><ele>121.26</ele><time>2026-09-03T10:55:17Z</time></trkpt><trkpt lat="59.2184023932" lon="31.4417309873"><ele>123.19</ele><time>2026-09-03T10:55:22Z</time></trkpt><trkpt lat="59.2183375172" lon="31.4414491877"><ele>123.67</ele><time>2026-09-03T10:55:37Z</time></trkpt><trkpt lat="59.2183091864" lon="31.4413895085"><ele>124.63</ele><time>2026-09-03T10:55:49Z</time></trkpt><trkpt lat="59.2183127068" lon="31.4413813781"><ele>127.51</ele><time>2026-09-03T10:55:54Z</time></trkpt><trkpt lat="59.2183151376" lon="31.4413774386"><ele>127.03</ele><time>2026-09-03T10:56:00Z</time></trkpt><trkpt lat="59.2182743177" lon="31.4413804561"><ele>127.99</ele><time>2026-09-03T10:56:16Z</time></trkpt><trkpt lat="59.2182334978" lon="31.4413082041"><ele>127.99</ele><time>2026-09-03T10:56:21Z</time></trkpt><trkpt lat="59.2180826236" lon="31.4411635324"><ele>130.40</ele><time>2026-09-03T10:56:37Z</time></trkpt><trkpt lat="59.2179946136" lon="31.4413084555"><ele>131.36</ele><time>2026-09-03T10:56:50Z</time></trkpt><trkpt lat="59.2180003971" lon="31.4412130695"><ele>133.28</ele><time>2026-09-03T10:57:03Z</time></trkpt><trkpt lat="59.2178674601" lon="31.4411801286"><ele>134.72</ele><time>2026-09-03T10:57:18Z</time></trkpt><trkpt lat="59.2178408056" lon="31.4411735069"><ele>135.20</ele><time>2026-09-03T10:57:21Z</time></trkpt><trkpt lat="59.2177662067" lon="31.4411440864"><ele>135.68</ele><time>2026-09-03T10:57:34Z</time></trkpt><trkpt lat="59.2177547235" lon="31.4411481936"><ele>135.68</ele><time>2026-09-03T10:57:35Z</time></trkpt><trkpt lat="59.2175968084" lon="31.4410650451"><ele>137.61</ele><time>2026-09-03T10:57:50Z</time></trkpt><trkpt lat="59.2175566591" lon="31.4409710839"><ele>138.09</ele><time>2026-09-03T10:58:05Z</time></trkpt><trkpt lat="59.2175486963" lon="31.4408883546"><ele>139.05</ele><time>2026-09-03T10:58:18Z</time></trkpt><trkpt lat="59.2174756061" lon="31.4410015941"><ele>140.49</ele><time>2026-09-03T10:58:32Z</time></trkpt><trkpt lat="59.2174159270" lon="31.4410904422"><ele>141.93</ele><time>2026-09-03T10:58:45Z</time></trkpt><trkpt lat="59.2172906175" lon="31.4410794619"><ele>142.41</ele><time>2026-09-03T10:58:57Z</time></trkpt><trkpt lat="59.2171544116" lon="31.4410158433"><ele>143.85</ele><time>2026-09-03T10:59:11Z</time></trkpt><trkpt lat="59.2170609534" lon="31.4409993310"><ele>144.82</ele><time>2026-09-03T10:59:24Z</time></trkpt><trkpt lat="59.2169500608" lon="31.4409176074"><ele>145.78</ele><time>2026-09-03T10:59:39Z</time></trkpt><trkpt lat="59.2168560158" lon="31.4408637118"><ele>147.70</ele><time>2026-09-03T10:59:52Z</time></trkpt><trkpt lat="59.2167289462" lon="31.4407903701"><ele>148.18</ele><time>2026-09-03T11:00:06Z</time></trkpt><trkpt lat="59.2167208996" lon="31.4407749474"><ele>147.70</ele><time>2026-09-03T11:00:18Z</time></trkpt><trkpt lat="59.2166876234" lon="31.4407694153"><ele>148.66</ele><time>2026-09-03T11:00:26Z</time></trkpt><trkpt lat="59.2165803351" lon="31.4407127537"><ele>149.14</ele><time>2026-09-03T11:00:40Z</time></trkpt><trkpt lat="59.2165174708" lon="31.4406721015"><ele>147.22</ele><time>2026-09-03T11:00:50Z</time></trkpt><trkpt lat="59.2165003717" lon="31.4406679105"><ele>148.66</ele><time>2026-09-03T11:00:52Z</time></trkpt><trkpt lat="59.2163846176" lon="31.4406386577"><ele>148.18</ele><time>2026-09-03T11:01:06Z</time></trkpt><trkpt lat="59.2162692826" lon="31.4406405017"><ele>148.18</ele><time>2026-09-03T11:01:20Z</time></trkpt><trkpt lat="59.2161894031" lon="31.4405497257"><ele>148.18</ele><time>2026-09-03T11:01:32Z</time></trkpt><trkpt lat="59.2161764111" lon="31.4405146055"><ele>147.22</ele><time>2026-09-03T11:01:35Z</time></trkpt><trkpt lat="59.2161443923" lon="31.4404885378"><ele>149.62</ele><time>2026-09-03T11:01:44Z</time></trkpt><trkpt lat="59.2161527742" lon="31.4404441137"><ele>148.66</ele><time>2026-09-03T11:02:25Z</time></trkpt><trkpt lat="59.2162598111" lon="31.4405524079"><ele>148.66</ele><time>2026-09-03T11:02:46Z</time></trkpt><trkpt lat="59.2162676901" lon="31.4405308664"><ele>150.10</ele><time>2026-09-03T11:03:18Z</time></trkpt><trkpt lat="59.2162810173" lon="31.4404448681"><ele>150.58</ele><time>2026-09-03T11:03:50Z</time></trkpt><trkpt lat="59.2163079232" lon="31.4404213987"><ele>152.51</ele><time>2026-09-03T11:04:20Z</time></trkpt><trkpt lat="59.2161918338" lon="31.4406360593"><ele>151.06</ele><time>2026-09-03T11:04:51Z</time></trkpt><trkpt lat="59.2161773331" lon="31.4405378234"><ele>149.14</ele><time>2026-09-03T11:05:02Z</time></trkpt><trkpt lat="59.2162112799" lon="31.4404669125"><ele>147.70</ele><time>2026-09-03T11:05:20Z</time></trkpt><trkpt lat="59.2162576318" lon="31.4402741287"><ele>147.22</ele><time>2026-09-03T11:05:35Z</time></trkpt><trkpt lat="59.2162873875" lon="31.4401462208"><ele>147.22</ele><time>2026-09-03T11:05:51Z</time></trkpt><trkpt lat="59.2162969429" lon="31.4400455542"><ele>148.66</ele><time>2026-09-03T11:05:58Z</time></trkpt><trkpt lat="59.2162941769" lon="31.4399764035"><ele>149.14</ele><time>2026-09-03T11:06:23Z</time></trkpt><trkpt lat="59.2162721325" lon="31.4399917424"><ele>148.66</ele><time>2026-09-03T11:06:50Z</time></trkpt><trkpt lat="59.2162717134" lon="31.4399940893"><ele>145.30</ele><time>2026-09-03T11:06:59Z</time></trkpt><trkpt lat="59.2162728030" lon="31.4399928320"><ele>145.78</ele><time>2026-09-03T11:07:00Z</time></trkpt><trkpt lat="59.2162719648" lon="31.4399660937"><ele>146.74</ele><time>2026-09-03T11:07:13Z</time></trkpt><trkpt lat="59.2162660137" lon="31.4399312250"><ele>143.85</ele><time>2026-09-03T11:07:28Z</time></trkpt><trkpt lat="59.2162912432" lon="31.4399317279"><ele>143.37</ele><time>2026-09-03T11:07:32Z</time></trkpt><trkpt lat="59.2163890600" lon="31.4397005551"><ele>143.37</ele><time>2026-09-03T11:07:48Z</time></trkpt><trkpt lat="59.2164385132" lon="31.4395556320"><ele>143.85</ele><time>2026-09-03T11:08:01Z</time></trkpt><trkpt lat="59.2164537683" lon="31.4394597430"><ele>144.82</ele><time>2026-09-03T11:08:13Z</time></trkpt><trkpt lat="59.2164538521" lon="31.4394635987"><ele>144.82</ele><time>2026-09-03T11:08:14Z</time></trkpt><trkpt lat="59.2164556962" lon="31.4393249620"><ele>144.82</ele><time>2026-09-03T11:08:26Z</time></trkpt><trkpt lat="59.2164805066" lon="31.4392428193"><ele>146.26</ele><time>2026-09-03T11:08:38Z</time></trkpt><trkpt lat="59.2165145371" lon="31.4391553961"><ele>145.78</ele><time>2026-09-03T11:08:52Z</time></trkpt><trkpt lat="59.2165266071" lon="31.4391344413"><ele>146.74</ele><time>2026-09-03T11:08:54Z</time></trkpt><trkpt lat="59.2165563628" lon="31.4391408116"><ele>147.22</ele><time>2026-09-03T11:08:58Z</time></trkpt><trkpt lat="59.2166164611" lon="31.4390403125"><ele>147.70</ele><time>2026-09-03T11:09:11Z</time></trkpt><trkpt lat="59.2166519165" lon="31.4389120694"><ele>148.18</ele><time>2026-09-03T11:09:22Z</time></trkpt><trkpt lat="59.2166392598" lon="31.4387507178"><ele>148.66</ele><time>2026-09-03T11:09:32Z</time></trkpt><trkpt lat="59.2166619748" lon="31.4386012685"><ele>148.66</ele><time>2026-09-03T11:09:45Z</time></trkpt><trkpt lat="59.2166758049" lon="31.4385656454"><ele>148.18</ele><time>2026-09-03T11:09:52Z</time></trkpt><trkpt lat="59.2166768108" lon="31.4384617936"><ele>148.66</ele><time>2026-09-03T11:10:05Z</time></trkpt><trkpt lat="59.2166778166" lon="31.4383185469"><ele>150.58</ele><time>2026-09-03T11:10:18Z</time></trkpt><trkpt lat="59.2167232465" lon="31.4382462110"><ele>148.66</ele><time>2026-09-03T11:10:34Z</time></trkpt><trkpt lat="59.2167890444" lon="31.4380860329"><ele>150.10</ele><time>2026-09-03T11:10:50Z</time></trkpt><trkpt lat="59.2168194707" lon="31.4379411936"><ele>151.54</ele><time>2026-09-03T11:11:03Z</time></trkpt><trkpt lat="59.2168216500" lon="31.4379278664"><ele>151.06</ele><time>2026-09-03T11:11:04Z</time></trkpt><trkpt lat="59.2168246675" lon="31.4378510881"><ele>153.95</ele><time>2026-09-03T11:11:10Z</time></trkpt><trkpt lat="59.2168108374" lon="31.4377927501"><ele>153.47</ele><time>2026-09-03T11:11:26Z</time></trkpt><trkpt lat="59.2168296967" lon="31.4376388583"><ele>153.95</ele><time>2026-09-03T11:11:39Z</time></trkpt><trkpt lat="59.2168341391" lon="31.4374892414"><ele>154.91</ele><time>2026-09-03T11:11:52Z</time></trkpt><trkpt lat="59.2168441135" lon="31.4373781811"><ele>156.83</ele><time>2026-09-03T11:12:03Z</time></trkpt><trkpt lat="59.2168357316" lon="31.4373086952"><ele>158.75</ele><time>2026-09-03T11:12:28Z</time></trkpt><trkpt lat="59.2168315407" lon="31.4373097010"><ele>160.68</ele><time>2026-09-03T11:12:33Z</time></trkpt><trkpt lat="59.2167952470" lon="31.4373028278"><ele>156.35</ele><time>2026-09-03T11:12:44Z</time></trkpt><trkpt lat="59.2167953309" lon="31.4373035822"><ele>160.20</ele><time>2026-09-03T11:12:45Z</time></trkpt><trkpt lat="59.2167988513" lon="31.4372971281"><ele>161.16</ele><time>2026-09-03T11:12:47Z</time></trkpt><trkpt lat="59.2168593686" lon="31.4371903427"><ele>160.20</ele><time>2026-09-03T11:13:12Z</time></trkpt><trkpt lat="59.2168795690" lon="31.4371831343"><ele>156.83</ele><time>2026-09-03T11:13:21Z</time></trkpt><trkpt lat="59.2168810777" lon="31.4371883310"><ele>160.20</ele><time>2026-09-03T11:13:22Z</time></trkpt><trkpt lat="59.2168836761" lon="31.4371921029"><ele>159.72</ele><time>2026-09-03T11:13:23Z</time></trkpt><trkpt lat="59.2168898787" lon="31.4371904265"><ele>158.27</ele><time>2026-09-03T11:13:26Z</time></trkpt><trkpt lat="59.2169075646" lon="31.4371606708"><ele>160.20</ele><time>2026-09-03T11:13:29Z</time></trkpt><trkpt lat="59.2169203050" lon="31.4370039292"><ele>161.16</ele><time>2026-09-03T11:13:42Z</time></trkpt><trkpt lat="59.2169376556" lon="31.4369855728"><ele>162.60</ele><time>2026-09-03T11:13:47Z</time></trkpt><trkpt lat="59.2169771343" lon="31.4368157554"><ele>160.68</ele><time>2026-09-03T11:13:58Z</time></trkpt><trkpt lat="59.2169843428" lon="31.4366305992"><ele>163.08</ele><time>2026-09-03T11:14:10Z</time></trkpt><trkpt lat="59.2170146853" lon="31.4364583511"><ele>164.04</ele><time>2026-09-03T11:14:28Z</time></trkpt><trkpt lat="59.2170544993" lon="31.4363741968"><ele>163.56</ele><time>2026-09-03T11:14:44Z</time></trkpt><trkpt lat="59.2170528229" lon="31.4363617077"><ele>165.48</ele><time>2026-09-03T11:14:46Z</time></trkpt><trkpt lat="59.2170537449" lon="31.4362610411"><ele>166.93</ele><time>2026-09-03T11:15:00Z</time></trkpt><trkpt lat="59.2170769628" lon="31.4362919703"><ele>166.45</ele><time>2026-09-03T11:15:12Z</time></trkpt><trkpt lat="59.2170921341" lon="31.4362740330"><ele>165.00</ele><time>2026-09-03T11:15:15Z</time></trkpt><trkpt lat="59.2171587702" lon="31.4361969195"><ele>166.93</ele><time>2026-09-03T11:15:22Z</time></trkpt><trkpt lat="59.2172036134" lon="31.4361022878"><ele>166.93</ele><time>2026-09-03T11:15:34Z</time></trkpt><trkpt lat="59.2172323633" lon="31.4360005315"><ele>169.33</ele><time>2026-09-03T11:15:49Z</time></trkpt><trkpt lat="59.2172551621" lon="31.4358471427"><ele>168.85</ele><time>2026-09-03T11:16:00Z</time></trkpt><trkpt lat="59.2172684055" lon="31.4357715379"><ele>168.37</ele><time>2026-09-03T11:16:14Z</time></trkpt><trkpt lat="59.2173092254" lon="31.4356858749"><ele>167.89</ele><time>2026-09-03T11:16:28Z</time></trkpt><trkpt lat="59.2172915395" lon="31.4355873037"><ele>169.81</ele><time>2026-09-03T11:16:46Z</time></trkpt><trkpt lat="59.2172497977" lon="31.4354971983"><ele>167.89</ele><time>2026-09-03T11:17:11Z</time></trkpt><trkpt lat="59.2172558326" lon="31.4354671072"><ele>165.96</ele><time>2026-09-03T11:17:24Z</time></trkpt><trkpt lat="59.2172148451" lon="31.4353774209"><ele>165.00</ele><time>2026-09-03T11:17:40Z</time></trkpt><trkpt lat="59.2172475345" lon="31.4353286382"><ele>163.56</ele><time>2026-09-03T11:17:54Z</time></trkpt><trkpt lat="59.2172709201" lon="31.4352724794"><ele>165.00</ele><time>2026-09-03T11:18:05Z</time></trkpt><trkpt lat="59.2173228879" lon="31.4351548813"><ele>165.00</ele><time>2026-09-03T11:18:18Z</time></trkpt><trkpt lat="59.2173328623" lon="31.4350288175"><ele>166.93</ele><time>2026-09-03T11:18:31Z</time></trkpt><trkpt lat="59.2173326947" lon="31.4349901769"><ele>165.48</ele><time>2026-09-03T11:18:34Z</time></trkpt><trkpt lat="59.2173123267" lon="31.4349413943"><ele>164.52</ele><time>2026-09-03T11:18:40Z</time></trkpt><trkpt lat="59.2173129972" lon="31.4349498600"><ele>165.48</ele><time>2026-09-03T11:18:45Z</time></trkpt><trkpt lat="59.2173313536" lon="31.4349424001"><ele>162.60</ele><time>2026-09-03T11:18:49Z</time></trkpt><trkpt lat="59.2173373885" lon="31.4349323418"><ele>166.93</ele><time>2026-09-03T11:18:51Z</time></trkpt><trkpt lat="59.2173527274" lon="31.4348782785"><ele>163.56</ele><time>2026-09-03T11:19:05Z</time></trkpt><trkpt lat="59.2174103949" lon="31.4347975608"><ele>165.00</ele><time>2026-09-03T11:19:20Z</time></trkpt><trkpt lat="59.2174868379" lon="31.4346823096"><ele>165.48</ele><time>2026-09-03T11:19:35Z</time></trkpt><trkpt lat="59.2174831498" lon="31.4346623607"><ele>165.48</ele><time>2026-09-03T11:19:36Z</time></trkpt><trkpt lat="59.2175032664" lon="31.4346505422"><ele>163.08</ele><time>2026-09-03T11:19:51Z</time></trkpt><trkpt lat="59.2175054457" lon="31.4346326049"><ele>163.08</ele><time>2026-09-03T11:19:52Z</time></trkpt><trkpt lat="59.2175549828" lon="31.4345018473"><ele>164.52</ele><time>2026-09-03T11:20:05Z</time></trkpt><trkpt lat="59.2175595090" lon="31.4344782103"><ele>165.48</ele><time>2026-09-03T11:20:15Z</time></trkpt><trkpt lat="59.2175403982" lon="31.4344352949"><ele>162.12</ele><time>2026-09-03T11:20:27Z</time></trkpt><trkpt lat="59.2175051104" lon="31.4344115742"><ele>162.12</ele><time>2026-09-03T11:20:42Z</time></trkpt><trkpt lat="59.2174932919" lon="31.4344552439"><ele>163.08</ele><time>2026-09-03T11:20:57Z</time></trkpt><trkpt lat="59.2174896039" lon="31.4344539028"><ele>163.56</ele><time>2026-09-03T11:21:04Z</time></trkpt><trkpt lat="59.2174902745" lon="31.4344511367"><ele>160.20</ele><time>2026-09-03T11:21:06Z</time></trkpt><trkpt lat="59.2174904421" lon="31.4344065450"><ele>163.56</ele><time>2026-09-03T11:21:11Z</time></trkpt><trkpt lat="59.2174930405" lon="31.4343952294"><ele>164.04</ele><time>2026-09-03T11:21:12Z</time></trkpt><trkpt lat="59.2175406497" lon="31.4342479594"><ele>164.04</ele><time>2026-09-03T11:21:25Z</time></trkpt><trkpt lat="59.2175259814" lon="31.4341986738"><ele>158.27</ele><time>2026-09-03T11:21:35Z</time></trkpt><trkpt lat="59.2175261490" lon="31.4341918845"><ele>160.20</ele><time>2026-09-03T11:21:36Z</time></trkpt><trkpt lat="59.2175280768" lon="31.4341580216"><ele>163.08</ele><time>2026-09-03T11:21:41Z</time></trkpt><trkpt lat="59.2175318487" lon="31.4341516513"><ele>163.08</ele><time>2026-09-03T11:21:42Z</time></trkpt><trkpt lat="59.2175462656" lon="31.4340095781"><ele>163.56</ele><time>2026-09-03T11:21:57Z</time></trkpt><trkpt lat="59.2175777815" lon="31.4338327199"><ele>162.60</ele><time>2026-09-03T11:22:11Z</time></trkpt><trkpt lat="59.2174967285" lon="31.4337282814"><ele>163.56</ele><time>2026-09-03T11:22:22Z</time></trkpt><trkpt lat="59.2174986564" lon="31.4337214921"><ele>164.52</ele><time>2026-09-03T11:22:24Z</time></trkpt><trkpt lat="59.2175436672" lon="31.4335834421"><ele>162.60</ele><time>2026-09-03T11:22:35Z</time></trkpt><trkpt lat="59.2175609339" lon="31.4335339889"><ele>163.56</ele><time>2026-09-03T11:22:40Z</time></trkpt><trkpt lat="59.2175823916" lon="31.4334163908"><ele>164.52</ele><time>2026-09-03T11:22:54Z</time></trkpt><trkpt lat="59.2175903544" lon="31.4333614893"><ele>160.20</ele><time>2026-09-03T11:22:57Z</time></trkpt><trkpt lat="59.2175893486" lon="31.4333512634"><ele>163.56</ele><time>2026-09-03T11:22:58Z</time></trkpt><trkpt lat="59.2175590061" lon="31.4333039057"><ele>163.56</ele><time>2026-09-03T11:23:10Z</time></trkpt><trkpt lat="59.2176179308" lon="31.4331669454"><ele>163.56</ele><time>2026-09-03T11:23:23Z</time></trkpt><trkpt lat="59.2176599242" lon="31.4330845512"><ele>162.12</ele><time>2026-09-03T11:23:39Z</time></trkpt><trkpt lat="59.2177328467" lon="31.4331323281"><ele>161.64</ele><time>2026-09-03T11:23:58Z</time></trkpt><trkpt lat="59.2177986447" lon="31.4329638518"><ele>161.16</ele><time>2026-09-03T11:24:11Z</time></trkpt><trkpt lat="59.2178206053" lon="31.4329379518"><ele>159.24</ele><time>2026-09-03T11:24:24Z</time></trkpt><trkpt lat="59.2178069428" lon="31.4329126384"><ele>162.12</ele><time>2026-09-03T11:24:28Z</time></trkpt><trkpt lat="59.2178346030" lon="31.4328281488"><ele>160.20</ele><time>2026-09-03T11:24:39Z</time></trkpt><trkpt lat="59.2178579047" lon="31.4326933678"><ele>159.24</ele><time>2026-09-03T11:24:51Z</time></trkpt><trkpt lat="59.2178658675" lon="31.4325196110"><ele>157.79</ele><time>2026-09-03T11:25:01Z</time></trkpt><trkpt lat="59.2178902589" lon="31.4324689005"><ele>158.75</ele><time>2026-09-03T11:25:07Z</time></trkpt><trkpt lat="59.2179028317" lon="31.4324353728"><ele>160.20</ele><time>2026-09-03T11:25:10Z</time></trkpt><trkpt lat="59.2179135606" lon="31.4323663060"><ele>158.27</ele><time>2026-09-03T11:25:14Z</time></trkpt><trkpt lat="59.2179734074" lon="31.4322674833"><ele>157.31</ele><time>2026-09-03T11:25:28Z</time></trkpt><trkpt lat="59.2180293985" lon="31.4320860989"><ele>156.83</ele><time>2026-09-03T11:25:48Z</time></trkpt><trkpt lat="59.2180594057" lon="31.4319265075"><ele>156.35</ele><time>2026-09-03T11:26:02Z</time></trkpt><trkpt lat="59.2180418037" lon="31.4318158664"><ele>156.35</ele><time>2026-09-03T11:26:18Z</time></trkpt><trkpt lat="59.2180480063" lon="31.4316872880"><ele>156.83</ele><time>2026-09-03T11:26:33Z</time></trkpt><trkpt lat="59.2180408817" lon="31.4316804148"><ele>152.03</ele><time>2026-09-03T11:26:50Z</time></trkpt><trkpt lat="59.2180450726" lon="31.4316785708"><ele>153.47</ele><time>2026-09-03T11:26:51Z</time></trkpt><trkpt lat="59.2181030754" lon="31.4315261040"><ele>155.39</ele><time>2026-09-03T11:27:05Z</time></trkpt><trkpt lat="59.2181045003" lon="31.4314240962"><ele>151.54</ele><time>2026-09-03T11:27:20Z</time></trkpt><trkpt lat="59.2181399558" lon="31.4314404409"><ele>154.43</ele><time>2026-09-03T11:27:31Z</time></trkpt><trkpt lat="59.2181287240" lon="31.4313802589"><ele>153.95</ele><time>2026-09-03T11:27:55Z</time></trkpt><trkpt lat="59.2180715594" lon="31.4313312247"><ele>153.95</ele><time>2026-09-03T11:28:14Z</time></trkpt><trkpt lat="59.2180842999" lon="31.4312515967"><ele>150.10</ele><time>2026-09-03T11:28:31Z</time></trkpt><trkpt lat="59.2180849705" lon="31.4312546980"><ele>150.58</ele><time>2026-09-03T11:28:32Z</time></trkpt><trkpt lat="59.2180921789" lon="31.4312710427"><ele>153.95</ele><time>2026-09-03T11:28:33Z</time></trkpt><trkpt lat="59.2180925980" lon="31.4312758204"><ele>154.91</ele><time>2026-09-03T11:28:35Z</time></trkpt><trkpt lat="59.2180962022" lon="31.4312792569"><ele>152.99</ele><time>2026-09-03T11:28:38Z</time></trkpt><trkpt lat="59.2181037460" lon="31.4313171431"><ele>151.06</ele><time>2026-09-03T11:29:08Z</time></trkpt><trkpt lat="59.2181011476" lon="31.4312892314"><ele>150.10</ele><time>2026-09-03T11:29:30Z</time></trkpt><trkpt lat="59.2180935200" lon="31.4312596433"><ele>149.62</ele><time>2026-09-03T11:30:00Z</time></trkpt><trkpt lat="59.2180984654" lon="31.4312636666"><ele>147.70</ele><time>2026-09-03T11:30:29Z</time></trkpt><trkpt lat="59.2181032430" lon="31.4312727191"><ele>143.85</ele><time>2026-09-03T11:30:30Z</time></trkpt><trkpt lat="59.2181086913" lon="31.4312880579"><ele>140.49</ele><time>2026-09-03T11:30:31Z</time></trkpt><trkpt lat="59.2181152292" lon="31.4313228428"><ele>147.22</ele><time>2026-09-03T11:30:32Z</time></trkpt><trkpt lat="59.2181188334" lon="31.4313395228"><ele>147.22</ele><time>2026-09-03T11:30:33Z</time></trkpt><trkpt lat="59.2181431409" lon="31.4314133674"><ele>145.78</ele><time>2026-09-03T11:31:00Z</time></trkpt><trkpt lat="59.2181215156" lon="31.4314166363"><ele>142.41</ele><time>2026-09-03T11:31:26Z</time></trkpt><trkpt lat="59.2181253713" lon="31.4313321467"><ele>139.53</ele><time>2026-09-03T11:31:46Z</time></trkpt><trkpt lat="59.2181260418" lon="31.4313225076"><ele>135.20</ele><time>2026-09-03T11:32:08Z</time></trkpt><trkpt lat="59.2181273829" lon="31.4313197415"><ele>135.20</ele><time>2026-09-03T11:32:09Z</time></trkpt><trkpt lat="59.2181743216" lon="31.4312313963"><ele>130.40</ele><time>2026-09-03T11:32:23Z</time></trkpt><trkpt lat="59.2181823682" lon="31.4312221762"><ele>135.68</ele><time>2026-09-03T11:32:25Z</time></trkpt><trkpt lat="59.2181854695" lon="31.4312149677"><ele>134.24</ele><time>2026-09-03T11:32:26Z</time></trkpt><trkpt lat="59.2181920912" lon="31.4311986230"><ele>132.80</ele><time>2026-09-03T11:32:28Z</time></trkpt><trkpt lat="59.2182368506" lon="31.4311823621"><ele>130.40</ele><time>2026-09-03T11:32:39Z</time></trkpt><trkpt lat="59.2182767484" lon="31.4310876466"><ele>131.84</ele><time>2026-09-03T11:32:53Z</time></trkpt><trkpt lat="59.2182661872" lon="31.4310425520"><ele>130.40</ele><time>2026-09-03T11:33:07Z</time></trkpt><trkpt lat="59.2182650138" lon="31.4310362656"><ele>128.47</ele><time>2026-09-03T11:33:10Z</time></trkpt><trkpt lat="59.2182738148" lon="31.4310291409"><ele>130.88</ele><time>2026-09-03T11:33:13Z</time></trkpt><trkpt lat="59.2184075061" lon="31.4309253730"><ele>127.51</ele><time>2026-09-03T11:33:27Z</time></trkpt><trkpt lat="59.2184392735" lon="31.4308254607"><ele>130.88</ele><time>2026-09-03T11:33:35Z</time></trkpt><trkpt lat="59.2184435483" lon="31.4308128040"><ele>130.40</ele><time>2026-09-03T11:33:36Z</time></trkpt><trkpt lat="59.2184693646" lon="31.4306482673"><ele>128.95</ele><time>2026-09-03T11:33:50Z</time></trkpt><trkpt lat="59.2185082566" lon="31.4304880053"><ele>130.88</ele><time>2026-09-03T11:34:07Z</time></trkpt><trkpt lat="59.2185761500" lon="31.4304979797"><ele>128.47</ele><time>2026-09-03T11:34:21Z</time></trkpt><trkpt lat="59.2186458874" lon="31.4304767735"><ele>129.92</ele><time>2026-09-03T11:34:35Z</time></trkpt><trkpt lat="59.2186771519" lon="31.4304428268"><ele>124.15</ele><time>2026-09-03T11:34:48Z</time></trkpt><trkpt lat="59.2186800018" lon="31.4304424915"><ele>127.99</ele><time>2026-09-03T11:34:49Z</time></trkpt><trkpt lat="59.2187165469" lon="31.4305332676"><ele>127.99</ele><time>2026-09-03T11:35:01Z</time></trkpt><trkpt lat="59.2187567800" lon="31.4304802101"><ele>129.43</ele><time>2026-09-03T11:35:04Z</time></trkpt><trkpt lat="59.2187986057" lon="31.4304435812"><ele>127.99</ele><time>2026-09-03T11:35:09Z</time></trkpt><trkpt lat="59.2188181356" lon="31.4303439204"><ele>130.88</ele><time>2026-09-03T11:35:18Z</time></trkpt><trkpt lat="59.2188286129" lon="31.4303178526"><ele>128.95</ele><time>2026-09-03T11:35:23Z</time></trkpt><trkpt lat="59.2188634817" lon="31.4302757755"><ele>129.43</ele><time>2026-09-03T11:35:39Z</time></trkpt><trkpt lat="59.2189050559" lon="31.4302461874"><ele>127.99</ele><time>2026-09-03T11:35:55Z</time></trkpt><trkpt lat="59.2189627234" lon="31.4302090555"><ele>128.47</ele><time>2026-09-03T11:36:11Z</time></trkpt><trkpt lat="59.2189863604" lon="31.4301570877"><ele>127.51</ele><time>2026-09-03T11:36:26Z</time></trkpt><trkpt lat="59.2190193851" lon="31.4301066287"><ele>126.55</ele><time>2026-09-03T11:36:41Z</time></trkpt><trkpt lat="59.2190373223" lon="31.4301794674"><ele>127.51</ele><time>2026-09-03T11:36:59Z</time></trkpt><trkpt lat="59.2190724425" lon="31.4301953930"><ele>125.59</ele><time>2026-09-03T11:37:15Z</time></trkpt><trkpt lat="59.2191286013" lon="31.4301552437"><ele>125.11</ele><time>2026-09-03T11:37:35Z</time></trkpt><trkpt lat="59.2191030364" lon="31.4300772920"><ele>125.59</ele><time>2026-09-03T11:37:50Z</time></trkpt><trkpt lat="59.2191126756" lon="31.4300523140"><ele>123.67</ele><time>2026-09-03T11:37:53Z</time></trkpt><trkpt lat="59.2191154417" lon="31.4299570955"><ele>123.19</ele><time>2026-09-03T11:38:11Z</time></trkpt><trkpt lat="59.2191493884" lon="31.4298847597"><ele>120.30</ele><time>2026-09-03T11:38:32Z</time></trkpt><trkpt lat="59.2192077264" lon="31.4300513081"><ele>123.19</ele><time>2026-09-03T11:38:39Z</time></trkpt><trkpt lat="59.2192143481" lon="31.4300720114"><ele>123.19</ele><time>2026-09-03T11:38:40Z</time></trkpt><trkpt lat="59.2193157692" lon="31.4300908707"><ele>117.42</ele><time>2026-09-03T11:38:53Z</time></trkpt><trkpt lat="59.2193250731" lon="31.4300601929"><ele>117.42</ele><time>2026-09-03T11:38:54Z</time></trkpt><trkpt lat="59.2193341255" lon="31.4300224744"><ele>122.22</ele><time>2026-09-03T11:39:00Z</time></trkpt><trkpt lat="59.2193384841" lon="31.4300184511"><ele>121.74</ele><time>2026-09-03T11:39:01Z</time></trkpt><trkpt lat="59.2193324491" lon="31.4298260864"><ele>121.26</ele><time>2026-09-03T11:39:15Z</time></trkpt><trkpt lat="59.2193268333" lon="31.4297969174"><ele>121.74</ele><time>2026-09-03T11:39:19Z</time></trkpt><trkpt lat="59.2193297669" lon="31.4297825005"><ele>119.82</ele><time>2026-09-03T11:39:24Z</time></trkpt><trkpt lat="59.2193740234" lon="31.4298468735"><ele>120.78</ele><time>2026-09-03T11:39:45Z</time></trkpt><trkpt lat="59.2193291802" lon="31.4297778904"><ele>121.26</ele><time>2026-09-03T11:40:02Z</time></trkpt><trkpt lat="59.2193121649" lon="31.4298128430"><ele>117.90</ele><time>2026-09-03T11:40:09Z</time></trkpt><trkpt lat="59.2193094827" lon="31.4298164472"><ele>117.90</ele><time>2026-09-03T11:40:10Z</time></trkpt><trkpt lat="59.2192461994" lon="31.4296080731"><ele>119.34</ele><time>2026-09-03T11:40:26Z</time></trkpt><trkpt lat="59.2192772124" lon="31.4294970129"><ele>118.86</ele><time>2026-09-03T11:40:47Z</time></trkpt><trkpt lat="59.2193501350" lon="31.4293220825"><ele>117.90</ele><time>2026-09-03T11:41:05Z</time></trkpt><trkpt lat="59.2193971574" lon="31.4292758144"><ele>117.42</ele><time>2026-09-03T11:41:19Z</time></trkpt><trkpt lat="59.2194146756" lon="31.4291397762"><ele>118.38</ele><time>2026-09-03T11:41:34Z</time></trkpt><trkpt lat="59.2194510531" lon="31.4290243573"><ele>115.98</ele><time>2026-09-03T11:41:53Z</time></trkpt><trkpt lat="59.2195476126" lon="31.4288947731"><ele>116.46</ele><time>2026-09-03T11:42:10Z</time></trkpt><trkpt lat="59.2196085490" lon="31.4288714714"><ele>115.01</ele><time>2026-09-03T11:42:35Z</time></trkpt><trkpt lat="59.2196040228" lon="31.4288762491"><ele>115.98</ele><time>2026-09-03T11:42:37Z</time></trkpt><trkpt lat="59.2196212057" lon="31.4288973715"><ele>114.53</ele><time>2026-09-03T11:43:06Z</time></trkpt><trkpt lat="59.2196263187" lon="31.4288715553"><ele>110.21</ele><time>2026-09-03T11:43:16Z</time></trkpt><trkpt lat="59.2196257319" lon="31.4288690407"><ele>110.21</ele><time>2026-09-03T11:43:17Z</time></trkpt><trkpt lat="59.2196401488" lon="31.4289069269"><ele>106.84</ele><time>2026-09-03T11:43:38Z</time></trkpt><trkpt lat="59.2196441721" lon="31.4288922586"><ele>106.84</ele><time>2026-09-03T11:43:39Z</time></trkpt><trkpt lat="59.2196638696" lon="31.4288589824"><ele>103.48</ele><time>2026-09-03T11:43:55Z</time></trkpt><trkpt lat="59.2196663003" lon="31.4288713876"><ele>106.36</ele><time>2026-09-03T11:43:58Z</time></trkpt><trkpt lat="59.2196518835" lon="31.4290184900"><ele>103.00</ele><time>2026-09-03T11:44:10Z</time></trkpt><trkpt lat="59.2196615227" lon="31.4290433843"><ele>101.08</ele><time>2026-09-03T11:44:13Z</time></trkpt><trkpt lat="59.2196518835" lon="31.4290601481"><ele>106.36</ele><time>2026-09-03T11:44:17Z</time></trkpt><trkpt lat="59.2196158413" lon="31.4290629979"><ele>106.36</ele><time>2026-09-03T11:44:43Z</time></trkpt><trkpt lat="59.2196003348" lon="31.4289908297"><ele>103.48</ele><time>2026-09-03T11:44:54Z</time></trkpt><trkpt lat="59.2196859140" lon="31.4288652688"><ele>106.36</ele><time>2026-09-03T11:45:08Z</time></trkpt><trkpt lat="59.2197744269" lon="31.4287329186"><ele>106.84</ele><time>2026-09-03T11:45:24Z</time></trkpt><trkpt lat="59.2198208626" lon="31.4286443219"><ele>107.81</ele><time>2026-09-03T11:45:39Z</time></trkpt><trkpt lat="59.2198740039" lon="31.4285137318"><ele>107.32</ele><time>2026-09-03T11:45:53Z</time></trkpt><trkpt lat="59.2199020833" lon="31.4283920266"><ele>107.81</ele><time>2026-09-03T11:46:08Z</time></trkpt><trkpt lat="59.2199321743" lon="31.4282301720"><ele>106.84</ele><time>2026-09-03T11:46:22Z</time></trkpt><trkpt lat="59.2200075276" lon="31.4281875920"><ele>110.21</ele><time>2026-09-03T11:46:42Z</time></trkpt><trkpt lat="59.2200418096" lon="31.4281613566"><ele>108.29</ele><time>2026-09-03T11:46:45Z</time></trkpt><trkpt lat="59.2201125529" lon="31.4280837402"><ele>109.73</ele><time>2026-09-03T11:47:01Z</time></trkpt><trkpt lat="59.2201454099" lon="31.4280312695"><ele>110.21</ele><time>2026-09-03T11:47:12Z</time></trkpt><trkpt lat="59.2201413028" lon="31.4279951435"><ele>108.77</ele><time>2026-09-03T11:47:16Z</time></trkpt><trkpt lat="59.2201435659" lon="31.4279712550"><ele>110.21</ele><time>2026-09-03T11:47:18Z</time></trkpt><trkpt lat="59.2201535404" lon="31.4279547427"><ele>108.29</ele><time>2026-09-03T11:47:20Z</time></trkpt><trkpt lat="59.2202054244" lon="31.4279019367"><ele>109.73</ele><time>2026-09-03T11:47:23Z</time></trkpt><trkpt lat="59.2202971224" lon="31.4277702570"><ele>110.21</ele><time>2026-09-03T11:47:37Z</time></trkpt><trkpt lat="59.2203132156" lon="31.4277657308"><ele>110.21</ele><time>2026-09-03T11:47:44Z</time></trkpt><trkpt lat="59.2204057518" lon="31.4276420139"><ele>109.73</ele><time>2026-09-03T11:47:59Z</time></trkpt><trkpt lat="59.2204067577" lon="31.4275807422"><ele>110.69</ele><time>2026-09-03T11:48:14Z</time></trkpt><trkpt lat="59.2203885689" lon="31.4275799040"><ele>110.69</ele><time>2026-09-03T11:48:29Z</time></trkpt><trkpt lat="59.2204305623" lon="31.4274910558"><ele>110.21</ele><time>2026-09-03T11:48:45Z</time></trkpt><trkpt lat="59.2204878107" lon="31.4274296165"><ele>109.25</ele><time>2026-09-03T11:49:05Z</time></trkpt><trkpt lat="59.2205246072" lon="31.4274506550"><ele>107.32</ele><time>2026-09-03T11:49:16Z</time></trkpt><trkpt lat="59.2206028104" lon="31.4275287744"><ele>109.73</ele><time>2026-09-03T11:49:27Z</time></trkpt><trkpt lat="59.2206090968" lon="31.4275111724"><ele>109.73</ele><time>2026-09-03T11:49:28Z</time></trkpt><trkpt lat="59.2206778284" lon="31.4273504075"><ele>105.88</ele><time>2026-09-03T11:49:42Z</time></trkpt><trkpt lat="59.2206779961" lon="31.4273528382"><ele>104.92</ele><time>2026-09-03T11:49:44Z</time></trkpt><trkpt lat="59.2206775770" lon="31.4273466356"><ele>101.56</ele><time>2026-09-03T11:50:02Z</time></trkpt><trkpt lat="59.2206790019" lon="31.4273444563"><ele>101.56</ele><time>2026-09-03T11:50:03Z</time></trkpt><trkpt lat="59.2206660938" lon="31.4273237530"><ele>103.48</ele><time>2026-09-03T11:50:09Z</time></trkpt><trkpt lat="59.2206597235" lon="31.4273193106"><ele>100.11</ele><time>2026-09-03T11:50:23Z</time></trkpt><trkpt lat="59.2206713744" lon="31.4273561910"><ele>97.23</ele><time>2026-09-03T11:50:32Z</time></trkpt><trkpt lat="59.2206681892" lon="31.4273578674"><ele>94.35</ele><time>2026-09-03T11:50:37Z</time></trkpt><trkpt lat="59.2206691112" lon="31.4273461327"><ele>90.98</ele><time>2026-09-03T11:50:48Z</time></trkpt><trkpt lat="59.2206725478" lon="31.4273477253"><ele>90.50</ele><time>2026-09-03T11:50:50Z</time></trkpt><trkpt lat="59.2206940055" lon="31.4273209870"><ele>88.10</ele><time>2026-09-03T11:50:59Z</time></trkpt><trkpt lat="59.2207561992" lon="31.4272596315"><ele>85.21</ele><time>2026-09-03T11:51:07Z</time></trkpt><trkpt lat="59.2208136152" lon="31.4271440450"><ele>81.85</ele><time>2026-09-03T11:51:19Z</time></trkpt><trkpt lat="59.2208743002" lon="31.4270463958"><ele>79.93</ele><time>2026-09-03T11:51:31Z</time></trkpt><trkpt lat="59.2209272739" lon="31.4269672707"><ele>76.08</ele><time>2026-09-03T11:51:41Z</time></trkpt><trkpt lat="59.2210150324" lon="31.4268541150"><ele>76.08</ele><time>2026-09-03T11:51:54Z</time></trkpt><trkpt lat="59.2211091612" lon="31.4267425518"><ele>74.16</ele><time>2026-09-03T11:52:08Z</time></trkpt><trkpt lat="59.2211466283" lon="31.4266868960"><ele>71.76</ele><time>2026-09-03T11:52:14Z</time></trkpt><trkpt lat="59.2211662419" lon="31.4265859779"><ele>71.76</ele><time>2026-09-03T11:52:20Z</time></trkpt><trkpt lat="59.2212443613" lon="31.4264829643"><ele>69.83</ele><time>2026-09-03T11:52:34Z</time></trkpt><trkpt lat="59.2212897912" lon="31.4264173340"><ele>68.39</ele><time>2026-09-03T11:52:44Z</time></trkpt><trkpt lat="59.2213447765" lon="31.4262921922"><ele>67.91</ele><time>2026-09-03T11:52:58Z</time></trkpt><trkpt lat="59.2213639710" lon="31.4262544736"><ele>67.91</ele><time>2026-09-03T11:53:02Z</time></trkpt><trkpt lat="59.2213879433" lon="31.4262206946"><ele>66.47</ele><time>2026-09-03T11:53:17Z</time></trkpt><trkpt lat="59.2214890290" lon="31.4260781184"><ele>64.55</ele><time>2026-09-03T11:53:32Z</time></trkpt><trkpt lat="59.2214999255" lon="31.4260600135"><ele>64.55</ele><time>2026-09-03T11:53:34Z</time></trkpt><trkpt lat="59.2215432599" lon="31.4259854145"><ele>64.07</ele><time>2026-09-03T11:53:42Z</time></trkpt><trkpt lat="59.2216290906" lon="31.4258627035"><ele>61.18</ele><time>2026-09-03T11:53:55Z</time></trkpt><trkpt lat="59.2216497101" lon="31.4258010127"><ele>61.66</ele><time>2026-09-03T11:54:09Z</time></trkpt><trkpt lat="59.2216445133" lon="31.4257834107"><ele>59.26</ele><time>2026-09-03T11:54:14Z</time></trkpt><trkpt lat="59.2216596007" lon="31.4256462827"><ele>57.82</ele><time>2026-09-03T11:54:24Z</time></trkpt><trkpt lat="59.2217141669" lon="31.4255159441"><ele>54.93</ele><time>2026-09-03T11:54:36Z</time></trkpt><trkpt lat="59.2217213754" lon="31.4255254157"><ele>55.41</ele><time>2026-09-03T11:54:37Z</time></trkpt><trkpt lat="59.2217714153" lon="31.4255020302"><ele>52.05</ele><time>2026-09-03T11:54:46Z</time></trkpt><trkpt lat="59.2217789590" lon="31.4254835062"><ele>53.49</ele><time>2026-09-03T11:55:04Z</time></trkpt><trkpt lat="59.2217814736" lon="31.4254585281"><ele>52.05</ele><time>2026-09-03T11:55:06Z</time></trkpt><trkpt lat="59.2217906099" lon="31.4254422672"><ele>51.09</ele><time>2026-09-03T11:55:08Z</time></trkpt><trkpt lat="59.2218368780" lon="31.4253720269"><ele>47.72</ele><time>2026-09-03T11:55:19Z</time></trkpt><trkpt lat="59.2218586709" lon="31.4253537543"><ele>43.40</ele><time>2026-09-03T11:55:27Z</time></trkpt><trkpt lat="59.2218644544" lon="31.4253448695"><ele>43.88</ele><time>2026-09-03T11:55:28Z</time></trkpt><trkpt lat="59.2218871694" lon="31.4252997749"><ele>40.03</ele><time>2026-09-03T11:55:36Z</time></trkpt><trkpt lat="59.2218904383" lon="31.4252962545"><ele>42.44</ele><time>2026-09-03T11:55:37Z</time></trkpt><trkpt lat="59.2219023407" lon="31.4252848551"><ele>42.92</ele><time>2026-09-03T11:55:39Z</time></trkpt><trkpt lat="59.2219952121" lon="31.4251991920"><ele>41.95</ele><time>2026-09-03T11:55:52Z</time></trkpt><trkpt lat="59.2221217789" lon="31.4251158759"><ele>40.99</ele><time>2026-09-03T11:56:08Z</time></trkpt><trkpt lat="59.2221519537" lon="31.4251266886"><ele>39.55</ele><time>2026-09-03T11:56:20Z</time></trkpt><trkpt lat="59.2221564800" lon="31.4251209889"><ele>33.78</ele><time>2026-09-03T11:56:35Z</time></trkpt><trkpt lat="59.2221551389" lon="31.4251267724"><ele>35.71</ele><time>2026-09-03T11:56:36Z</time></trkpt><trkpt lat="59.2221490201" lon="31.4251722023"><ele>32.82</ele><time>2026-09-03T11:56:47Z</time></trkpt><trkpt lat="59.2221462540" lon="31.4251530915"><ele>35.23</ele><time>2026-09-03T11:56:53Z</time></trkpt><trkpt lat="59.2221444938" lon="31.4251249284"><ele>32.34</ele><time>2026-09-03T11:57:16Z</time></trkpt><trkpt lat="59.2221306637" lon="31.4251464698"><ele>31.86</ele><time>2026-09-03T11:57:43Z</time></trkpt><trkpt lat="59.2221483495" lon="31.4251794107"><ele>28.02</ele><time>2026-09-03T11:57:59Z</time></trkpt><trkpt lat="59.2221455835" lon="31.4251675922"><ele>25.13</ele><time>2026-09-03T11:58:09Z</time></trkpt><trkpt lat="59.2221760098" lon="31.4252773952"><ele>23.21</ele><time>2026-09-03T11:58:25Z</time></trkpt><trkpt lat="59.2222152371" lon="31.4254461229"><ele>22.25</ele><time>2026-09-03T11:58:38Z</time></trkpt><trkpt lat="59.2222341802" lon="31.4256011043"><ele>20.81</ele><time>2026-09-03T11:58:51Z</time></trkpt><trkpt lat="59.2222462501" lon="31.4256780501"><ele>20.32</ele><time>2026-09-03T11:58:57Z</time></trkpt><trkpt lat="59.2222711444" lon="31.4257866796"><ele>18.88</ele><time>2026-09-03T11:59:08Z</time></trkpt><trkpt lat="59.2222932726" lon="31.4259442594"><ele>18.40</ele><time>2026-09-03T11:59:20Z</time></trkpt><trkpt lat="59.2223363556" lon="31.4261571597"><ele>17.44</ele><time>2026-09-03T11:59:36Z</time></trkpt><trkpt lat="59.2223540414" lon="31.4262630232"><ele>17.92</ele><time>2026-09-03T11:59:48Z</time></trkpt><trkpt lat="59.2223838810" lon="31.4264558908"><ele>18.40</ele><time>2026-09-03T12:00:02Z</time></trkpt><trkpt lat="59.2224012315" lon="31.4266144764"><ele>17.92</ele><time>2026-09-03T12:00:14Z</time></trkpt><trkpt lat="59.2223825399" lon="31.4268402010"><ele>15.04</ele><time>2026-09-03T12:00:30Z</time></trkpt><trkpt lat="59.2223984655" lon="31.4270037320"><ele>16.96</ele><time>2026-09-03T12:00:42Z</time></trkpt><trkpt lat="59.2224272992" lon="31.4271836076"><ele>16.96</ele><time>2026-09-03T12:00:58Z</time></trkpt><trkpt lat="59.2224298976" lon="31.4273088332"><ele>16.00</ele><time>2026-09-03T12:01:10Z</time></trkpt><trkpt lat="59.2224272992" lon="31.4273978490"><ele>14.56</ele><time>2026-09-03T12:01:29Z</time></trkpt><trkpt lat="59.2224278022" lon="31.4274122659"><ele>14.56</ele><time>2026-09-03T12:01:30Z</time></trkpt><trkpt lat="59.2224238627" lon="31.4274730347"><ele>14.08</ele><time>2026-09-03T12:01:34Z</time></trkpt><trkpt lat="59.2224519420" lon="31.4276216459"><ele>13.12</ele><time>2026-09-03T12:01:46Z</time></trkpt><trkpt lat="59.2224661913" lon="31.4278052095"><ele>13.12</ele><time>2026-09-03T12:02:01Z</time></trkpt><trkpt lat="59.2224803567" lon="31.4279658906"><ele>14.08</ele><time>2026-09-03T12:02:14Z</time></trkpt><trkpt lat="59.2224932648" lon="31.4280544035"><ele>16.48</ele><time>2026-09-03T12:02:41Z</time></trkpt><trkpt lat="59.2225046642" lon="31.4282352012"><ele>15.04</ele><time>2026-09-03T12:02:55Z</time></trkpt><trkpt lat="59.2225460708" lon="31.4284595847"><ele>15.52</ele><time>2026-09-03T12:03:10Z</time></trkpt><trkpt lat="59.2225775868" lon="31.4286291506"><ele>15.04</ele><time>2026-09-03T12:03:23Z</time></trkpt><trkpt lat="59.2225872260" lon="31.4287616685"><ele>13.60</ele><time>2026-09-03T12:03:37Z</time></trkpt><trkpt lat="59.2225972004" lon="31.4288393687"><ele>11.19</ele><time>2026-09-03T12:03:52Z</time></trkpt><trkpt lat="59.2225930095" lon="31.4288348425"><ele>10.71</ele><time>2026-09-03T12:03:54Z</time></trkpt><trkpt lat="59.2226042412" lon="31.4288196713"><ele>10.71</ele><time>2026-09-03T12:04:16Z</time></trkpt><trkpt lat="59.2226292193" lon="31.4287988003"><ele>2.06</ele><time>2026-09-03T12:04:48Z</time></trkpt><trkpt lat="59.2226286326" lon="31.4287994709"><ele>2.06</ele><time>2026-09-03T12:04:49Z</time></trkpt><trkpt lat="59.2226173170" lon="31.4287863951"><ele>1.58</ele><time>2026-09-03T12:05:16Z</time></trkpt><trkpt lat="59.2226175684" lon="31.4287512749"><ele>4.94</ele><time>2026-09-03T12:05:54Z</time></trkpt><trkpt lat="59.2226091027" lon="31.4287412167"><ele>7.83</ele><time>2026-09-03T12:06:32Z</time></trkpt><trkpt lat="59.2226178199" lon="31.4287619200"><ele>10.23</ele><time>2026-09-03T12:07:04Z</time></trkpt><trkpt lat="59.2225883156" lon="31.4287573099"><ele>10.71</ele><time>2026-09-03T12:07:19Z</time></trkpt><trkpt lat="59.2225951888" lon="31.4287645184"><ele>14.08</ele><time>2026-09-03T12:07:52Z</time></trkpt><trkpt lat="59.2226029001" lon="31.4287625067"><ele>16.96</ele><time>2026-09-03T12:08:20Z</time></trkpt><trkpt lat="59.2226083484" lon="31.4287661109"><ele>19.84</ele><time>2026-09-03T12:08:49Z</time></trkpt><trkpt lat="59.2226152215" lon="31.4287579805"><ele>23.21</ele><time>2026-09-03T12:09:18Z</time></trkpt><trkpt lat="59.2226163950" lon="31.4287753310"><ele>26.09</ele><time>2026-09-03T12:09:44Z</time></trkpt><trkpt lat="59.2226027325" lon="31.4287993032"><ele>28.02</ele><time>2026-09-03T12:10:32Z</time></trkpt><trkpt lat="59.2226218432" lon="31.4287766721"><ele>28.50</ele><time>2026-09-03T12:10:45Z</time></trkpt><trkpt lat="59.2225778382" lon="31.4287982974"><ele>24.65</ele><time>2026-09-03T12:11:02Z</time></trkpt><trkpt lat="59.2225775030" lon="31.4287991356"><ele>24.17</ele><time>2026-09-03T12:11:04Z</time></trkpt><trkpt lat="59.2225780059" lon="31.4288034104"><ele>12.15</ele><time>2026-09-03T12:11:06Z</time></trkpt><trkpt lat="59.2225789279" lon="31.4288046677"><ele>13.60</ele><time>2026-09-03T12:11:07Z</time></trkpt><trkpt lat="59.2225788441" lon="31.4288107865"><ele>21.77</ele><time>2026-09-03T12:11:09Z</time></trkpt><trkpt lat="59.2225817777" lon="31.4288093615"><ele>22.25</ele><time>2026-09-03T12:11:11Z</time></trkpt><trkpt lat="59.2225750722" lon="31.4288574737"><ele>22.73</ele><time>2026-09-03T12:11:27Z</time></trkpt><trkpt lat="59.2225659359" lon="31.4288957790"><ele>21.29</ele><time>2026-09-03T12:11:55Z</time></trkpt><trkpt lat="59.2224970367" lon="31.4290552866"><ele>22.73</ele><time>2026-09-03T12:12:09Z</time></trkpt><trkpt lat="59.2224775068" lon="31.4291277062"><ele>23.21</ele><time>2026-09-03T12:12:14Z</time></trkpt><trkpt lat="59.2224179115" lon="31.4293438755"><ele>24.17</ele><time>2026-09-03T12:12:28Z</time></trkpt><trkpt lat="59.2223464139" lon="31.4295498189"><ele>25.13</ele><time>2026-09-03T12:12:44Z</time></trkpt><trkpt lat="59.2222599965" lon="31.4297591988"><ele>26.57</ele><time>2026-09-03T12:13:00Z</time></trkpt><trkpt lat="59.2221840564" lon="31.4299464505"><ele>27.53</ele><time>2026-09-03T12:13:15Z</time></trkpt><trkpt lat="59.2220760137" lon="31.4301914535"><ele>28.50</ele><time>2026-09-03T12:13:32Z</time></trkpt><trkpt lat="59.2220211122" lon="31.4303441718"><ele>29.94</ele><time>2026-09-03T12:13:42Z</time></trkpt><trkpt lat="59.2219435796" lon="31.4305739198"><ele>30.90</ele><time>2026-09-03T12:13:58Z</time></trkpt><trkpt lat="59.2218507919" lon="31.4308118820"><ele>30.90</ele><time>2026-09-03T12:14:14Z</time></trkpt><trkpt lat="59.2218402307" lon="31.4308335911"><ele>32.34</ele><time>2026-09-03T12:14:16Z</time></trkpt><trkpt lat="59.2218146659" lon="31.4309140574"><ele>33.30</ele><time>2026-09-03T12:14:21Z</time></trkpt><trkpt lat="59.2217711639" lon="31.4310220163"><ele>33.78</ele><time>2026-09-03T12:14:28Z</time></trkpt><trkpt lat="59.2217009235" lon="31.4312030654"><ele>35.71</ele><time>2026-09-03T12:14:42Z</time></trkpt><trkpt lat="59.2216217145" lon="31.4314357471"><ele>37.63</ele><time>2026-09-03T12:14:58Z</time></trkpt><trkpt lat="59.2215414159" lon="31.4316650759"><ele>39.55</ele><time>2026-09-03T12:15:14Z</time></trkpt><trkpt lat="59.2214803118" lon="31.4318240806"><ele>40.03</ele><time>2026-09-03T12:15:25Z</time></trkpt><trkpt lat="59.2214583512" lon="31.4318652358"><ele>40.51</ele><time>2026-09-03T12:15:28Z</time></trkpt><trkpt lat="59.2213588580" lon="31.4320889488"><ele>40.03</ele><time>2026-09-03T12:15:42Z</time></trkpt><trkpt lat="59.2212980893" lon="31.4322478697"><ele>42.44</ele><time>2026-09-03T12:15:58Z</time></trkpt><trkpt lat="59.2212344706" lon="31.4324666373"><ele>43.40</ele><time>2026-09-03T12:16:12Z</time></trkpt><trkpt lat="59.2211458739" lon="31.4326786995"><ele>44.84</ele><time>2026-09-03T12:16:27Z</time></trkpt><trkpt lat="59.2210208997" lon="31.4329322521"><ele>47.24</ele><time>2026-09-03T12:16:45Z</time></trkpt><trkpt lat="59.2209345661" lon="31.4331552945"><ele>49.16</ele><time>2026-09-03T12:17:01Z</time></trkpt><trkpt lat="59.2208190635" lon="31.4333813544"><ele>50.61</ele><time>2026-09-03T12:17:18Z</time></trkpt><trkpt lat="59.2207300477" lon="31.4336868748"><ele>52.53</ele><time>2026-09-03T12:17:39Z</time></trkpt><trkpt lat="59.2207001243" lon="31.4337446261"><ele>51.09</ele><time>2026-09-03T12:17:46Z</time></trkpt><trkpt lat="59.2206652556" lon="31.4337792434"><ele>53.01</ele><time>2026-09-03T12:18:05Z</time></trkpt><trkpt lat="59.2206432950" lon="31.4337981027"><ele>53.97</ele><time>2026-09-03T12:18:22Z</time></trkpt><trkpt lat="59.2206707876" lon="31.4338421077"><ele>54.93</ele><time>2026-09-03T12:18:33Z</time></trkpt><trkpt lat="59.2206160538" lon="31.4338887949"><ele>44.36</ele><time>2026-09-03T12:18:45Z</time></trkpt><trkpt lat="59.2206140421" lon="31.4338968415"><ele>54.93</ele><time>2026-09-03T12:18:46Z</time></trkpt><trkpt lat="59.2206120305" lon="31.4339051396"><ele>56.37</ele><time>2026-09-03T12:18:48Z</time></trkpt><trkpt lat="59.2205659300" lon="31.4339220710"><ele>55.41</ele><time>2026-09-03T12:19:02Z</time></trkpt><trkpt lat="59.2205442209" lon="31.4339324646"><ele>56.37</ele><time>2026-09-03T12:19:04Z</time></trkpt><trkpt lat="59.2205374315" lon="31.4340286050"><ele>58.30</ele><time>2026-09-03T12:19:15Z</time></trkpt><trkpt lat="59.2205085978" lon="31.4340949059"><ele>58.30</ele><time>2026-09-03T12:19:30Z</time></trkpt><trkpt lat="59.2205172312" lon="31.4341092389"><ele>60.22</ele><time>2026-09-03T12:19:33Z</time></trkpt><trkpt lat="59.2205116991" lon="31.4340223186"><ele>61.18</ele><time>2026-09-03T12:19:48Z</time></trkpt><trkpt lat="59.2204795126" lon="31.4342088997"><ele>60.70</ele><time>2026-09-03T12:20:03Z</time></trkpt><trkpt lat="59.2204669397" lon="31.4342850912"><ele>62.62</ele><time>2026-09-03T12:20:15Z</time></trkpt><trkpt lat="59.2204622459" lon="31.4344411623"><ele>64.07</ele><time>2026-09-03T12:20:28Z</time></trkpt><trkpt lat="59.2204661015" lon="31.4344891068"><ele>65.51</ele><time>2026-09-03T12:20:43Z</time></trkpt><trkpt lat="59.2204508465" lon="31.4345489535"><ele>65.99</ele><time>2026-09-03T12:21:10Z</time></trkpt><trkpt lat="59.2203427199" lon="31.4346915297"><ele>66.95</ele><time>2026-09-03T12:21:28Z</time></trkpt><trkpt lat="59.2203604896" lon="31.4347416535"><ele>69.83</ele><time>2026-09-03T12:21:52Z</time></trkpt><trkpt lat="59.2203778401" lon="31.4347605966"><ele>66.47</ele><time>2026-09-03T12:22:06Z</time></trkpt><trkpt lat="59.2203765828" lon="31.4347512089"><ele>67.43</ele><time>2026-09-03T12:22:07Z</time></trkpt><trkpt lat="59.2203726433" lon="31.4347449224"><ele>61.66</ele><time>2026-09-03T12:22:12Z</time></trkpt><trkpt lat="59.2203713022" lon="31.4347440004"><ele>66.47</ele><time>2026-09-03T12:22:13Z</time></trkpt><trkpt lat="59.2203703802" lon="31.4347436652"><ele>71.27</ele><time>2026-09-03T12:22:14Z</time></trkpt><trkpt lat="59.2203696258" lon="31.4347419888"><ele>70.79</ele><time>2026-09-03T12:22:15Z</time></trkpt><trkpt lat="59.2203675304" lon="31.4348018356"><ele>71.76</ele><time>2026-09-03T12:22:33Z</time></trkpt><trkpt lat="59.2203811090" lon="31.4348255564"><ele>70.31</ele><time>2026-09-03T12:22:36Z</time></trkpt><trkpt lat="59.2203904968" lon="31.4348121453"><ele>73.20</ele><time>2026-09-03T12:22:39Z</time></trkpt><trkpt lat="59.2203652672" lon="31.4346760232"><ele>73.68</ele><time>2026-09-03T12:22:50Z</time></trkpt><trkpt lat="59.2203247827" lon="31.4346158411"><ele>75.60</ele><time>2026-09-03T12:23:16Z</time></trkpt><trkpt lat="59.2203610763" lon="31.4348165877"><ele>74.64</ele><time>2026-09-03T12:23:35Z</time></trkpt><trkpt lat="59.2203490902" lon="31.4349312522"><ele>75.60</ele><time>2026-09-03T12:23:52Z</time></trkpt><trkpt lat="59.2202947754" lon="31.4350331761"><ele>76.56</ele><time>2026-09-03T12:24:09Z</time></trkpt><trkpt lat="59.2202601582" lon="31.4349958766"><ele>76.56</ele><time>2026-09-03T12:24:20Z</time></trkpt><trkpt lat="59.2201609164" lon="31.4350240398"><ele>76.56</ele><time>2026-09-03T12:24:33Z</time></trkpt><trkpt lat="59.2200352717" lon="31.4351144806"><ele>78.00</ele><time>2026-09-03T12:24:47Z</time></trkpt><trkpt lat="59.2199758440" lon="31.4352712221"><ele>78.00</ele><time>2026-09-03T12:25:04Z</time></trkpt><trkpt lat="59.2199618462" lon="31.4353056718"><ele>79.45</ele><time>2026-09-03T12:25:11Z</time></trkpt><trkpt lat="59.2200392112" lon="31.4355148003"><ele>79.45</ele><time>2026-09-03T12:25:28Z</time></trkpt><trkpt lat="59.2200244591" lon="31.4357080869"><ele>79.45</ele><time>2026-09-03T12:25:42Z</time></trkpt><trkpt lat="59.2199892551" lon="31.4357796684"><ele>79.45</ele><time>2026-09-03T12:26:02Z</time></trkpt><trkpt lat="59.2199355271" lon="31.4358263556"><ele>79.45</ele><time>2026-09-03T12:26:14Z</time></trkpt><trkpt lat="59.2198735848" lon="31.4358439576"><ele>79.45</ele><time>2026-09-03T12:26:30Z</time></trkpt><trkpt lat="59.2197766900" lon="31.4357918222"><ele>80.41</ele><time>2026-09-03T12:26:42Z</time></trkpt><trkpt lat="59.2197780311" lon="31.4359468035"><ele>81.37</ele><time>2026-09-03T12:26:56Z</time></trkpt><trkpt lat="59.2198051885" lon="31.4360955823"><ele>81.37</ele><time>2026-09-03T12:27:12Z</time></trkpt><trkpt lat="59.2198366206" lon="31.4361745398"><ele>80.89</ele><time>2026-09-03T12:27:26Z</time></trkpt><trkpt lat="59.2198199406" lon="31.4361748751"><ele>82.33</ele><time>2026-09-03T12:27:36Z</time></trkpt><trkpt lat="59.2198915221" lon="31.4363078959"><ele>81.37</ele><time>2026-09-03T12:27:46Z</time></trkpt><trkpt lat="59.2198991496" lon="31.4365199581"><ele>81.85</ele><time>2026-09-03T12:28:02Z</time></trkpt><trkpt lat="59.2198160850" lon="31.4365906175"><ele>81.85</ele><time>2026-09-03T12:28:23Z</time></trkpt><trkpt lat="59.2197255604" lon="31.4366937149"><ele>82.33</ele><time>2026-09-03T12:28:39Z</time></trkpt><trkpt lat="59.2197170947" lon="31.4367238898"><ele>82.81</ele><time>2026-09-03T12:28:43Z</time></trkpt><trkpt lat="59.2196637858" lon="31.4368471038"><ele>84.73</ele><time>2026-09-03T12:29:00Z</time></trkpt><trkpt lat="59.2196352035" lon="31.4369146619"><ele>85.69</ele><time>2026-09-03T12:29:16Z</time></trkpt><trkpt lat="59.2195932101" lon="31.4369408973"><ele>83.29</ele><time>2026-09-03T12:29:36Z</time></trkpt><trkpt lat="59.2195923720" lon="31.4369721618"><ele>86.18</ele><time>2026-09-03T12:29:38Z</time></trkpt><trkpt lat="59.2196036875" lon="31.4370305836"><ele>84.25</ele><time>2026-09-03T12:29:41Z</time></trkpt><trkpt lat="59.2196087167" lon="31.4370754268"><ele>87.62</ele><time>2026-09-03T12:29:47Z</time></trkpt><trkpt lat="59.2196089681" lon="31.4371849783"><ele>89.54</ele><time>2026-09-03T12:30:01Z</time></trkpt><trkpt lat="59.2196129076" lon="31.4373173285"><ele>87.14</ele><time>2026-09-03T12:30:20Z</time></trkpt><trkpt lat="59.2196111474" lon="31.4373204298"><ele>88.58</ele><time>2026-09-03T12:30:21Z</time></trkpt><trkpt lat="59.2195832357" lon="31.4373479225"><ele>83.77</ele><time>2026-09-03T12:30:26Z</time></trkpt><trkpt lat="59.2195797153" lon="31.4373673685"><ele>87.14</ele><time>2026-09-03T12:30:27Z</time></trkpt><trkpt lat="59.2195804697" lon="31.4373768400"><ele>90.98</ele><time>2026-09-03T12:30:30Z</time></trkpt><trkpt lat="59.2195470259" lon="31.4372749999"><ele>90.50</ele><time>2026-09-03T12:30:43Z</time></trkpt><trkpt lat="59.2195248138" lon="31.4372538775"><ele>90.98</ele><time>2026-09-03T12:30:45Z</time></trkpt><trkpt lat="59.2194961477" lon="31.4374256227"><ele>91.94</ele><time>2026-09-03T12:30:58Z</time></trkpt><trkpt lat="59.2194958124" lon="31.4374386985"><ele>94.35</ele><time>2026-09-03T12:31:00Z</time></trkpt><trkpt lat="59.2194153462" lon="31.4375249483"><ele>93.87</ele><time>2026-09-03T12:31:18Z</time></trkpt><trkpt lat="59.2193395738" lon="31.4376631659"><ele>94.35</ele><time>2026-09-03T12:31:31Z</time></trkpt><trkpt lat="59.2193314433" lon="31.4376930892"><ele>90.98</ele><time>2026-09-03T12:31:33Z</time></trkpt><trkpt lat="59.2193265818" lon="31.4377126191"><ele>90.98</ele><time>2026-09-03T12:31:34Z</time></trkpt><trkpt lat="59.2193718441" lon="31.4377585519"><ele>95.79</ele><time>2026-09-03T12:31:53Z</time></trkpt><trkpt lat="59.2193704192" lon="31.4377494156"><ele>95.79</ele><time>2026-09-03T12:31:54Z</time></trkpt><trkpt lat="59.2193866801" lon="31.4376537781"><ele>95.79</ele><time>2026-09-03T12:32:16Z</time></trkpt><trkpt lat="59.2193325330" lon="31.4377189055"><ele>96.75</ele><time>2026-09-03T12:32:39Z</time></trkpt><trkpt lat="59.2193035316" lon="31.4376627468"><ele>94.35</ele><time>2026-09-03T12:33:01Z</time></trkpt><trkpt lat="59.2193018552" lon="31.4377954323"><ele>96.27</ele><time>2026-09-03T12:33:18Z</time></trkpt><trkpt lat="59.2192477919" lon="31.4379059058"><ele>97.71</ele><time>2026-09-03T12:33:25Z</time></trkpt><trkpt lat="59.2192387395" lon="31.4381115977"><ele>96.75</ele><time>2026-09-03T12:33:42Z</time></trkpt><trkpt lat="59.2191364802" lon="31.4382998552"><ele>99.15</ele><time>2026-09-03T12:34:00Z</time></trkpt><trkpt lat="59.2190918885" lon="31.4384017792"><ele>97.71</ele><time>2026-09-03T12:34:09Z</time></trkpt><trkpt lat="59.2190137692" lon="31.4385885280"><ele>99.63</ele><time>2026-09-03T12:34:30Z</time></trkpt><trkpt lat="59.2189789843" lon="31.4387386478"><ele>98.67</ele><time>2026-09-03T12:34:46Z</time></trkpt><trkpt lat="59.2189489771" lon="31.4388045296"><ele>95.79</ele><time>2026-09-03T12:34:54Z</time></trkpt><trkpt lat="59.2189607956" lon="31.4388093073"><ele>98.67</ele><time>2026-09-03T12:34:59Z</time></trkpt><trkpt lat="59.2189276870" lon="31.4388672262"><ele>99.63</ele><time>2026-09-03T12:35:15Z</time></trkpt><trkpt lat="59.2189259268" lon="31.4389103092"><ele>95.79</ele><time>2026-09-03T12:35:25Z</time></trkpt><trkpt lat="59.2189287767" lon="31.4389161766"><ele>95.79</ele><time>2026-09-03T12:35:26Z</time></trkpt><trkpt lat="59.2189249210" lon="31.4389244746"><ele>99.63</ele><time>2026-09-03T12:35:29Z</time></trkpt><trkpt lat="59.2189180478" lon="31.4389332756"><ele>99.63</ele><time>2026-09-03T12:35:30Z</time></trkpt><trkpt lat="59.2188808322" lon="31.4388942998"><ele>98.19</ele><time>2026-09-03T12:35:55Z</time></trkpt><trkpt lat="59.2188571952" lon="31.4389323536"><ele>96.27</ele><time>2026-09-03T12:36:21Z</time></trkpt><trkpt lat="59.2188716959" lon="31.4389357064"><ele>94.83</ele><time>2026-09-03T12:36:29Z</time></trkpt><trkpt lat="59.2189056426" lon="31.4389193617"><ele>93.87</ele><time>2026-09-03T12:36:48Z</time></trkpt><trkpt lat="59.2189186346" lon="31.4388949703"><ele>91.94</ele><time>2026-09-03T12:37:10Z</time></trkpt><trkpt lat="59.2190023698" lon="31.4389746822"><ele>90.50</ele><time>2026-09-03T12:37:23Z</time></trkpt><trkpt lat="59.2189213168" lon="31.4390867483"><ele>89.54</ele><time>2026-09-03T12:37:36Z</time></trkpt><trkpt lat="59.2188576143" lon="31.4392061904"><ele>88.58</ele><time>2026-09-03T12:37:49Z</time></trkpt><trkpt lat="59.2188127711" lon="31.4393745828"><ele>87.62</ele><time>2026-09-03T12:38:05Z</time></trkpt><trkpt lat="59.2187517509" lon="31.4394893311"><ele>87.14</ele><time>2026-09-03T12:38:19Z</time></trkpt><trkpt lat="59.2186943348" lon="31.4396532811"><ele>87.62</ele><time>2026-09-03T12:38:35Z</time></trkpt><trkpt lat="59.2187159602" lon="31.4396316558"><ele>87.62</ele><time>2026-09-03T12:39:04Z</time></trkpt><trkpt lat="59.2186982743" lon="31.4396930113"><ele>84.25</ele><time>2026-09-03T12:39:29Z</time></trkpt><trkpt lat="59.2186937481" lon="31.4397227671"><ele>88.10</ele><time>2026-09-03T12:39:34Z</time></trkpt><trkpt lat="59.2186920717" lon="31.4397231024"><ele>88.10</ele><time>2026-09-03T12:39:35Z</time></trkpt><trkpt lat="59.2186471447" lon="31.4398717135"><ele>87.62</ele><time>2026-09-03T12:39:53Z</time></trkpt><trkpt lat="59.2185393535" lon="31.4399950951"><ele>88.58</ele><time>2026-09-03T12:40:03Z</time></trkpt><trkpt lat="59.2185253557" lon="31.4400998689"><ele>89.06</ele><time>2026-09-03T12:40:12Z</time></trkpt><trkpt lat="59.2185291275" lon="31.4401349053"><ele>89.06</ele><time>2026-09-03T12:40:19Z</time></trkpt><trkpt lat="59.2185271997" lon="31.4401172195"><ele>88.10</ele><time>2026-09-03T12:40:53Z</time></trkpt><trkpt lat="59.2184740584" lon="31.4401224162"><ele>84.25</ele><time>2026-09-03T12:41:06Z</time></trkpt><trkpt lat="59.2184681073" lon="31.4401184767"><ele>84.25</ele><time>2026-09-03T12:41:07Z</time></trkpt><trkpt lat="59.2184947617" lon="31.4401755575"><ele>83.77</ele><time>2026-09-03T12:41:14Z</time></trkpt><trkpt lat="59.2186023016" lon="31.4402834326"><ele>82.33</ele><time>2026-09-03T12:41:28Z</time></trkpt><trkpt lat="59.2186680995" lon="31.4403695986"><ele>81.37</ele><time>2026-09-03T12:41:40Z</time></trkpt><trkpt lat="59.2186946701" lon="31.4404760487"><ele>83.77</ele><time>2026-09-03T12:41:50Z</time></trkpt><trkpt lat="59.2186602205" lon="31.4406531584"><ele>85.21</ele><time>2026-09-03T12:42:05Z</time></trkpt><trkpt lat="59.2186643276" lon="31.4406814892"><ele>86.66</ele><time>2026-09-03T12:42:25Z</time></trkpt><trkpt lat="59.2186547723" lon="31.4406722691"><ele>82.81</ele><time>2026-09-03T12:42:27Z</time></trkpt><trkpt lat="59.2186173052" lon="31.4406679105"><ele>86.18</ele><time>2026-09-03T12:42:31Z</time></trkpt><trkpt lat="59.2186264414" lon="31.4408389851"><ele>86.66</ele><time>2026-09-03T12:42:47Z</time></trkpt><trkpt lat="59.2186425347" lon="31.4410069585"><ele>86.18</ele><time>2026-09-03T12:43:01Z</time></trkpt><trkpt lat="59.2186607234" lon="31.4412367065"><ele>87.14</ele><time>2026-09-03T12:43:16Z</time></trkpt><trkpt lat="59.2187072430" lon="31.4414298255"><ele>88.58</ele><time>2026-09-03T12:43:34Z</time></trkpt><trkpt lat="59.2187276948" lon="31.4414683823"><ele>87.62</ele><time>2026-09-03T12:44:01Z</time></trkpt><trkpt lat="59.2188099213" lon="31.4416044205"><ele>87.14</ele><time>2026-09-03T12:44:13Z</time></trkpt><trkpt lat="59.2189098336" lon="31.4417298976"><ele>87.62</ele><time>2026-09-03T12:44:27Z</time></trkpt><trkpt lat="59.2189872824" lon="31.4418401197"><ele>88.10</ele><time>2026-09-03T12:44:40Z</time></trkpt><trkpt lat="59.2190064769" lon="31.4418935962"><ele>88.10</ele><time>2026-09-03T12:44:44Z</time></trkpt><trkpt lat="59.2190249171" lon="31.4421158005"><ele>88.58</ele><time>2026-09-03T12:44:58Z</time></trkpt><trkpt lat="59.2190405075" lon="31.4423667546"><ele>89.54</ele><time>2026-09-03T12:45:13Z</time></trkpt><trkpt lat="59.2190146912" lon="31.4425520785"><ele>90.02</ele><time>2026-09-03T12:45:27Z</time></trkpt><trkpt lat="59.2190615460" lon="31.4426491410"><ele>90.98</ele><time>2026-09-03T12:45:44Z</time></trkpt><trkpt lat="59.2191245779" lon="31.4427898731"><ele>90.98</ele><time>2026-09-03T12:45:57Z</time></trkpt><trkpt lat="59.2191442754" lon="31.4428051282"><ele>89.54</ele><time>2026-09-03T12:45:59Z</time></trkpt><trkpt lat="59.2191540822" lon="31.4427995123"><ele>85.69</ele><time>2026-09-03T12:46:04Z</time></trkpt><trkpt lat="59.2191564292" lon="31.4428073075"><ele>86.66</ele><time>2026-09-03T12:46:05Z</time></trkpt><trkpt lat="59.2191610392" lon="31.4428188745"><ele>89.06</ele><time>2026-09-03T12:46:08Z</time></trkpt><trkpt lat="59.2191541661" lon="31.4428108279"><ele>92.42</ele><time>2026-09-03T12:46:12Z</time></trkpt><trkpt lat="59.2191493884" lon="31.4428116661"><ele>91.94</ele><time>2026-09-03T12:46:13Z</time></trkpt><trkpt lat="59.2191448621" lon="31.4428745303"><ele>89.54</ele><time>2026-09-03T12:46:34Z</time></trkpt><trkpt lat="59.2191575188" lon="31.4428819064"><ele>90.02</ele><time>2026-09-03T12:46:56Z</time></trkpt><trkpt lat="59.2191929743" lon="31.4429399930"><ele>87.62</ele><time>2026-09-03T12:47:13Z</time></trkpt><trkpt lat="59.2192240711" lon="31.4431539830"><ele>88.10</ele><time>2026-09-03T12:47:27Z</time></trkpt><trkpt lat="59.2192211375" lon="31.4432789572"><ele>85.69</ele><time>2026-09-03T12:47:34Z</time></trkpt><trkpt lat="59.2191819102" lon="31.4434290770"><ele>85.69</ele><time>2026-09-03T12:47:45Z</time></trkpt><trkpt lat="59.2191619612" lon="31.4435652830"><ele>87.14</ele><time>2026-09-03T12:47:53Z</time></trkpt><trkpt lat="59.2190967500" lon="31.4436624292"><ele>87.14</ele><time>2026-09-03T12:48:04Z</time></trkpt><trkpt lat="59.2191506457" lon="31.4438436460"><ele>86.18</ele><time>2026-09-03T12:48:16Z</time></trkpt><trkpt lat="59.2192395777" lon="31.4438656066"><ele>85.69</ele><time>2026-09-03T12:48:28Z</time></trkpt><trkpt lat="59.2193088122" lon="31.4439420495"><ele>85.21</ele><time>2026-09-03T12:48:41Z</time></trkpt><trkpt lat="59.2194015160" lon="31.4439842105"><ele>82.81</ele><time>2026-09-03T12:48:56Z</time></trkpt><trkpt lat="59.2194772046" lon="31.4439227711"><ele>83.29</ele><time>2026-09-03T12:49:09Z</time></trkpt><trkpt lat="59.2194755282" lon="31.4438585658"><ele>82.81</ele><time>2026-09-03T12:49:20Z</time></trkpt><trkpt lat="59.2195135821" lon="31.4438501000"><ele>79.93</ele><time>2026-09-03T12:49:33Z</time></trkpt><trkpt lat="59.2195258196" lon="31.4438464958"><ele>82.33</ele><time>2026-09-03T12:49:43Z</time></trkpt><trkpt lat="59.2195554916" lon="31.4438624214"><ele>81.37</ele><time>2026-09-03T12:50:03Z</time></trkpt><trkpt lat="59.2195087206" lon="31.4438231941"><ele>81.85</ele><time>2026-09-03T12:50:38Z</time></trkpt><trkpt lat="59.2195169348" lon="31.4439754933"><ele>83.29</ele><time>2026-09-03T12:51:14Z</time></trkpt><trkpt lat="59.2194979079" lon="31.4438604936"><ele>84.25</ele><time>2026-09-03T12:51:43Z</time></trkpt><trkpt lat="59.2195137497" lon="31.4439159818"><ele>85.69</ele><time>2026-09-03T12:52:22Z</time></trkpt><trkpt lat="59.2194858380" lon="31.4437187556"><ele>86.66</ele><time>2026-09-03T12:52:59Z</time></trkpt><trkpt lat="59.2194920406" lon="31.4438225236"><ele>86.66</ele><time>2026-09-03T12:53:31Z</time></trkpt><trkpt lat="59.2194528133" lon="31.4437402133"><ele>86.66</ele><time>2026-09-03T12:53:58Z</time></trkpt><trkpt lat="59.2194586806" lon="31.4437235333"><ele>82.81</ele><time>2026-09-03T12:54:10Z</time></trkpt><trkpt lat="59.2194602732" lon="31.4437221084"><ele>85.69</ele><time>2026-09-03T12:54:12Z</time></trkpt><trkpt lat="59.2194653023" lon="31.4437302388"><ele>86.18</ele><time>2026-09-03T12:54:13Z</time></trkpt><trkpt lat="59.2194906157" lon="31.4438037481"><ele>83.29</ele><time>2026-09-03T12:54:20Z</time></trkpt><trkpt lat="59.2194922920" lon="31.4438071009"><ele>83.29</ele><time>2026-09-03T12:54:21Z</time></trkpt><trkpt lat="59.2195324413" lon="31.4438359346"><ele>84.25</ele><time>2026-09-03T12:54:36Z</time></trkpt><trkpt lat="59.2195647955" lon="31.4437391236"><ele>81.85</ele><time>2026-09-03T12:54:53Z</time></trkpt><trkpt lat="59.2195630353" lon="31.4437248744"><ele>82.81</ele><time>2026-09-03T12:54:55Z</time></trkpt><trkpt lat="59.2195996642" lon="31.4435824659"><ele>80.89</ele><time>2026-09-03T12:55:08Z</time></trkpt><trkpt lat="59.2196191102" lon="31.4434683882"><ele>80.89</ele><time>2026-09-03T12:55:20Z</time></trkpt><trkpt lat="59.2196896859" lon="31.4433963876"><ele>82.81</ele><time>2026-09-03T12:55:33Z</time></trkpt><trkpt lat="59.2196921166" lon="31.4432934579"><ele>81.37</ele><time>2026-09-03T12:55:41Z</time></trkpt><trkpt lat="59.2197080422" lon="31.4432279952"><ele>82.33</ele><time>2026-09-03T12:55:47Z</time></trkpt><trkpt lat="59.2197785340" lon="31.4431414939"><ele>80.89</ele><time>2026-09-03T12:56:00Z</time></trkpt><trkpt lat="59.2198647000" lon="31.4430367202"><ele>80.41</ele><time>2026-09-03T12:56:14Z</time></trkpt><trkpt lat="59.2198304180" lon="31.4429138415"><ele>80.41</ele><time>2026-09-03T12:56:29Z</time></trkpt><trkpt lat="59.2198243830" lon="31.4428945631"><ele>82.81</ele><time>2026-09-03T12:56:31Z</time></trkpt><trkpt lat="59.2198141571" lon="31.4428816549"><ele>81.37</ele><time>2026-09-03T12:56:47Z</time></trkpt><trkpt lat="59.2198698968" lon="31.4426953252"><ele>82.33</ele><time>2026-09-03T12:57:03Z</time></trkpt><trkpt lat="59.2199396342" lon="31.4426256716"><ele>82.81</ele><time>2026-09-03T12:57:19Z</time></trkpt><trkpt lat="59.2199849803" lon="31.4425943233"><ele>83.29</ele><time>2026-09-03T12:57:27Z</time></trkpt><trkpt lat="59.2200213578" lon="31.4425222389"><ele>82.33</ele><time>2026-09-03T12:57:42Z</time></trkpt><trkpt lat="59.2200344335" lon="31.4424701873"><ele>84.25</ele><time>2026-09-03T12:57:45Z</time></trkpt><trkpt lat="59.2200263031" lon="31.4424369112"><ele>83.29</ele><time>2026-09-03T12:57:47Z</time></trkpt><trkpt lat="59.2200037558" lon="31.4423060697"><ele>83.29</ele><time>2026-09-03T12:57:59Z</time></trkpt><trkpt lat="59.2201241199" lon="31.4421336539"><ele>83.29</ele><time>2026-09-03T12:58:14Z</time></trkpt><trkpt lat="59.2202092800" lon="31.4419944305"><ele>83.29</ele><time>2026-09-03T12:58:27Z</time></trkpt><trkpt lat="59.2202074360" lon="31.4419907425"><ele>83.29</ele><time>2026-09-03T12:58:28Z</time></trkpt><trkpt lat="59.2202582303" lon="31.4419029001"><ele>82.33</ele><time>2026-09-03T12:58:43Z</time></trkpt><trkpt lat="59.2203448154" lon="31.4417681191"><ele>78.97</ele><time>2026-09-03T12:58:55Z</time></trkpt><trkpt lat="59.2203428037" lon="31.4417690411"><ele>82.81</ele><time>2026-09-03T12:58:56Z</time></trkpt><trkpt lat="59.2203818634" lon="31.4417061768"><ele>81.37</ele><time>2026-09-03T12:59:12Z</time></trkpt><trkpt lat="59.2204036564" lon="31.4415678754"><ele>81.37</ele><time>2026-09-03T12:59:19Z</time></trkpt><trkpt lat="59.2204365134" lon="31.4414211921"><ele>81.37</ele><time>2026-09-03T12:59:34Z</time></trkpt><trkpt lat="59.2204781715" lon="31.4414226171"><ele>83.29</ele><time>2026-09-03T12:59:46Z</time></trkpt><trkpt lat="59.2205578834" lon="31.4413165022"><ele>82.81</ele><time>2026-09-03T13:00:06Z</time></trkpt><trkpt lat="59.2206147965" lon="31.4411604311"><ele>80.89</ele><time>2026-09-03T13:00:20Z</time></trkpt><trkpt lat="59.2206816003" lon="31.4409601036"><ele>83.29</ele><time>2026-09-03T13:00:34Z</time></trkpt><trkpt lat="59.2207352445" lon="31.4408427570"><ele>82.33</ele><time>2026-09-03T13:00:49Z</time></trkpt><trkpt lat="59.2207774054" lon="31.4408262447"><ele>83.29</ele><time>2026-09-03T13:01:15Z</time></trkpt><trkpt lat="59.2207234260" lon="31.4406889491"><ele>84.25</ele><time>2026-09-03T13:01:50Z</time></trkpt><trkpt lat="59.2206759844" lon="31.4407096524"><ele>86.18</ele><time>2026-09-03T13:02:20Z</time></trkpt><trkpt lat="59.2208305467" lon="31.4408525638"><ele>86.66</ele><time>2026-09-03T13:02:43Z</time></trkpt><trkpt lat="59.2207532655" lon="31.4407455269"><ele>85.69</ele><time>2026-09-03T13:03:00Z</time></trkpt><trkpt lat="59.2207972705" lon="31.4404941536"><ele>86.66</ele><time>2026-09-03T13:03:14Z</time></trkpt><trkpt lat="59.2208113521" lon="31.4404103346"><ele>86.66</ele><time>2026-09-03T13:03:28Z</time></trkpt><trkpt lat="59.2208087537" lon="31.4403667487"><ele>83.29</ele><time>2026-09-03T13:03:32Z</time></trkpt><trkpt lat="59.2208117712" lon="31.4403661620"><ele>86.18</ele><time>2026-09-03T13:03:33Z</time></trkpt><trkpt lat="59.2208146211" lon="31.4403597917"><ele>88.10</ele><time>2026-09-03T13:03:36Z</time></trkpt><trkpt lat="59.2208375875" lon="31.4403085783"><ele>83.29</ele><time>2026-09-03T13:03:47Z</time></trkpt><trkpt lat="59.2208396830" lon="31.4402892999"><ele>77.52</ele><time>2026-09-03T13:03:49Z</time></trkpt><trkpt lat="59.2208391801" lon="31.4402824268"><ele>83.29</ele><time>2026-09-03T13:03:50Z</time></trkpt><trkpt lat="59.2208413593" lon="31.4402690157"><ele>82.81</ele><time>2026-09-03T13:03:51Z</time></trkpt><trkpt lat="59.2208427843" lon="31.4402521681"><ele>86.66</ele><time>2026-09-03T13:03:53Z</time></trkpt><trkpt lat="59.2208405212" lon="31.4402437024"><ele>86.66</ele><time>2026-09-03T13:03:54Z</time></trkpt><trkpt lat="59.2208327260" lon="31.4402359072"><ele>88.10</ele><time>2026-09-03T13:03:56Z</time></trkpt><trkpt lat="59.2208842747" lon="31.4401178062"><ele>84.25</ele><time>2026-09-03T13:04:12Z</time></trkpt><trkpt lat="59.2208911479" lon="31.4401178062"><ele>84.25</ele><time>2026-09-03T13:04:13Z</time></trkpt><trkpt lat="59.2209002003" lon="31.4400870446"><ele>85.21</ele><time>2026-09-03T13:04:24Z</time></trkpt><trkpt lat="59.2209181376" lon="31.4400805067"><ele>81.85</ele><time>2026-09-03T13:04:29Z</time></trkpt><trkpt lat="59.2209219933" lon="31.4401124418"><ele>84.25</ele><time>2026-09-03T13:04:34Z</time></trkpt><trkpt lat="59.2209800798" lon="31.4400928281"><ele>84.25</ele><time>2026-09-03T13:04:48Z</time></trkpt><trkpt lat="59.2210295331" lon="31.4400017168"><ele>78.00</ele><time>2026-09-03T13:05:00Z</time></trkpt><trkpt lat="59.2210285272" lon="31.4399873000"><ele>81.37</ele><time>2026-09-03T13:05:01Z</time></trkpt><trkpt lat="59.2210222408" lon="31.4399548620"><ele>84.73</ele><time>2026-09-03T13:05:06Z</time></trkpt><trkpt lat="59.2210248392" lon="31.4399422891"><ele>84.25</ele><time>2026-09-03T13:05:07Z</time></trkpt><trkpt lat="59.2210763879" lon="31.4398464840"><ele>85.21</ele><time>2026-09-03T13:05:27Z</time></trkpt><trkpt lat="59.2211166210" lon="31.4397604018"><ele>82.81</ele><time>2026-09-03T13:05:37Z</time></trkpt><trkpt lat="59.2210996058" lon="31.4395888243"><ele>81.85</ele><time>2026-09-03T13:05:48Z</time></trkpt><trkpt lat="59.2211574409" lon="31.4395762514"><ele>84.73</ele><time>2026-09-03T13:05:58Z</time></trkpt><trkpt lat="59.2211612966" lon="31.4393779356"><ele>82.81</ele><time>2026-09-03T13:06:15Z</time></trkpt><trkpt lat="59.2211985961" lon="31.4393580705"><ele>84.25</ele><time>2026-09-03T13:06:25Z</time></trkpt><trkpt lat="59.2212168686" lon="31.4393363614"><ele>82.81</ele><time>2026-09-03T13:06:28Z</time></trkpt><trkpt lat="59.2212388292" lon="31.4393204357"><ele>84.25</ele><time>2026-09-03T13:06:30Z</time></trkpt><trkpt lat="59.2213041242" lon="31.4392853156"><ele>83.77</ele><time>2026-09-03T13:06:44Z</time></trkpt><trkpt lat="59.2213791423" lon="31.4391212817"><ele>79.93</ele><time>2026-09-03T13:06:54Z</time></trkpt><trkpt lat="59.2213838361" lon="31.4391295798"><ele>80.41</ele><time>2026-09-03T13:06:55Z</time></trkpt><trkpt lat="59.2214021925" lon="31.4391139057"><ele>82.33</ele><time>2026-09-03T13:07:00Z</time></trkpt><trkpt lat="59.2214067187" lon="31.4390223753"><ele>82.81</ele><time>2026-09-03T13:07:13Z</time></trkpt><trkpt lat="59.2214199621" lon="31.4389580861"><ele>83.29</ele><time>2026-09-03T13:07:31Z</time></trkpt><trkpt lat="59.2214293499" lon="31.4387673978"><ele>83.29</ele><time>2026-09-03T13:07:48Z</time></trkpt><trkpt lat="59.2214166932" lon="31.4386959001"><ele>80.41</ele><time>2026-09-03T13:08:06Z</time></trkpt><trkpt lat="59.2215460259" lon="31.4387047850"><ele>78.48</ele><time>2026-09-03T13:08:23Z</time></trkpt><trkpt lat="59.2215776257" lon="31.4385725185"><ele>80.41</ele><time>2026-09-03T13:08:38Z</time></trkpt><trkpt lat="59.2215866782" lon="31.4385579340"><ele>79.93</ele><time>2026-09-03T13:08:39Z</time></trkpt><trkpt lat="59.2215955630" lon="31.4385035355"><ele>78.00</ele><time>2026-09-03T13:08:44Z</time></trkpt><trkpt lat="59.2215995025" lon="31.4384534955"><ele>78.48</ele><time>2026-09-03T13:08:58Z</time></trkpt><trkpt lat="59.2216441780" lon="31.4384414256"><ele>77.04</ele><time>2026-09-03T13:09:02Z</time></trkpt><trkpt lat="59.2216659710" lon="31.4384143520"><ele>78.97</ele><time>2026-09-03T13:09:06Z</time></trkpt><trkpt lat="59.2216822319" lon="31.4381778985"><ele>76.08</ele><time>2026-09-03T13:09:21Z</time></trkpt><trkpt lat="59.2217321880" lon="31.4381469693"><ele>75.60</ele><time>2026-09-03T13:09:28Z</time></trkpt><trkpt lat="59.2217818089" lon="31.4380784053"><ele>75.12</ele><time>2026-09-03T13:09:50Z</time></trkpt><trkpt lat="59.2217938788" lon="31.4380660001"><ele>75.60</ele><time>2026-09-03T13:10:10Z</time></trkpt><trkpt lat="59.2217589263" lon="31.4379739668"><ele>75.60</ele><time>2026-09-03T13:10:34Z</time></trkpt><trkpt lat="59.2218274064" lon="31.4380809199"><ele>74.64</ele><time>2026-09-03T13:10:54Z</time></trkpt><trkpt lat="59.2217956390" lon="31.4378957637"><ele>75.60</ele><time>2026-09-03T13:11:06Z</time></trkpt><trkpt lat="59.2218408175" lon="31.4378245175"><ele>76.56</ele><time>2026-09-03T13:11:18Z</time></trkpt><trkpt lat="59.2218501214" lon="31.4377605636"><ele>73.68</ele><time>2026-09-03T13:11:25Z</time></trkpt><trkpt lat="59.2218525521" lon="31.4377603959"><ele>73.68</ele><time>2026-09-03T13:11:26Z</time></trkpt><trkpt lat="59.2218511272" lon="31.4377504215"><ele>75.12</ele><time>2026-09-03T13:11:31Z</time></trkpt><trkpt lat="59.2218491994" lon="31.4377059136"><ele>78.00</ele><time>2026-09-03T13:11:38Z</time></trkpt><trkpt lat="59.2218681425" lon="31.4377002139"><ele>75.12</ele><time>2026-09-03T13:11:43Z</time></trkpt><trkpt lat="59.2218756024" lon="31.4376922511"><ele>75.60</ele><time>2026-09-03T13:11:44Z</time></trkpt><trkpt lat="59.2218825594" lon="31.4375978708"><ele>76.56</ele><time>2026-09-03T13:11:56Z</time></trkpt><trkpt lat="59.2219617683" lon="31.4375324920"><ele>74.64</ele><time>2026-09-03T13:12:11Z</time></trkpt><trkpt lat="59.2219212838" lon="31.4374776743"><ele>74.64</ele><time>2026-09-03T13:12:35Z</time></trkpt><trkpt lat="59.2219638638" lon="31.4373019058"><ele>72.24</ele><time>2026-09-03T13:12:45Z</time></trkpt><trkpt lat="59.2219941225" lon="31.4371266402"><ele>70.79</ele><time>2026-09-03T13:13:00Z</time></trkpt><trkpt lat="59.2219829746" lon="31.4371666219"><ele>70.79</ele><time>2026-09-03T13:13:13Z</time></trkpt><trkpt lat="59.2220905144" lon="31.4371679630"><ele>70.31</ele><time>2026-09-03T13:13:27Z</time></trkpt><trkpt lat="59.2221260536" lon="31.4371382911"><ele>66.95</ele><time>2026-09-03T13:13:31Z</time></trkpt><trkpt lat="59.2221292388" lon="31.4371351060"><ele>66.95</ele><time>2026-09-03T13:13:32Z</time></trkpt><trkpt lat="59.2221454997" lon="31.4371247962"><ele>69.35</ele><time>2026-09-03T13:13:40Z</time></trkpt><trkpt lat="59.2221781891" lon="31.4370727446"><ele>70.79</ele><time>2026-09-03T13:13:47Z</time></trkpt><trkpt lat="59.2221840564" lon="31.4368350338"><ele>70.31</ele><time>2026-09-03T13:14:02Z</time></trkpt><trkpt lat="59.2221745849" lon="31.4366994984"><ele>69.83</ele><time>2026-09-03T13:14:21Z</time></trkpt><trkpt lat="59.2221663706" lon="31.4366502967"><ele>70.79</ele><time>2026-09-03T13:14:37Z</time></trkpt><trkpt lat="59.2221710645" lon="31.4366715029"><ele>72.24</ele><time>2026-09-03T13:15:05Z</time></trkpt><trkpt lat="59.2221529596" lon="31.4367053658"><ele>74.16</ele><time>2026-09-03T13:15:33Z</time></trkpt><trkpt lat="59.2221811228" lon="31.4367228840"><ele>74.64</ele><time>2026-09-03T13:15:54Z</time></trkpt><trkpt lat="59.2222018261" lon="31.4367016777"><ele>75.60</ele><time>2026-09-03T13:16:12Z</time></trkpt><trkpt lat="59.2221589945" lon="31.4367775340"><ele>77.04</ele><time>2026-09-03T13:16:43Z</time></trkpt><trkpt lat="59.2221836373" lon="31.4367576689"><ele>75.12</ele><time>2026-09-03T13:16:57Z</time></trkpt><trkpt lat="59.2221705616" lon="31.4367477782"><ele>76.56</ele><time>2026-09-03T13:16:59Z</time></trkpt><trkpt lat="59.2221699748" lon="31.4366621990"><ele>77.52</ele><time>2026-09-03T13:17:08Z</time></trkpt><trkpt lat="59.2222376168" lon="31.4365915395"><ele>77.52</ele><time>2026-09-03T13:17:20Z</time></trkpt><trkpt lat="59.2222984694" lon="31.4365485404"><ele>76.56</ele><time>2026-09-03T13:17:34Z</time></trkpt><trkpt lat="59.2223323323" lon="31.4363508951"><ele>76.08</ele><time>2026-09-03T13:17:51Z</time></trkpt><trkpt lat="59.2224076018" lon="31.4362767152"><ele>75.12</ele><time>2026-09-03T13:18:04Z</time></trkpt><trkpt lat="59.2224554624" lon="31.4362092409"><ele>74.16</ele><time>2026-09-03T13:18:20Z</time></trkpt><trkpt lat="59.2225624993" lon="31.4360449556"><ele>69.35</ele><time>2026-09-03T13:18:33Z</time></trkpt><trkpt lat="59.2225599848" lon="31.4360500686"><ele>68.87</ele><time>2026-09-03T13:18:35Z</time></trkpt><trkpt lat="59.2225796822" lon="31.4360571094"><ele>71.76</ele><time>2026-09-03T13:18:38Z</time></trkpt><trkpt lat="59.2225814424" lon="31.4360548463"><ele>71.27</ele><time>2026-09-03T13:18:39Z</time></trkpt><trkpt lat="59.2226429656" lon="31.4359052293"><ele>71.76</ele><time>2026-09-03T13:18:52Z</time></trkpt><trkpt lat="59.2226784211" lon="31.4358326420"><ele>70.31</ele><time>2026-09-03T13:19:05Z</time></trkpt><trkpt lat="59.2227104399" lon="31.4356248546"><ele>68.39</ele><time>2026-09-03T13:19:19Z</time></trkpt><trkpt lat="59.2227122840" lon="31.4356177300"><ele>68.39</ele><time>2026-09-03T13:19:20Z</time></trkpt><trkpt lat="59.2227155529" lon="31.4355831966"><ele>70.79</ele><time>2026-09-03T13:19:25Z</time></trkpt><trkpt lat="59.2227809317" lon="31.4354751538"><ele>71.27</ele><time>2026-09-03T13:19:39Z</time></trkpt><trkpt lat="59.2228158005" lon="31.4354128763"><ele>70.79</ele><time>2026-09-03T13:19:57Z</time></trkpt><trkpt lat="59.2228171416" lon="31.4354038239"><ele>70.31</ele><time>2026-09-03T13:20:09Z</time></trkpt><trkpt lat="59.2228973564" lon="31.4354137145"><ele>69.35</ele><time>2026-09-03T13:20:22Z</time></trkpt><trkpt lat="59.2229286209" lon="31.4353681169"><ele>70.31</ele><time>2026-09-03T13:20:34Z</time></trkpt><trkpt lat="59.2228819337" lon="31.4351647720"><ele>70.79</ele><time>2026-09-03T13:20:52Z</time></trkpt><trkpt lat="59.2229078338" lon="31.4351054281"><ele>70.79</ele><time>2026-09-03T13:21:02Z</time></trkpt><trkpt lat="59.2229085043" lon="31.4350686315"><ele>70.79</ele><time>2026-09-03T13:21:22Z</time></trkpt><trkpt lat="59.2229639925" lon="31.4349081181"><ele>69.35</ele><time>2026-09-03T13:21:38Z</time></trkpt><trkpt lat="59.2229937483" lon="31.4347645361"><ele>69.83</ele><time>2026-09-03T13:21:52Z</time></trkpt><trkpt lat="59.2229830194" lon="31.4345984906"><ele>69.83</ele><time>2026-09-03T13:22:04Z</time></trkpt><trkpt lat="59.2230392620" lon="31.4345150907"><ele>68.87</ele><time>2026-09-03T13:22:18Z</time></trkpt><trkpt lat="59.2230732925" lon="31.4344917051"><ele>68.39</ele><time>2026-09-03T13:22:28Z</time></trkpt><trkpt lat="59.2231260985" lon="31.4344173577"><ele>68.39</ele><time>2026-09-03T13:22:41Z</time></trkpt><trkpt lat="59.2231711093" lon="31.4344274998"><ele>67.91</ele><time>2026-09-03T13:22:55Z</time></trkpt><trkpt lat="59.2232422717" lon="31.4342999272"><ele>67.43</ele><time>2026-09-03T13:23:08Z</time></trkpt><trkpt lat="59.2232821696" lon="31.4343558345"><ele>66.95</ele><time>2026-09-03T13:23:21Z</time></trkpt><trkpt lat="59.2233785614" lon="31.4343372267"><ele>65.51</ele><time>2026-09-03T13:23:32Z</time></trkpt><trkpt lat="59.2234182078" lon="31.4343608636"><ele>65.51</ele><time>2026-09-03T13:23:44Z</time></trkpt><trkpt lat="59.2234301101" lon="31.4343120810"><ele>59.26</ele><time>2026-09-03T13:23:50Z</time></trkpt><trkpt lat="59.2234305292" lon="31.4342949819"><ele>59.26</ele><time>2026-09-03T13:23:51Z</time></trkpt><trkpt lat="59.2234159447" lon="31.4342264179"><ele>66.47</ele><time>2026-09-03T13:23:59Z</time></trkpt><trkpt lat="59.2234157771" lon="31.4342268370"><ele>66.47</ele><time>2026-09-03T13:24:00Z</time></trkpt><trkpt lat="59.2234187108" lon="31.4341824967"><ele>65.99</ele><time>2026-09-03T13:24:13Z</time></trkpt><trkpt lat="59.2234078143" lon="31.4340954926"><ele>65.51</ele><time>2026-09-03T13:24:23Z</time></trkpt><trkpt lat="59.2234175373" lon="31.4340716880"><ele>63.58</ele><time>2026-09-03T13:24:38Z</time></trkpt><trkpt lat="59.2234394141" lon="31.4339821693"><ele>65.03</ele><time>2026-09-03T13:24:45Z</time></trkpt><trkpt lat="59.2234893702" lon="31.4338991046"><ele>62.62</ele><time>2026-09-03T13:24:52Z</time></trkpt><trkpt lat="59.2235269211" lon="31.4337238390"><ele>62.14</ele><time>2026-09-03T13:25:06Z</time></trkpt><trkpt lat="59.2235282622" lon="31.4336699434"><ele>60.70</ele><time>2026-09-03T13:25:18Z</time></trkpt><trkpt lat="59.2235280108" lon="31.4336307161"><ele>60.22</ele><time>2026-09-03T13:25:24Z</time></trkpt><trkpt lat="59.2235479597" lon="31.4335474838"><ele>60.22</ele><time>2026-09-03T13:25:36Z</time></trkpt><trkpt lat="59.2235509772" lon="31.4335525129"><ele>58.30</ele><time>2026-09-03T13:25:42Z</time></trkpt><trkpt lat="59.2235471215" lon="31.4335468132"><ele>57.82</ele><time>2026-09-03T13:26:01Z</time></trkpt><trkpt lat="59.2235565092" lon="31.4335826039"><ele>55.89</ele><time>2026-09-03T13:26:13Z</time></trkpt><trkpt lat="59.2235700041" lon="31.4335760660"><ele>57.34</ele><time>2026-09-03T13:26:17Z</time></trkpt><trkpt lat="59.2236652225" lon="31.4336292911"><ele>57.34</ele><time>2026-09-03T13:26:29Z</time></trkpt><trkpt lat="59.2237197887" lon="31.4336980227"><ele>57.34</ele><time>2026-09-03T13:26:37Z</time></trkpt><trkpt lat="59.2238676455" lon="31.4336725418"><ele>57.34</ele><time>2026-09-03T13:26:51Z</time></trkpt><trkpt lat="59.2238948867" lon="31.4336668421"><ele>57.82</ele><time>2026-09-03T13:26:54Z</time></trkpt><trkpt lat="59.2240544781" lon="31.4336739667"><ele>58.78</ele><time>2026-09-03T13:27:09Z</time></trkpt><trkpt lat="59.2241462599" lon="31.4336719550"><ele>58.78</ele><time>2026-09-03T13:27:22Z</time></trkpt><trkpt lat="59.2242884170" lon="31.4337680954"><ele>59.26</ele><time>2026-09-03T13:27:37Z</time></trkpt><trkpt lat="59.2244393751" lon="31.4338416047"><ele>59.74</ele><time>2026-09-03T13:27:52Z</time></trkpt><trkpt lat="59.2246442288" lon="31.4338185545"><ele>59.74</ele><time>2026-09-03T13:28:10Z</time></trkpt><trkpt lat="59.2247305624" lon="31.4338318817"><ele>59.26</ele><time>2026-09-03T13:28:18Z</time></trkpt><trkpt lat="59.2248414550" lon="31.4339167904"><ele>56.86</ele><time>2026-09-03T13:28:28Z</time></trkpt><trkpt lat="59.2248598114" lon="31.4339416008"><ele>58.78</ele><time>2026-09-03T13:28:30Z</time></trkpt><trkpt lat="59.2248925008" lon="31.4339959156"><ele>53.97</ele><time>2026-09-03T13:28:37Z</time></trkpt><trkpt lat="59.2248926684" lon="31.4339977596"><ele>46.28</ele><time>2026-09-03T13:28:38Z</time></trkpt><trkpt lat="59.2248924170" lon="31.4339970890"><ele>51.09</ele><time>2026-09-03T13:28:39Z</time></trkpt><trkpt lat="59.2248940095" lon="31.4339937363"><ele>55.41</ele><time>2026-09-03T13:28:40Z</time></trkpt><trkpt lat="59.2248968594" lon="31.4339890424"><ele>59.26</ele><time>2026-09-03T13:28:41Z</time></trkpt><trkpt lat="59.2248933390" lon="31.4339915570"><ele>59.74</ele><time>2026-09-03T13:28:42Z</time></trkpt><trkpt lat="59.2249204963" lon="31.4340029564"><ele>58.78</ele><time>2026-09-03T13:29:07Z</time></trkpt><trkpt lat="59.2249256093" lon="31.4339964185"><ele>57.82</ele><time>2026-09-03T13:29:28Z</time></trkpt><trkpt lat="59.2249501683" lon="31.4339504857"><ele>56.37</ele><time>2026-09-03T13:29:40Z</time></trkpt><trkpt lat="59.2250427883" lon="31.4340550080"><ele>57.34</ele><time>2026-09-03T13:29:52Z</time></trkpt><trkpt lat="59.2251494061" lon="31.4340714365"><ele>56.86</ele><time>2026-09-03T13:30:06Z</time></trkpt><trkpt lat="59.2251696903" lon="31.4340773877"><ele>56.86</ele><time>2026-09-03T13:30:12Z</time></trkpt><trkpt lat="59.2251986917" lon="31.4340632223"><ele>56.86</ele><time>2026-09-03T13:30:15Z</time></trkpt><trkpt lat="59.2252994422" lon="31.4340664912"><ele>56.86</ele><time>2026-09-03T13:30:26Z</time></trkpt><trkpt lat="59.2254283559" lon="31.4341412578"><ele>56.86</ele><time>2026-09-03T13:30:40Z</time></trkpt><trkpt lat="59.2255528271" lon="31.4343127515"><ele>57.34</ele><time>2026-09-03T13:30:55Z</time></trkpt><trkpt lat="59.2256718501" lon="31.4344828203"><ele>57.82</ele><time>2026-09-03T13:31:10Z</time></trkpt><trkpt lat="59.2257152684" lon="31.4345518872"><ele>54.45</ele><time>2026-09-03T13:31:15Z</time></trkpt><trkpt lat="59.2257337924" lon="31.4345780388"><ele>53.49</ele><time>2026-09-03T13:31:17Z</time></trkpt><trkpt lat="59.2258399073" lon="31.4346880093"><ele>56.37</ele><time>2026-09-03T13:31:29Z</time></trkpt><trkpt lat="59.2258484568" lon="31.4347021747"><ele>56.86</ele><time>2026-09-03T13:31:30Z</time></trkpt><trkpt lat="59.2259085551" lon="31.4347960521"><ele>56.37</ele><time>2026-09-03T13:31:46Z</time></trkpt><trkpt lat="59.2259157635" lon="31.4348149113"><ele>55.41</ele><time>2026-09-03T13:32:00Z</time></trkpt><trkpt lat="59.2258708365" lon="31.4348548092"><ele>53.01</ele><time>2026-09-03T13:32:27Z</time></trkpt><trkpt lat="59.2260071263" lon="31.4349734969"><ele>52.05</ele><time>2026-09-03T13:32:41Z</time></trkpt><trkpt lat="59.2260285001" lon="31.4349986427"><ele>53.97</ele><time>2026-09-03T13:32:44Z</time></trkpt><trkpt lat="59.2260680627" lon="31.4350446593"><ele>54.93</ele><time>2026-09-03T13:32:49Z</time></trkpt><trkpt lat="59.2261611018" lon="31.4352546260"><ele>54.93</ele><time>2026-09-03T13:33:04Z</time></trkpt><trkpt lat="59.2262115609" lon="31.4354096912"><ele>54.93</ele><time>2026-09-03T13:33:13Z</time></trkpt><trkpt lat="59.2262495309" lon="31.4356514253"><ele>55.41</ele><time>2026-09-03T13:33:27Z</time></trkpt><trkpt lat="59.2262864113" lon="31.4359196462"><ele>55.41</ele><time>2026-09-03T13:33:41Z</time></trkpt><trkpt lat="59.2263301648" lon="31.4362306148"><ele>55.89</ele><time>2026-09-03T13:33:58Z</time></trkpt><trkpt lat="59.2263330147" lon="31.4362648968"><ele>56.37</ele><time>2026-09-03T13:34:09Z</time></trkpt><trkpt lat="59.2263353616" lon="31.4362945687"><ele>56.86</ele><time>2026-09-03T13:34:32Z</time></trkpt><trkpt lat="59.2263144907" lon="31.4362364821"><ele>54.93</ele><time>2026-09-03T13:34:41Z</time></trkpt><trkpt lat="59.2263045162" lon="31.4361196384"><ele>56.86</ele><time>2026-09-03T13:34:49Z</time></trkpt><trkpt lat="59.2262818851" lon="31.4358379226"><ele>57.82</ele><time>2026-09-03T13:35:03Z</time></trkpt><trkpt lat="59.2262556497" lon="31.4358599670"><ele>59.26</ele><time>2026-09-03T13:35:29Z</time></trkpt><trkpt lat="59.2262891773" lon="31.4359093364"><ele>59.74</ele><time>2026-09-03T13:35:49Z</time></trkpt><trkpt lat="59.2262730002" lon="31.4358243439"><ele>58.30</ele><time>2026-09-03T13:35:56Z</time></trkpt><trkpt lat="59.2262384668" lon="31.4355860464"><ele>58.78</ele><time>2026-09-03T13:36:08Z</time></trkpt><trkpt lat="59.2261607666" lon="31.4353396185"><ele>59.26</ele><time>2026-09-03T13:36:24Z</time></trkpt><trkpt lat="59.2260347027" lon="31.4353834558"><ele>59.74</ele><time>2026-09-03T13:36:38Z</time></trkpt><trkpt lat="59.2259801365" lon="31.4354666043"><ele>59.26</ele><time>2026-09-03T13:36:51Z</time></trkpt><trkpt lat="59.2259403225" lon="31.4354873914"><ele>59.74</ele><time>2026-09-03T13:37:05Z</time></trkpt><trkpt lat="59.2258751113" lon="31.4354148880"><ele>57.34</ele><time>2026-09-03T13:37:15Z</time></trkpt><trkpt lat="59.2258321960" lon="31.4354110323"><ele>56.86</ele><time>2026-09-03T13:37:41Z</time></trkpt><trkpt lat="59.2257867660" lon="31.4354749862"><ele>55.89</ele><time>2026-09-03T13:37:57Z</time></trkpt><trkpt lat="59.2257322837" lon="31.4354575519"><ele>56.86</ele><time>2026-09-03T13:38:11Z</time></trkpt><trkpt lat="59.2257388216" lon="31.4354405366"><ele>56.37</ele><time>2026-09-03T13:38:37Z</time></trkpt><trkpt lat="59.2257254105" lon="31.4354792610"><ele>56.37</ele><time>2026-09-03T13:39:07Z</time></trkpt><trkpt lat="59.2257244047" lon="31.4354663529"><ele>56.86</ele><time>2026-09-03T13:39:41Z</time></trkpt><trkpt lat="59.2256872728" lon="31.4355472382"><ele>57.82</ele><time>2026-09-03T13:40:06Z</time></trkpt><trkpt lat="59.2257181183" lon="31.4356142096"><ele>57.82</ele><time>2026-09-03T13:40:26Z</time></trkpt><trkpt lat="59.2257049587" lon="31.4356014691"><ele>56.37</ele><time>2026-09-03T13:40:49Z</time></trkpt><trkpt lat="59.2256929725" lon="31.4356217533"><ele>58.78</ele><time>2026-09-03T13:40:55Z</time></trkpt><trkpt lat="59.2256549187" lon="31.4357523434"><ele>56.86</ele><time>2026-09-03T13:41:04Z</time></trkpt><trkpt lat="59.2256420106" lon="31.4358528424"><ele>57.34</ele><time>2026-09-03T13:41:19Z</time></trkpt><trkpt lat="59.2255905457" lon="31.4358844422"><ele>58.78</ele><time>2026-09-03T13:41:35Z</time></trkpt><trkpt lat="59.2256733589" lon="31.4358736295"><ele>59.74</ele><time>2026-09-03T13:42:03Z</time></trkpt><trkpt lat="59.2256222293" lon="31.4359598793"><ele>60.22</ele><time>2026-09-03T13:42:22Z</time></trkpt><trkpt lat="59.2256115004" lon="31.4359629806"><ele>57.82</ele><time>2026-09-03T13:42:25Z</time></trkpt><trkpt lat="59.2255405895" lon="31.4359223284"><ele>58.30</ele><time>2026-09-03T13:42:39Z</time></trkpt><trkpt lat="59.2254516575" lon="31.4359185565"><ele>57.34</ele><time>2026-09-03T13:42:55Z</time></trkpt><trkpt lat="59.2254089098" lon="31.4360206481"><ele>59.74</ele><time>2026-09-03T13:43:12Z</time></trkpt><trkpt lat="59.2254026234" lon="31.4360499848"><ele>56.37</ele><time>2026-09-03T13:43:31Z</time></trkpt><trkpt lat="59.2253975943" lon="31.4360457938"><ele>56.37</ele><time>2026-09-03T13:43:32Z</time></trkpt><trkpt lat="59.2253489792" lon="31.4361277688"><ele>56.86</ele><time>2026-09-03T13:43:48Z</time></trkpt><trkpt lat="59.2253233306" lon="31.4362204727"><ele>58.30</ele><time>2026-09-03T13:43:59Z</time></trkpt><trkpt lat="59.2253070697" lon="31.4363751188"><ele>56.86</ele><time>2026-09-03T13:44:11Z</time></trkpt><trkpt lat="59.2253008671" lon="31.4363940619"><ele>54.93</ele><time>2026-09-03T13:44:13Z</time></trkpt><trkpt lat="59.2252992745" lon="31.4363882784"><ele>55.89</ele><time>2026-09-03T13:44:15Z</time></trkpt><trkpt lat="59.2252999451" lon="31.4364480413"><ele>58.30</ele><time>2026-09-03T13:44:20Z</time></trkpt><trkpt lat="59.2252276931" lon="31.4365605265"><ele>58.30</ele><time>2026-09-03T13:44:33Z</time></trkpt><trkpt lat="59.2251729593" lon="31.4366245642"><ele>54.45</ele><time>2026-09-03T13:44:41Z</time></trkpt><trkpt lat="59.2251686845" lon="31.4366312698"><ele>52.53</ele><time>2026-09-03T13:44:43Z</time></trkpt><trkpt lat="59.2251597159" lon="31.4366416633"><ele>59.74</ele><time>2026-09-03T13:44:47Z</time></trkpt><trkpt lat="59.2251555249" lon="31.4366456866"><ele>59.74</ele><time>2026-09-03T13:44:48Z</time></trkpt><trkpt lat="59.2251111846" lon="31.4367804676"><ele>56.37</ele><time>2026-09-03T13:44:59Z</time></trkpt><trkpt lat="59.2250978574" lon="31.4368500374"><ele>59.26</ele><time>2026-09-03T13:45:14Z</time></trkpt><trkpt lat="59.2250958458" lon="31.4368927851"><ele>59.26</ele><time>2026-09-03T13:45:41Z</time></trkpt><trkpt lat="59.2250971030" lon="31.4369184338"><ele>55.89</ele><time>2026-09-03T13:45:55Z</time></trkpt><trkpt lat="59.2250974383" lon="31.4369131532"><ele>51.09</ele><time>2026-09-03T13:45:56Z</time></trkpt><trkpt lat="59.2250955105" lon="31.4369130693"><ele>51.09</ele><time>2026-09-03T13:45:57Z</time></trkpt><trkpt lat="59.2250884697" lon="31.4369097166"><ele>58.30</ele><time>2026-09-03T13:46:01Z</time></trkpt><trkpt lat="59.2250871286" lon="31.4369060285"><ele>57.82</ele><time>2026-09-03T13:46:02Z</time></trkpt><trkpt lat="59.2250341550" lon="31.4369440824"><ele>59.26</ele><time>2026-09-03T13:46:28Z</time></trkpt><trkpt lat="59.2250239290" lon="31.4369461779"><ele>54.93</ele><time>2026-09-03T13:46:31Z</time></trkpt><trkpt lat="59.2250198219" lon="31.4369371254"><ele>54.93</ele><time>2026-09-03T13:46:32Z</time></trkpt><trkpt lat="59.2250141222" lon="31.4369499497"><ele>60.70</ele><time>2026-09-03T13:46:36Z</time></trkpt><trkpt lat="59.2250090092" lon="31.4369592536"><ele>60.70</ele><time>2026-09-03T13:46:37Z</time></trkpt><trkpt lat="59.2249473184" lon="31.4370345231"><ele>59.74</ele><time>2026-09-03T13:46:52Z</time></trkpt><trkpt lat="59.2249385174" lon="31.4371997304"><ele>60.70</ele><time>2026-09-03T13:47:02Z</time></trkpt><trkpt lat="59.2250164691" lon="31.4373433124"><ele>61.18</ele><time>2026-09-03T13:47:16Z</time></trkpt><trkpt lat="59.2249723803" lon="31.4372454118"><ele>59.74</ele><time>2026-09-03T13:47:31Z</time></trkpt><trkpt lat="59.2249101866" lon="31.4371355250"><ele>61.18</ele><time>2026-09-03T13:47:47Z</time></trkpt><trkpt lat="59.2248703726" lon="31.4371656999"><ele>62.62</ele><time>2026-09-03T13:47:57Z</time></trkpt><trkpt lat="59.2248335760" lon="31.4371843077"><ele>57.82</ele><time>2026-09-03T13:48:08Z</time></trkpt><trkpt lat="59.2248282116" lon="31.4372028317"><ele>58.30</ele><time>2026-09-03T13:48:09Z</time></trkpt><trkpt lat="59.2247619107" lon="31.4372331742"><ele>61.66</ele><time>2026-09-03T13:48:20Z</time></trkpt><trkpt lat="59.2247459013" lon="31.4373417199"><ele>63.10</ele><time>2026-09-03T13:48:36Z</time></trkpt><trkpt lat="59.2247516848" lon="31.4374234434"><ele>61.18</ele><time>2026-09-03T13:48:44Z</time></trkpt><trkpt lat="59.2248108611" lon="31.4375866391"><ele>61.66</ele><time>2026-09-03T13:48:56Z</time></trkpt><trkpt lat="59.2248123698" lon="31.4375961944"><ele>63.58</ele><time>2026-09-03T13:49:00Z</time></trkpt><trkpt lat="59.2248204164" lon="31.4376453962"><ele>60.22</ele><time>2026-09-03T13:49:05Z</time></trkpt><trkpt lat="59.2248153035" lon="31.4376480784"><ele>62.62</ele><time>2026-09-03T13:49:08Z</time></trkpt><trkpt lat="59.2247714661" lon="31.4376199152"><ele>63.58</ele><time>2026-09-03T13:49:18Z</time></trkpt><trkpt lat="59.2247174028" lon="31.4376186579"><ele>65.03</ele><time>2026-09-03T13:49:28Z</time></trkpt><trkpt lat="59.2246889044" lon="31.4375756588"><ele>65.99</ele><time>2026-09-03T13:49:37Z</time></trkpt><trkpt lat="59.2246314045" lon="31.4375801012"><ele>64.07</ele><time>2026-09-03T13:49:50Z</time></trkpt><trkpt lat="59.2246137187" lon="31.4376731403"><ele>65.51</ele><time>2026-09-03T13:50:09Z</time></trkpt><trkpt lat="59.2245645169" lon="31.4378510043"><ele>66.95</ele><time>2026-09-03T13:50:27Z</time></trkpt><trkpt lat="59.2245306540" lon="31.4380432852"><ele>69.83</ele><time>2026-09-03T13:50:59Z</time></trkpt><trkpt lat="59.2245180812" lon="31.4380230848"><ele>68.39</ele><time>2026-09-03T13:51:21Z</time></trkpt><trkpt lat="59.2245011497" lon="31.4379852824"><ele>69.83</ele><time>2026-09-03T13:51:39Z</time></trkpt><trkpt lat="59.2244973779" lon="31.4379161317"><ele>71.27</ele><time>2026-09-03T13:51:57Z</time></trkpt><trkpt lat="59.2244961206" lon="31.4379296266"><ele>69.83</ele><time>2026-09-03T13:52:10Z</time></trkpt><trkpt lat="59.2244373634" lon="31.4380119368"><ele>72.72</ele><time>2026-09-03T13:52:16Z</time></trkpt><trkpt lat="59.2243881617" lon="31.4380726218"><ele>68.87</ele><time>2026-09-03T13:52:29Z</time></trkpt><trkpt lat="59.2243791930" lon="31.4380945824"><ele>70.79</ele><time>2026-09-03T13:52:32Z</time></trkpt><trkpt lat="59.2243049294" lon="31.4382441994"><ele>70.31</ele><time>2026-09-03T13:52:45Z</time></trkpt><trkpt lat="59.2243011575" lon="31.4382588677"><ele>70.31</ele><time>2026-09-03T13:52:46Z</time></trkpt><trkpt lat="59.2242896743" lon="31.4382676687"><ele>72.72</ele><time>2026-09-03T13:52:54Z</time></trkpt><trkpt lat="59.2242205236" lon="31.4383243304"><ele>72.72</ele><time>2026-09-03T13:53:10Z</time></trkpt><trkpt lat="59.2241801228" lon="31.4383721910"><ele>70.31</ele><time>2026-09-03T13:53:18Z</time></trkpt><trkpt lat="59.2241684720" lon="31.4383705985"><ele>71.76</ele><time>2026-09-03T13:53:20Z</time></trkpt><trkpt lat="59.2241619341" lon="31.4383930620"><ele>64.55</ele><time>2026-09-03T13:53:25Z</time></trkpt><trkpt lat="59.2241617665" lon="31.4383885358"><ele>68.87</ele><time>2026-09-03T13:53:26Z</time></trkpt><trkpt lat="59.2241583299" lon="31.4384001028"><ele>72.24</ele><time>2026-09-03T13:53:30Z</time></trkpt><trkpt lat="59.2241443321" lon="31.4383905474"><ele>74.64</ele><time>2026-09-03T13:53:33Z</time></trkpt><trkpt lat="59.2241521273" lon="31.4384113345"><ele>72.72</ele><time>2026-09-03T13:53:47Z</time></trkpt><trkpt lat="59.2241601739" lon="31.4384258352"><ele>74.16</ele><time>2026-09-03T13:53:50Z</time></trkpt><trkpt lat="59.2241885047" lon="31.4384912979"><ele>75.12</ele><time>2026-09-03T13:54:07Z</time></trkpt><trkpt lat="59.2242628522" lon="31.4384285174"><ele>75.12</ele><time>2026-09-03T13:54:26Z</time></trkpt><trkpt lat="59.2242946196" lon="31.4384545013"><ele>74.16</ele><time>2026-09-03T13:54:45Z</time></trkpt><trkpt lat="59.2242978048" lon="31.4385794755"><ele>76.08</ele><time>2026-09-03T13:54:59Z</time></trkpt><trkpt lat="59.2242435738" lon="31.4385931380"><ele>75.60</ele><time>2026-09-03T13:55:06Z</time></trkpt><trkpt lat="59.2242045142" lon="31.4386406634"><ele>76.08</ele><time>2026-09-03T13:55:15Z</time></trkpt><trkpt lat="59.2242175899" lon="31.4386368915"><ele>78.48</ele><time>2026-09-03T13:55:24Z</time></trkpt><trkpt lat="59.2241678014" lon="31.4386905357"><ele>77.04</ele><time>2026-09-03T13:55:52Z</time></trkpt><trkpt lat="59.2241553124" lon="31.4386659767"><ele>78.00</ele><time>2026-09-03T13:56:01Z</time></trkpt><trkpt lat="59.2241525464" lon="31.4386728499"><ele>78.97</ele><time>2026-09-03T13:56:36Z</time></trkpt><trkpt lat="59.2241082061" lon="31.4386576787"><ele>78.48</ele><time>2026-09-03T13:56:47Z</time></trkpt><trkpt lat="59.2240884248" lon="31.4387394860"><ele>80.89</ele><time>2026-09-03T13:57:06Z</time></trkpt><trkpt lat="59.2240843177" lon="31.4387466945"><ele>79.45</ele><time>2026-09-03T13:57:09Z</time></trkpt><trkpt lat="59.2240665480" lon="31.4387332834"><ele>81.37</ele><time>2026-09-03T13:57:17Z</time></trkpt><trkpt lat="59.2240563221" lon="31.4387041144"><ele>80.41</ele><time>2026-09-03T13:57:19Z</time></trkpt><trkpt lat="59.2239906918" lon="31.4388244785"><ele>79.93</ele><time>2026-09-03T13:57:29Z</time></trkpt><trkpt lat="59.2239766940" lon="31.4389294200"><ele>78.00</ele><time>2026-09-03T13:57:42Z</time></trkpt><trkpt lat="59.2239141650" lon="31.4391089603"><ele>78.48</ele><time>2026-09-03T13:57:57Z</time></trkpt><trkpt lat="59.2238517199" lon="31.4391743392"><ele>78.00</ele><time>2026-09-03T13:58:14Z</time></trkpt><trkpt lat="59.2237610277" lon="31.4392854832"><ele>79.45</ele><time>2026-09-03T13:58:34Z</time></trkpt><trkpt lat="59.2236762028" lon="31.4393434860"><ele>79.45</ele><time>2026-09-03T13:58:52Z</time></trkpt><trkpt lat="59.2235943116" lon="31.4393733256"><ele>78.48</ele><time>2026-09-03T13:59:03Z</time></trkpt><trkpt lat="59.2235789727" lon="31.4393864013"><ele>79.93</ele><time>2026-09-03T13:59:08Z</time></trkpt><trkpt lat="59.2234985903" lon="31.4394178335"><ele>79.93</ele><time>2026-09-03T13:59:25Z</time></trkpt><trkpt lat="59.2234618776" lon="31.4395923447"><ele>78.97</ele><time>2026-09-03T13:59:45Z</time></trkpt><trkpt lat="59.2234046292" lon="31.4396676142"><ele>78.00</ele><time>2026-09-03T13:59:58Z</time></trkpt><trkpt lat="59.2233764660" lon="31.4397614915"><ele>74.64</ele><time>2026-09-03T14:00:16Z</time></trkpt><trkpt lat="59.2233788129" lon="31.4397623297"><ele>74.64</ele><time>2026-09-03T14:00:17Z</time></trkpt><trkpt lat="59.2233899608" lon="31.4397550374"><ele>78.48</ele><time>2026-09-03T14:00:21Z</time></trkpt><trkpt lat="59.2233906314" lon="31.4397492539"><ele>78.48</ele><time>2026-09-03T14:00:22Z</time></trkpt><trkpt lat="59.2233120091" lon="31.4399114437"><ele>77.04</ele><time>2026-09-03T14:00:38Z</time></trkpt><trkpt lat="59.2232992686" lon="31.4400297124"><ele>76.08</ele><time>2026-09-03T14:00:48Z</time></trkpt><trkpt lat="59.2232355662" lon="31.4401014615"><ele>75.60</ele><time>2026-09-03T14:01:03Z</time></trkpt><trkpt lat="59.2231939919" lon="31.4403070696"><ele>75.60</ele><time>2026-09-03T14:01:19Z</time></trkpt><trkpt lat="59.2231851909" lon="31.4404878672"><ele>75.12</ele><time>2026-09-03T14:01:33Z</time></trkpt><trkpt lat="59.2231252603" lon="31.4405683335"><ele>73.68</ele><time>2026-09-03T14:01:52Z</time></trkpt><trkpt lat="59.2231087480" lon="31.4405996818"><ele>73.68</ele><time>2026-09-03T14:02:10Z</time></trkpt><trkpt lat="59.2230958398" lon="31.4406161103"><ele>72.24</ele><time>2026-09-03T14:02:37Z</time></trkpt><trkpt lat="59.2230906431" lon="31.4406473748"><ele>68.87</ele><time>2026-09-03T14:03:02Z</time></trkpt><trkpt lat="59.2231085803" lon="31.4405933954"><ele>69.35</ele><time>2026-09-03T14:03:26Z</time></trkpt><trkpt lat="59.2231224105" lon="31.4405300282"><ele>68.39</ele><time>2026-09-03T14:03:44Z</time></trkpt><trkpt lat="59.2231205665" lon="31.4405009430"><ele>65.99</ele><time>2026-09-03T14:03:52Z</time></trkpt><trkpt lat="59.2230909783" lon="31.4405824151"><ele>66.47</ele><time>2026-09-03T14:04:11Z</time></trkpt><trkpt lat="59.2230727058" lon="31.4406027831"><ele>65.03</ele><time>2026-09-03T14:04:14Z</time></trkpt><trkpt lat="59.2230483983" lon="31.4406446926"><ele>64.55</ele><time>2026-09-03T14:04:21Z</time></trkpt><trkpt lat="59.2229717039" lon="31.4407959022"><ele>65.51</ele><time>2026-09-03T14:04:35Z</time></trkpt><trkpt lat="59.2229571193" lon="31.4408192039"><ele>61.66</ele><time>2026-09-03T14:04:38Z</time></trkpt><trkpt lat="59.2229485698" lon="31.4408631250"><ele>59.26</ele><time>2026-09-03T14:04:42Z</time></trkpt><trkpt lat="59.2229528446" lon="31.4408673998"><ele>63.58</ele><time>2026-09-03T14:04:47Z</time></trkpt><trkpt lat="59.2229517549" lon="31.4408732671"><ele>63.58</ele><time>2026-09-03T14:04:48Z</time></trkpt><trkpt lat="59.2228788324" lon="31.4409390651"><ele>62.62</ele><time>2026-09-03T14:05:02Z</time></trkpt><trkpt lat="59.2228116095" lon="31.4409308508"><ele>61.66</ele><time>2026-09-03T14:05:17Z</time></trkpt><trkpt lat="59.2227783334" lon="31.4410227165"><ele>61.66</ele><time>2026-09-03T14:05:33Z</time></trkpt><trkpt lat="59.2227040697" lon="31.4413263928"><ele>60.70</ele><time>2026-09-03T14:05:52Z</time></trkpt><trkpt lat="59.2225920036" lon="31.4415200986"><ele>59.74</ele><time>2026-09-03T14:06:11Z</time></trkpt><trkpt lat="59.2225260381" lon="31.4415183384"><ele>59.74</ele><time>2026-09-03T14:06:30Z</time></trkpt><trkpt lat="59.2224723101" lon="31.4415049274"><ele>59.74</ele><time>2026-09-03T14:06:51Z</time></trkpt><trkpt lat="59.2224660236" lon="31.4415738266"><ele>62.62</ele><time>2026-09-03T14:06:54Z</time></trkpt><trkpt lat="59.2223682068" lon="31.4419208374"><ele>60.22</ele><time>2026-09-03T14:07:11Z</time></trkpt><trkpt lat="59.2223610822" lon="31.4419239387"><ele>58.30</ele><time>2026-09-03T14:07:13Z</time></trkpt><trkpt lat="59.2223506887" lon="31.4419061691"><ele>61.66</ele><time>2026-09-03T14:07:17Z</time></trkpt><trkpt lat="59.2223510239" lon="31.4419092704"><ele>61.66</ele><time>2026-09-03T14:07:18Z</time></trkpt><trkpt lat="59.2223474197" lon="31.4419213403"><ele>63.10</ele><time>2026-09-03T14:07:20Z</time></trkpt><trkpt lat="59.2223620042" lon="31.4418206736"><ele>63.10</ele><time>2026-09-03T14:07:47Z</time></trkpt><trkpt lat="59.2223844677" lon="31.4417526126"><ele>65.51</ele><time>2026-09-03T14:08:15Z</time></trkpt><trkpt lat="59.2223864794" lon="31.4417537861"><ele>68.39</ele><time>2026-09-03T14:08:51Z</time></trkpt><trkpt lat="59.2223157361" lon="31.4418770839"><ele>71.27</ele><time>2026-09-03T14:09:28Z</time></trkpt><trkpt lat="59.2223283090" lon="31.4418321569"><ele>73.20</ele><time>2026-09-03T14:09:53Z</time></trkpt><trkpt lat="59.2223309912" lon="31.4418514352"><ele>74.64</ele><time>2026-09-03T14:10:18Z</time></trkpt><trkpt lat="59.2223466653" lon="31.4418567996"><ele>76.08</ele><time>2026-09-03T14:10:47Z</time></trkpt><trkpt lat="59.2224176601" lon="31.4419081807"><ele>77.52</ele><time>2026-09-03T14:11:17Z</time></trkpt><trkpt lat="59.2222818732" lon="31.4420412853"><ele>78.48</ele><time>2026-09-03T14:11:55Z</time></trkpt><trkpt lat="59.2222793587" lon="31.4420381840"><ele>78.97</ele><time>2026-09-03T14:12:19Z</time></trkpt><trkpt lat="59.2223452404" lon="31.4418667741"><ele>79.45</ele><time>2026-09-03T14:12:46Z</time></trkpt><trkpt lat="59.2223312426" lon="31.4418387786"><ele>80.41</ele><time>2026-09-03T14:13:19Z</time></trkpt><trkpt lat="59.2223204300" lon="31.4418542013"><ele>81.37</ele><time>2026-09-03T14:13:54Z</time></trkpt><trkpt lat="59.2223602440" lon="31.4418302290"><ele>78.97</ele><time>2026-09-03T14:14:14Z</time></trkpt><trkpt lat="59.2223635968" lon="31.4418645948"><ele>71.27</ele><time>2026-09-03T14:14:16Z</time></trkpt><trkpt lat="59.2223636806" lon="31.4418771677"><ele>71.27</ele><time>2026-09-03T14:14:17Z</time></trkpt><trkpt lat="59.2223639321" lon="31.4419008885"><ele>79.93</ele><time>2026-09-03T14:14:22Z</time></trkpt><trkpt lat="59.2223641835" lon="31.4419114497"><ele>79.93</ele><time>2026-09-03T14:14:23Z</time></trkpt><trkpt lat="59.2223443184" lon="31.4420027286"><ele>80.41</ele><time>2026-09-03T14:14:41Z</time></trkpt><trkpt lat="59.2223640159" lon="31.4420351665"><ele>79.93</ele><time>2026-09-03T14:15:06Z</time></trkpt><trkpt lat="59.2223589867" lon="31.4420459792"><ele>77.52</ele><time>2026-09-03T14:15:18Z</time></trkpt><trkpt lat="59.2223006487" lon="31.4421117771"><ele>78.48</ele><time>2026-09-03T14:15:36Z</time></trkpt><trkpt lat="59.2222014908" lon="31.4421732165"><ele>77.04</ele><time>2026-09-03T14:15:49Z</time></trkpt><trkpt lat="59.2221091222" lon="31.4422458876"><ele>77.04</ele><time>2026-09-03T14:16:02Z</time></trkpt><trkpt lat="59.2220792826" lon="31.4423789084"><ele>77.04</ele><time>2026-09-03T14:16:19Z</time></trkpt><trkpt lat="59.2220343556" lon="31.4425463788"><ele>75.12</ele><time>2026-09-03T14:16:31Z</time></trkpt><trkpt lat="59.2220671289" lon="31.4426044654"><ele>77.04</ele><time>2026-09-03T14:16:36Z</time></trkpt><trkpt lat="59.2221568152" lon="31.4426831715"><ele>76.08</ele><time>2026-09-03T14:16:48Z</time></trkpt><trkpt lat="59.2222040053" lon="31.4427469578"><ele>76.08</ele><time>2026-09-03T14:16:55Z</time></trkpt><trkpt lat="59.2222285643" lon="31.4428294357"><ele>72.72</ele><time>2026-09-03T14:17:03Z</time></trkpt><trkpt lat="59.2222249601" lon="31.4428332075"><ele>72.72</ele><time>2026-09-03T14:17:04Z</time></trkpt><trkpt lat="59.2222138122" lon="31.4428345487"><ele>74.64</ele><time>2026-09-03T14:17:19Z</time></trkpt><trkpt lat="59.2222185899" lon="31.4427445270"><ele>71.27</ele><time>2026-09-03T14:17:42Z</time></trkpt><trkpt lat="59.2221615929" lon="31.4426878653"><ele>71.76</ele><time>2026-09-03T14:17:48Z</time></trkpt><trkpt lat="59.2220874969" lon="31.4426012803"><ele>71.27</ele><time>2026-09-03T14:18:02Z</time></trkpt><trkpt lat="59.2219887581" lon="31.4425127674"><ele>72.24</ele><time>2026-09-03T14:18:19Z</time></trkpt><trkpt lat="59.2218535580" lon="31.4426916372"><ele>71.27</ele><time>2026-09-03T14:18:34Z</time></trkpt><trkpt lat="59.2218247242" lon="31.4427303616"><ele>67.91</ele><time>2026-09-03T14:18:38Z</time></trkpt><trkpt lat="59.2218229640" lon="31.4427336305"><ele>67.91</ele><time>2026-09-03T14:18:39Z</time></trkpt><trkpt lat="59.2218206171" lon="31.4427426830"><ele>70.31</ele><time>2026-09-03T14:18:48Z</time></trkpt><trkpt lat="59.2217215430" lon="31.4430519752"><ele>68.87</ele><time>2026-09-03T14:19:06Z</time></trkpt><trkpt lat="59.2216353770" lon="31.4430628717"><ele>68.39</ele><time>2026-09-03T14:19:19Z</time></trkpt><trkpt lat="59.2216348741" lon="31.4431682322"><ele>67.91</ele><time>2026-09-03T14:19:34Z</time></trkpt><trkpt lat="59.2215388175" lon="31.4432640374"><ele>67.43</ele><time>2026-09-03T14:19:49Z</time></trkpt><trkpt lat="59.2214853410" lon="31.4434203599"><ele>66.95</ele><time>2026-09-03T14:20:00Z</time></trkpt><trkpt lat="59.2214478739" lon="31.4435260557"><ele>68.39</ele><time>2026-09-03T14:20:13Z</time></trkpt><trkpt lat="59.2214142624" lon="31.4436061867"><ele>65.99</ele><time>2026-09-03T14:20:18Z</time></trkpt><trkpt lat="59.2214114126" lon="31.4438344259"><ele>64.55</ele><time>2026-09-03T14:20:33Z</time></trkpt><trkpt lat="59.2213855125" lon="31.4438404609"><ele>62.62</ele><time>2026-09-03T14:20:36Z</time></trkpt><trkpt lat="59.2213732749" lon="31.4438459091"><ele>65.99</ele><time>2026-09-03T14:20:38Z</time></trkpt><trkpt lat="59.2213127576" lon="31.4439229388"><ele>64.07</ele><time>2026-09-03T14:20:51Z</time></trkpt><trkpt lat="59.2213076446" lon="31.4439147245"><ele>67.43</ele><time>2026-09-03T14:20:52Z</time></trkpt><trkpt lat="59.2213055491" lon="31.4439107012"><ele>67.43</ele><time>2026-09-03T14:20:53Z</time></trkpt><trkpt lat="59.2212972511" lon="31.4438102860"><ele>65.51</ele><time>2026-09-03T14:21:13Z</time></trkpt><trkpt lat="59.2212928087" lon="31.4438336715"><ele>67.43</ele><time>2026-09-03T14:21:18Z</time></trkpt><trkpt lat="59.2212414276" lon="31.4439414628"><ele>63.58</ele><time>2026-09-03T14:21:26Z</time></trkpt><trkpt lat="59.2212387454" lon="31.4439448155"><ele>63.58</ele><time>2026-09-03T14:21:27Z</time></trkpt><trkpt lat="59.2212307826" lon="31.4439901616"><ele>65.99</ele><time>2026-09-03T14:21:33Z</time></trkpt><trkpt lat="59.2212230712" lon="31.4441052452"><ele>65.99</ele><time>2026-09-03T14:21:48Z</time></trkpt><trkpt lat="59.2211242486" lon="31.4442660101"><ele>64.55</ele><time>2026-09-03T14:22:02Z</time></trkpt><trkpt lat="59.2210703529" lon="31.4442539401"><ele>65.99</ele><time>2026-09-03T14:22:17Z</time></trkpt><trkpt lat="59.2210462131" lon="31.4444416109"><ele>65.03</ele><time>2026-09-03T14:22:32Z</time></trkpt><trkpt lat="59.2210167088" lon="31.4445825946"><ele>66.47</ele><time>2026-09-03T14:22:40Z</time></trkpt><trkpt lat="59.2210000288" lon="31.4446528349"><ele>64.07</ele><time>2026-09-03T14:22:47Z</time></trkpt><trkpt lat="59.2209288664" lon="31.4448367339"><ele>64.55</ele><time>2026-09-03T14:23:00Z</time></trkpt><trkpt lat="59.2208247632" lon="31.4447743725"><ele>64.55</ele><time>2026-09-03T14:23:16Z</time></trkpt><trkpt lat="59.2207750585" lon="31.4448105823"><ele>64.55</ele><time>2026-09-03T14:23:31Z</time></trkpt><trkpt lat="59.2207614798" lon="31.4448368177"><ele>62.62</ele><time>2026-09-03T14:23:34Z</time></trkpt><trkpt lat="59.2207060754" lon="31.4450299367"><ele>61.66</ele><time>2026-09-03T14:23:46Z</time></trkpt><trkpt lat="59.2206856236" lon="31.4450804796"><ele>63.10</ele><time>2026-09-03T14:23:50Z</time></trkpt><trkpt lat="59.2206371762" lon="31.4450971596"><ele>62.62</ele><time>2026-09-03T14:24:04Z</time></trkpt><trkpt lat="59.2206116114" lon="31.4452434238"><ele>62.62</ele><time>2026-09-03T14:24:19Z</time></trkpt><trkpt lat="59.2205820233" lon="31.4453279134"><ele>62.62</ele><time>2026-09-03T14:24:34Z</time></trkpt><trkpt lat="59.2205283791" lon="31.4454227127"><ele>60.22</ele><time>2026-09-03T14:24:47Z</time></trkpt><trkpt lat="59.2204514332" lon="31.4454319328"><ele>59.26</ele><time>2026-09-03T14:25:01Z</time></trkpt><trkpt lat="59.2204410397" lon="31.4454546478"><ele>59.74</ele><time>2026-09-03T14:25:08Z</time></trkpt><trkpt lat="59.2203952745" lon="31.4455979783"><ele>60.22</ele><time>2026-09-03T14:25:22Z</time></trkpt><trkpt lat="59.2203383613" lon="31.4458045084"><ele>58.78</ele><time>2026-09-03T14:25:36Z</time></trkpt><trkpt lat="59.2203277163" lon="31.4458639361"><ele>59.26</ele><time>2026-09-03T14:26:09Z</time></trkpt><trkpt lat="59.2202997208" lon="31.4458431490"><ele>56.37</ele><time>2026-09-03T14:26:27Z</time></trkpt><trkpt lat="59.2202914227" lon="31.4458331745"><ele>56.37</ele><time>2026-09-03T14:26:50Z</time></trkpt><trkpt lat="59.2202681210" lon="31.4459414687"><ele>55.89</ele><time>2026-09-03T14:27:02Z</time></trkpt><trkpt lat="59.2201362737" lon="31.4460419677"><ele>54.45</ele><time>2026-09-03T14:27:18Z</time></trkpt><trkpt lat="59.2200822104" lon="31.4460785966"><ele>55.89</ele><time>2026-09-03T14:27:30Z</time></trkpt><trkpt lat="59.2200055998" lon="31.4461847115"><ele>55.41</ele><time>2026-09-03T14:27:44Z</time></trkpt><trkpt lat="59.2199189309" lon="31.4462761581"><ele>53.49</ele><time>2026-09-03T14:28:01Z</time></trkpt><trkpt lat="59.2198813800" lon="31.4463686943"><ele>55.41</ele><time>2026-09-03T14:28:14Z</time></trkpt><trkpt lat="59.2198681366" lon="31.4464806765"><ele>54.93</ele><time>2026-09-03T14:28:27Z</time></trkpt><trkpt lat="59.2198678013" lon="31.4464842808"><ele>52.53</ele><time>2026-09-03T14:28:30Z</time></trkpt><trkpt lat="59.2198654544" lon="31.4465955086"><ele>50.61</ele><time>2026-09-03T14:28:36Z</time></trkpt><trkpt lat="59.2198652029" lon="31.4466088358"><ele>54.45</ele><time>2026-09-03T14:28:37Z</time></trkpt><trkpt lat="59.2198617663" lon="31.4466151223"><ele>53.97</ele><time>2026-09-03T14:28:38Z</time></trkpt><trkpt lat="59.2198269814" lon="31.4467065688"><ele>50.61</ele><time>2026-09-03T14:28:47Z</time></trkpt><trkpt lat="59.2198035959" lon="31.4467514120"><ele>52.05</ele><time>2026-09-03T14:28:58Z</time></trkpt><trkpt lat="59.2197533045" lon="31.4468174614"><ele>52.05</ele><time>2026-09-03T14:29:10Z</time></trkpt><trkpt lat="59.2197217047" lon="31.4468544256"><ele>49.65</ele><time>2026-09-03T14:29:23Z</time></trkpt><trkpt lat="59.2196553200" lon="31.4468853548"><ele>50.61</ele><time>2026-09-03T14:29:42Z</time></trkpt><trkpt lat="59.2195742670" lon="31.4469615463"><ele>50.13</ele><time>2026-09-03T14:29:56Z</time></trkpt><trkpt lat="59.2195713334" lon="31.4469865244"><ele>51.09</ele><time>2026-09-03T14:30:01Z</time></trkpt><trkpt lat="59.2195239756" lon="31.4470611233"><ele>51.57</ele><time>2026-09-03T14:30:20Z</time></trkpt><trkpt lat="59.2195531446" lon="31.4472053759"><ele>50.61</ele><time>2026-09-03T14:30:36Z</time></trkpt><trkpt lat="59.2195217963" lon="31.4472533204"><ele>51.57</ele><time>2026-09-03T14:31:04Z</time></trkpt><trkpt lat="59.2195295915" lon="31.4473730978"><ele>51.57</ele><time>2026-09-03T14:31:28Z</time></trkpt><trkpt lat="59.2194881849" lon="31.4474082179"><ele>49.16</ele><time>2026-09-03T14:31:33Z</time></trkpt><trkpt lat="59.2194385640" lon="31.4475260675"><ele>45.32</ele><time>2026-09-03T14:31:43Z</time></trkpt><trkpt lat="59.2194357980" lon="31.4475306775"><ele>51.09</ele><time>2026-09-03T14:31:44Z</time></trkpt><trkpt lat="59.2193497997" lon="31.4475813042"><ele>50.13</ele><time>2026-09-03T14:31:58Z</time></trkpt><trkpt lat="59.2193399090" lon="31.4475941285"><ele>48.68</ele><time>2026-09-03T14:32:00Z</time></trkpt><trkpt lat="59.2193079740" lon="31.4476946276"><ele>49.16</ele><time>2026-09-03T14:32:18Z</time></trkpt><trkpt lat="59.2192370631" lon="31.4477393869"><ele>48.68</ele><time>2026-09-03T14:32:38Z</time></trkpt><trkpt lat="59.2192506418" lon="31.4477608446"><ele>47.24</ele><time>2026-09-03T14:32:50Z</time></trkpt><trkpt lat="59.2193250731" lon="31.4478957094"><ele>44.84</ele><time>2026-09-03T14:33:06Z</time></trkpt><trkpt lat="59.2193639651" lon="31.4479801990"><ele>34.26</ele><time>2026-09-03T14:33:14Z</time></trkpt><trkpt lat="59.2193624564" lon="31.4479876589"><ele>36.67</ele><time>2026-09-03T14:33:15Z</time></trkpt><trkpt lat="59.2193561699" lon="31.4479895029"><ele>43.40</ele><time>2026-09-03T14:33:16Z</time></trkpt><trkpt lat="59.2193547450" lon="31.4479949512"><ele>40.51</ele><time>2026-09-03T14:33:17Z</time></trkpt><trkpt lat="59.2193539906" lon="31.4479992259"><ele>45.32</ele><time>2026-09-03T14:33:19Z</time></trkpt><trkpt lat="59.2193557508" lon="31.4480006509"><ele>44.84</ele><time>2026-09-03T14:33:20Z</time></trkpt><trkpt lat="59.2193592712" lon="31.4479874074"><ele>45.32</ele><time>2026-09-03T14:33:35Z</time></trkpt><trkpt lat="59.2193651386" lon="31.4479796961"><ele>41.95</ele><time>2026-09-03T14:33:41Z</time></trkpt><trkpt lat="59.2193640489" lon="31.4479853120"><ele>42.44</ele><time>2026-09-03T14:33:42Z</time></trkpt><trkpt lat="59.2193707544" lon="31.4479988068"><ele>44.84</ele><time>2026-09-03T14:33:44Z</time></trkpt><trkpt lat="59.2193710059" lon="31.4480099548"><ele>43.40</ele><time>2026-09-03T14:33:47Z</time></trkpt><trkpt lat="59.2193494644" lon="31.4480257966"><ele>43.40</ele><time>2026-09-03T14:34:04Z</time></trkpt><trkpt lat="59.2193443514" lon="31.4480192587"><ele>42.44</ele><time>2026-09-03T14:34:16Z</time></trkpt><trkpt lat="59.2193487938" lon="31.4479226153"><ele>43.88</ele><time>2026-09-03T14:34:49Z</time></trkpt><trkpt lat="59.2193553317" lon="31.4479721524"><ele>40.51</ele><time>2026-09-03T14:34:54Z</time></trkpt><trkpt lat="59.2193579301" lon="31.4479770139"><ele>44.36</ele><time>2026-09-03T14:34:55Z</time></trkpt><trkpt lat="59.2193653900" lon="31.4479958732"><ele>40.51</ele><time>2026-09-03T14:35:03Z</time></trkpt><trkpt lat="59.2193700839" lon="31.4480663650"><ele>38.11</ele><time>2026-09-03T14:35:12Z</time></trkpt><trkpt lat="59.2193678208" lon="31.4480859786"><ele>43.88</ele><time>2026-09-03T14:35:16Z</time></trkpt><trkpt lat="59.2193807289" lon="31.4481082745"><ele>45.80</ele><time>2026-09-03T14:35:19Z</time></trkpt><trkpt lat="59.2194088083" lon="31.4482117910"><ele>44.36</ele><time>2026-09-03T14:35:34Z</time></trkpt><trkpt lat="59.2194311880" lon="31.4483012259"><ele>45.32</ele><time>2026-09-03T14:35:49Z</time></trkpt><trkpt lat="59.2194493767" lon="31.4483642578"><ele>40.51</ele><time>2026-09-03T14:35:59Z</time></trkpt><trkpt lat="59.2194479518" lon="31.4483628329"><ele>40.51</ele><time>2026-09-03T14:36:00Z</time></trkpt><trkpt lat="59.2194388993" lon="31.4483668562"><ele>40.51</ele><time>2026-09-03T14:36:03Z</time></trkpt><trkpt lat="59.2194256559" lon="31.4483868051"><ele>43.88</ele><time>2026-09-03T14:36:05Z</time></trkpt><trkpt lat="59.2194287572" lon="31.4484189916"><ele>40.03</ele><time>2026-09-03T14:36:08Z</time></trkpt><trkpt lat="59.2194277514" lon="31.4484255295"><ele>42.92</ele><time>2026-09-03T14:36:09Z</time></trkpt><trkpt lat="59.2194333673" lon="31.4484453108"><ele>42.44</ele><time>2026-09-03T14:36:14Z</time></trkpt><trkpt lat="59.2194459401" lon="31.4485074207"><ele>41.95</ele><time>2026-09-03T14:36:26Z</time></trkpt><trkpt lat="59.2194513045" lon="31.4485580474"><ele>41.95</ele><time>2026-09-03T14:36:39Z</time></trkpt><trkpt lat="59.2194512207" lon="31.4486208279"><ele>42.92</ele><time>2026-09-03T14:36:52Z</time></trkpt><trkpt lat="59.2194482032" lon="31.4486651681"><ele>40.99</ele><time>2026-09-03T14:37:02Z</time></trkpt><trkpt lat="59.2194499634" lon="31.4486712031"><ele>44.36</ele><time>2026-09-03T14:37:06Z</time></trkpt><trkpt lat="59.2194507178" lon="31.4486761484"><ele>44.36</ele><time>2026-09-03T14:37:07Z</time></trkpt><trkpt lat="59.2194570042" lon="31.4487076644"><ele>44.84</ele><time>2026-09-03T14:37:23Z</time></trkpt><trkpt lat="59.2194672301" lon="31.4487954229"><ele>45.80</ele><time>2026-09-03T14:37:34Z</time></trkpt><trkpt lat="59.2194765341" lon="31.4488881268"><ele>47.72</ele><time>2026-09-03T14:37:47Z</time></trkpt><trkpt lat="59.2194656376" lon="31.4489537571"><ele>44.84</ele><time>2026-09-03T14:37:55Z</time></trkpt><trkpt lat="59.2194856703" lon="31.4489738736"><ele>49.16</ele><time>2026-09-03T14:38:04Z</time></trkpt><trkpt lat="59.2194944713" lon="31.4489791542"><ele>48.68</ele><time>2026-09-03T14:38:05Z</time></trkpt><trkpt lat="59.2195177730" lon="31.4489949122"><ele>50.61</ele><time>2026-09-03T14:38:08Z</time></trkpt><trkpt lat="59.2196619418" lon="31.4489936549"><ele>52.05</ele><time>2026-09-03T14:38:25Z</time></trkpt><trkpt lat="59.2197330203" lon="31.4490015339"><ele>53.97</ele><time>2026-09-03T14:38:35Z</time></trkpt><trkpt lat="59.2198323458" lon="31.4490016177"><ele>49.16</ele><time>2026-09-03T14:38:49Z</time></trkpt><trkpt lat="59.2198356986" lon="31.4490014501"><ele>53.97</ele><time>2026-09-03T14:38:50Z</time></trkpt><trkpt lat="59.2198413983" lon="31.4490046352"><ele>54.93</ele><time>2026-09-03T14:38:52Z</time></trkpt><trkpt lat="59.2199030891" lon="31.4490028750"><ele>56.37</ele><time>2026-09-03T14:39:02Z</time></trkpt><trkpt lat="59.2199459206" lon="31.4489879552"><ele>57.34</ele><time>2026-09-03T14:39:12Z</time></trkpt><trkpt lat="59.2200248782" lon="31.4490260929"><ele>58.78</ele><time>2026-09-03T14:39:25Z</time></trkpt><trkpt lat="59.2200183403" lon="31.4490743726"><ele>54.45</ele><time>2026-09-03T14:39:37Z</time></trkpt><trkpt lat="59.2200211063" lon="31.4490744565"><ele>55.41</ele><time>2026-09-03T14:39:38Z</time></trkpt><trkpt lat="59.2200330086" lon="31.4490603749"><ele>60.70</ele><time>2026-09-03T14:39:44Z</time></trkpt><trkpt lat="59.2200399656" lon="31.4490607101"><ele>60.70</ele><time>2026-09-03T14:39:45Z</time></trkpt><trkpt lat="59.2201793566" lon="31.4490742888"><ele>60.70</ele><time>2026-09-03T14:40:04Z</time></trkpt><trkpt lat="59.2202186678" lon="31.4491225686"><ele>59.26</ele><time>2026-09-03T14:40:21Z</time></trkpt><trkpt lat="59.2202480044" lon="31.4491072297"><ele>58.30</ele><time>2026-09-03T14:40:36Z</time></trkpt><trkpt lat="59.2202222720" lon="31.4491400030"><ele>62.14</ele><time>2026-09-03T14:40:51Z</time></trkpt><trkpt lat="59.2203184962" lon="31.4490655717"><ele>58.30</ele><time>2026-09-03T14:41:05Z</time></trkpt><trkpt lat="59.2204506788" lon="31.4490755461"><ele>60.70</ele><time>2026-09-03T14:41:27Z</time></trkpt><trkpt lat="59.2204843741" lon="31.4491959102"><ele>60.22</ele><time>2026-09-03T14:41:45Z</time></trkpt><trkpt lat="59.2205463164" lon="31.4491648972"><ele>61.18</ele><time>2026-09-03T14:42:00Z</time></trkpt><trkpt lat="59.2206054926" lon="31.4491272625"><ele>61.18</ele><time>2026-09-03T14:42:12Z</time></trkpt><trkpt lat="59.2205825262" lon="31.4492036216"><ele>62.62</ele><time>2026-09-03T14:42:26Z</time></trkpt><trkpt lat="59.2205773294" lon="31.4491871931"><ele>63.10</ele><time>2026-09-03T14:42:43Z</time></trkpt><trkpt lat="59.2205788381" lon="31.4492554218"><ele>61.18</ele><time>2026-09-03T14:42:57Z</time></trkpt><trkpt lat="59.2205044068" lon="31.4493306912"><ele>64.55</ele><time>2026-09-03T14:43:08Z</time></trkpt><trkpt lat="59.2204320710" lon="31.4493887778"><ele>63.10</ele><time>2026-09-03T14:43:23Z</time></trkpt><trkpt lat="59.2203786783" lon="31.4493985847"><ele>60.22</ele><time>2026-09-03T14:43:30Z</time></trkpt><trkpt lat="59.2203685362" lon="31.4493948966"><ele>60.70</ele><time>2026-09-03T14:43:31Z</time></trkpt><trkpt lat="59.2202113755" lon="31.4495601039"><ele>62.62</ele><time>2026-09-03T14:43:48Z</time></trkpt><trkpt lat="59.2201525345" lon="31.4496246446"><ele>63.10</ele><time>2026-09-03T14:43:54Z</time></trkpt><trkpt lat="59.2200745828" lon="31.4496140834"><ele>62.62</ele><time>2026-09-03T14:44:04Z</time></trkpt><trkpt lat="59.2200429831" lon="31.4495827351"><ele>61.66</ele><time>2026-09-03T14:44:08Z</time></trkpt><trkpt lat="59.2199347727" lon="31.4496259019"><ele>61.66</ele><time>2026-09-03T14:44:22Z</time></trkpt><trkpt lat="59.2198976409" lon="31.4496615250"><ele>64.55</ele><time>2026-09-03T14:44:28Z</time></trkpt><trkpt lat="59.2198672146" lon="31.4497630298"><ele>61.66</ele><time>2026-09-03T14:44:36Z</time></trkpt><trkpt lat="59.2198894266" lon="31.4499119762"><ele>62.14</ele><time>2026-09-03T14:44:49Z</time></trkpt><trkpt lat="59.2198589165" lon="31.4500941150"><ele>63.10</ele><time>2026-09-03T14:45:02Z</time></trkpt><trkpt lat="59.2198072001" lon="31.4502751641"><ele>61.18</ele><time>2026-09-03T14:45:15Z</time></trkpt><trkpt lat="59.2197926994" lon="31.4503091108"><ele>57.34</ele><time>2026-09-03T14:45:20Z</time></trkpt><trkpt lat="59.2197862454" lon="31.4503338374"><ele>60.22</ele><time>2026-09-03T14:45:22Z</time></trkpt><trkpt lat="59.2197527178" lon="31.4504849631"><ele>61.18</ele><time>2026-09-03T14:45:36Z</time></trkpt><trkpt lat="59.2197444197" lon="31.4504701272"><ele>62.14</ele><time>2026-09-03T14:45:50Z</time></trkpt><trkpt lat="59.2197295837" lon="31.4506036509"><ele>61.66</ele><time>2026-09-03T14:46:14Z</time></trkpt><trkpt lat="59.2197352834" lon="31.4505780023"><ele>62.14</ele><time>2026-09-03T14:46:40Z</time></trkpt><trkpt lat="59.2197497841" lon="31.4505627472"><ele>64.07</ele><time>2026-09-03T14:47:08Z</time></trkpt><trkpt lat="59.2197076231" lon="31.4505554549"><ele>65.99</ele><time>2026-09-03T14:47:31Z</time></trkpt><trkpt lat="59.2197297513" lon="31.4503630064"><ele>67.43</ele><time>2026-09-03T14:47:54Z</time></trkpt><trkpt lat="59.2197820544" lon="31.4503883198"><ele>65.51</ele><time>2026-09-03T14:48:24Z</time></trkpt><trkpt lat="59.2197851557" lon="31.4503790997"><ele>65.99</ele><time>2026-09-03T14:48:25Z</time></trkpt><trkpt lat="59.2197880056" lon="31.4503644314"><ele>65.51</ele><time>2026-09-03T14:48:48Z</time></trkpt><trkpt lat="59.2197749298" lon="31.4502626751"><ele>64.55</ele><time>2026-09-03T14:49:16Z</time></trkpt><trkpt lat="59.2197486944" lon="31.4502726495"><ele>64.07</ele><time>2026-09-03T14:49:42Z</time></trkpt><trkpt lat="59.2197426595" lon="31.4502431452"><ele>65.03</ele><time>2026-09-03T14:50:09Z</time></trkpt><trkpt lat="59.2197741754" lon="31.4502466656"><ele>66.47</ele><time>2026-09-03T14:50:32Z</time></trkpt><trkpt lat="59.2198622692" lon="31.4503287245"><ele>64.07</ele><time>2026-09-03T14:50:47Z</time></trkpt><trkpt lat="59.2198693100" lon="31.4503318258"><ele>66.95</ele><time>2026-09-03T14:50:50Z</time></trkpt><trkpt lat="59.2198776919" lon="31.4503381960"><ele>66.95</ele><time>2026-09-03T14:50:51Z</time></trkpt><trkpt lat="59.2199589964" lon="31.4503000583"><ele>65.99</ele><time>2026-09-03T14:51:07Z</time></trkpt><trkpt lat="59.2199876625" lon="31.4500786085"><ele>65.51</ele><time>2026-09-03T14:51:23Z</time></trkpt><trkpt lat="59.2200370319" lon="31.4500170853"><ele>65.51</ele><time>2026-09-03T14:51:37Z</time></trkpt><trkpt lat="59.2200234532" lon="31.4498237986"><ele>65.51</ele><time>2026-09-03T14:51:50Z</time></trkpt><trkpt lat="59.2201044224" lon="31.4497152530"><ele>65.03</ele><time>2026-09-03T14:52:05Z</time></trkpt><trkpt lat="59.2201803625" lon="31.4496792946"><ele>63.10</ele><time>2026-09-03T14:52:19Z</time></trkpt><trkpt lat="59.2201872356" lon="31.4496751875"><ele>66.47</ele><time>2026-09-03T14:52:20Z</time></trkpt><trkpt lat="59.2201927677" lon="31.4496663027"><ele>65.99</ele><time>2026-09-03T14:52:21Z</time></trkpt><trkpt lat="59.2202361859" lon="31.4495395683"><ele>62.62</ele><time>2026-09-03T14:52:31Z</time></trkpt><trkpt lat="59.2202621698" lon="31.4495045319"><ele>59.26</ele><time>2026-09-03T14:52:36Z</time></trkpt><trkpt lat="59.2203447316" lon="31.4493796416"><ele>63.10</ele><time>2026-09-03T14:52:48Z</time></trkpt><trkpt lat="59.2204254493" lon="31.4492576011"><ele>60.70</ele><time>2026-09-03T14:53:03Z</time></trkpt><trkpt lat="59.2204638384" lon="31.4491682500"><ele>60.22</ele><time>2026-09-03T14:53:19Z</time></trkpt><trkpt lat="59.2204655148" lon="31.4492006879"><ele>61.18</ele><time>2026-09-03T14:53:33Z</time></trkpt><trkpt lat="59.2204813566" lon="31.4492680784"><ele>57.82</ele><time>2026-09-03T14:53:38Z</time></trkpt><trkpt lat="59.2205275409" lon="31.4491549227"><ele>58.30</ele><time>2026-09-03T14:53:54Z</time></trkpt><trkpt lat="59.2205241043" lon="31.4491066430"><ele>57.82</ele><time>2026-09-03T14:54:11Z</time></trkpt><trkpt lat="59.2205238529" lon="31.4490899630"><ele>54.93</ele><time>2026-09-03T14:54:15Z</time></trkpt><trkpt lat="59.2205195781" lon="31.4490458742"><ele>57.34</ele><time>2026-09-03T14:54:22Z</time></trkpt><trkpt lat="59.2205252778" lon="31.4490063116"><ele>54.93</ele><time>2026-09-03T14:54:35Z</time></trkpt><trkpt lat="59.2205273733" lon="31.4490060601"><ele>54.93</ele><time>2026-09-03T14:54:36Z</time></trkpt><trkpt lat="59.2205593083" lon="31.4489882067"><ele>54.45</ele><time>2026-09-03T14:54:46Z</time></trkpt><trkpt lat="59.2205615714" lon="31.4489773102"><ele>54.45</ele><time>2026-09-03T14:54:48Z</time></trkpt><trkpt lat="59.2205756530" lon="31.4489495661"><ele>54.45</ele><time>2026-09-03T14:54:51Z</time></trkpt><trkpt lat="59.2205797601" lon="31.4489358198"><ele>53.97</ele><time>2026-09-03T14:54:52Z</time></trkpt><trkpt lat="59.2206087615" lon="31.4488217421"><ele>53.01</ele><time>2026-09-03T14:55:10Z</time></trkpt><trkpt lat="59.2206114437" lon="31.4487967640"><ele>56.86</ele><time>2026-09-03T14:55:16Z</time></trkpt><trkpt lat="59.2206131201" lon="31.4487913158"><ele>57.34</ele><time>2026-09-03T14:55:17Z</time></trkpt><trkpt lat="59.2206249386" lon="31.4487737138"><ele>53.49</ele><time>2026-09-03T14:55:20Z</time></trkpt><trkpt lat="59.2206370924" lon="31.4487796649"><ele>53.97</ele><time>2026-09-03T14:55:21Z</time></trkpt><trkpt lat="59.2206407804" lon="31.4487261046"><ele>53.97</ele><time>2026-09-03T14:55:29Z</time></trkpt><trkpt lat="59.2206390202" lon="31.4487121906"><ele>50.61</ele><time>2026-09-03T14:55:31Z</time></trkpt><trkpt lat="59.2206470668" lon="31.4486964326"><ele>49.65</ele><time>2026-09-03T14:55:33Z</time></trkpt><trkpt lat="59.2206592206" lon="31.4487070777"><ele>51.09</ele><time>2026-09-03T14:55:35Z</time></trkpt><trkpt lat="59.2206643336" lon="31.4486827701"><ele>52.53</ele><time>2026-09-03T14:55:47Z</time></trkpt><trkpt lat="59.2207717057" lon="31.4484885614"><ele>49.65</ele><time>2026-09-03T14:56:04Z</time></trkpt><trkpt lat="59.2208207399" lon="31.4483754057"><ele>49.16</ele><time>2026-09-03T14:56:25Z</time></trkpt><trkpt lat="59.2209514976" lon="31.4482695423"><ele>46.76</ele><time>2026-09-03T14:56:42Z</time></trkpt><trkpt lat="59.2209747154" lon="31.4481745753"><ele>48.68</ele><time>2026-09-03T14:56:59Z</time></trkpt><trkpt lat="59.2210281920" lon="31.4481060114"><ele>47.24</ele><time>2026-09-03T14:57:12Z</time></trkpt><trkpt lat="59.2210306227" lon="31.4481034968"><ele>47.24</ele><time>2026-09-03T14:57:13Z</time></trkpt><trkpt lat="59.2210982647" lon="31.4480698016"><ele>45.32</ele><time>2026-09-03T14:57:25Z</time></trkpt><trkpt lat="59.2211231589" lon="31.4480684604"><ele>44.84</ele><time>2026-09-03T14:57:42Z</time></trkpt><trkpt lat="59.2211306188" lon="31.4480600785"><ele>41.47</ele><time>2026-09-03T14:58:06Z</time></trkpt><trkpt lat="59.2211291101" lon="31.4480414707"><ele>40.51</ele><time>2026-09-03T14:58:08Z</time></trkpt><trkpt lat="59.2211094964" lon="31.4480501879"><ele>38.59</ele><time>2026-09-03T14:58:31Z</time></trkpt><trkpt lat="59.2211617157" lon="31.4479413908"><ele>37.15</ele><time>2026-09-03T14:58:43Z</time></trkpt><trkpt lat="59.2212081514" lon="31.4478117228"><ele>33.78</ele><time>2026-09-03T14:58:56Z</time></trkpt><trkpt lat="59.2212678306" lon="31.4477641135"><ele>34.26</ele><time>2026-09-03T14:59:13Z</time></trkpt><trkpt lat="59.2212754581" lon="31.4477420691"><ele>30.42</ele><time>2026-09-03T14:59:21Z</time></trkpt><trkpt lat="59.2212801520" lon="31.4477331843"><ele>30.42</ele><time>2026-09-03T14:59:22Z</time></trkpt><trkpt lat="59.2213512305" lon="31.4476129878"><ele>28.02</ele><time>2026-09-03T14:59:36Z</time></trkpt><trkpt lat="59.2213865183" lon="31.4475124888"><ele>26.57</ele><time>2026-09-03T14:59:45Z</time></trkpt><trkpt lat="59.2214741092" lon="31.4473494608"><ele>25.61</ele><time>2026-09-03T15:00:00Z</time></trkpt><trkpt lat="59.2215555813" lon="31.4472305216"><ele>24.65</ele><time>2026-09-03T15:00:14Z</time></trkpt><trkpt lat="59.2216202896" lon="31.4471148513"><ele>24.65</ele><time>2026-09-03T15:00:29Z</time></trkpt><trkpt lat="59.2216307670" lon="31.4470925555"><ele>21.29</ele><time>2026-09-03T15:00:43Z</time></trkpt><trkpt lat="59.2216345388" lon="31.4470842574"><ele>21.29</ele><time>2026-09-03T15:00:44Z</time></trkpt><trkpt lat="59.2216305993" lon="31.4470748696"><ele>16.48</ele><time>2026-09-03T15:00:47Z</time></trkpt><trkpt lat="59.2216307670" lon="31.4470779710"><ele>16.48</ele><time>2026-09-03T15:00:48Z</time></trkpt><trkpt lat="59.2216298450" lon="31.4470819104"><ele>19.84</ele><time>2026-09-03T15:00:52Z</time></trkpt><trkpt lat="59.2216300126" lon="31.4470854308"><ele>19.84</ele><time>2026-09-03T15:00:53Z</time></trkpt><trkpt lat="59.2216487043" lon="31.4470597822"><ele>23.21</ele><time>2026-09-03T15:01:05Z</time></trkpt><trkpt lat="59.2216532305" lon="31.4470511489"><ele>23.21</ele><time>2026-09-03T15:01:06Z</time></trkpt><trkpt lat="59.2216958106" lon="31.4468928985"><ele>20.81</ele><time>2026-09-03T15:01:18Z</time></trkpt><trkpt lat="59.2217375524" lon="31.4468221553"><ele>20.32</ele><time>2026-09-03T15:01:31Z</time></trkpt><trkpt lat="59.2217540648" lon="31.4467698522"><ele>19.36</ele><time>2026-09-03T15:01:35Z</time></trkpt><trkpt lat="59.2218129896" lon="31.4466504101"><ele>15.04</ele><time>2026-09-03T15:01:48Z</time></trkpt><trkpt lat="59.2218129057" lon="31.4466504939"><ele>15.04</ele><time>2026-09-03T15:01:49Z</time></trkpt><trkpt lat="59.2218312621" lon="31.4466260187"><ele>18.40</ele><time>2026-09-03T15:02:06Z</time></trkpt><trkpt lat="59.2218610179" lon="31.4465561137"><ele>16.96</ele><time>2026-09-03T15:02:12Z</time></trkpt><trkpt lat="59.2218940426" lon="31.4464961831"><ele>15.04</ele><time>2026-09-03T15:02:17Z</time></trkpt><trkpt lat="59.2219623551" lon="31.4463883080"><ele>13.60</ele><time>2026-09-03T15:02:30Z</time></trkpt><trkpt lat="59.2220384628" lon="31.4462289680"><ele>13.60</ele><time>2026-09-03T15:02:45Z</time></trkpt><trkpt lat="59.2220385466" lon="31.4462027326"><ele>11.67</ele><time>2026-09-03T15:03:06Z</time></trkpt><trkpt lat="59.2220622674" lon="31.4461246133"><ele>12.63</ele><time>2026-09-03T15:03:14Z</time></trkpt><trkpt lat="59.2221122235" lon="31.4460013993"><ele>12.15</ele><time>2026-09-03T15:03:26Z</time></trkpt><trkpt lat="59.2221174203" lon="31.4460050035"><ele>14.56</ele><time>2026-09-03T15:03:43Z</time></trkpt><trkpt lat="59.2221593298" lon="31.4458769280"><ele>15.04</ele><time>2026-09-03T15:03:58Z</time></trkpt><trkpt lat="59.2222148180" lon="31.4457197674"><ele>15.52</ele><time>2026-09-03T15:04:12Z</time></trkpt><trkpt lat="59.2222368624" lon="31.4456393011"><ele>8.31</ele><time>2026-09-03T15:04:19Z</time></trkpt><trkpt lat="59.2222382873" lon="31.4456350263"><ele>8.31</ele><time>2026-09-03T15:04:20Z</time></trkpt><trkpt lat="59.2222359404" lon="31.4456294943"><ele>15.04</ele><time>2026-09-03T15:04:24Z</time></trkpt><trkpt lat="59.2222356889" lon="31.4456269797"><ele>15.04</ele><time>2026-09-03T15:04:25Z</time></trkpt><trkpt lat="59.2222420592" lon="31.4456093777"><ele>18.40</ele><time>2026-09-03T15:04:40Z</time></trkpt><trkpt lat="59.2222468369" lon="31.4455999061"><ele>18.40</ele><time>2026-09-03T15:04:41Z</time></trkpt><trkpt lat="59.2222957034" lon="31.4454543125"><ele>16.96</ele><time>2026-09-03T15:04:52Z</time></trkpt><trkpt lat="59.2223734874" lon="31.4453124907"><ele>17.92</ele><time>2026-09-03T15:05:06Z</time></trkpt><trkpt lat="59.2224345077" lon="31.4452013467"><ele>16.96</ele><time>2026-09-03T15:05:18Z</time></trkpt><trkpt lat="59.2224402074" lon="31.4451958984"><ele>16.96</ele><time>2026-09-03T15:05:19Z</time></trkpt><trkpt lat="59.2224537022" lon="31.4451884385"><ele>18.40</ele><time>2026-09-03T15:05:25Z</time></trkpt><trkpt lat="59.2224707175" lon="31.4451629575"><ele>19.36</ele><time>2026-09-03T15:05:29Z</time></trkpt><trkpt lat="59.2224770878" lon="31.4451415837"><ele>20.81</ele><time>2026-09-03T15:05:31Z</time></trkpt><trkpt lat="59.2225249484" lon="31.4450115804"><ele>19.36</ele><time>2026-09-03T15:05:42Z</time></trkpt><trkpt lat="59.2226218432" lon="31.4449239057"><ele>20.32</ele><time>2026-09-03T15:05:56Z</time></trkpt><trkpt lat="59.2226518504" lon="31.4448845945"><ele>21.29</ele><time>2026-09-03T15:06:08Z</time></trkpt><trkpt lat="59.2226780858" lon="31.4447608776"><ele>20.81</ele><time>2026-09-03T15:06:24Z</time></trkpt><trkpt lat="59.2226855457" lon="31.4446658269"><ele>20.81</ele><time>2026-09-03T15:06:40Z</time></trkpt><trkpt lat="59.2227621563" lon="31.4446861949"><ele>20.81</ele><time>2026-09-03T15:06:56Z</time></trkpt><trkpt lat="59.2228673492" lon="31.4446116798"><ele>20.81</ele><time>2026-09-03T15:07:11Z</time></trkpt><trkpt lat="59.2229420319" lon="31.4445165452"><ele>20.81</ele><time>2026-09-03T15:07:25Z</time></trkpt><trkpt lat="59.2229784932" lon="31.4445051458"><ele>13.12</ele><time>2026-09-03T15:07:36Z</time></trkpt><trkpt lat="59.2229789961" lon="31.4445025474"><ele>16.00</ele><time>2026-09-03T15:07:37Z</time></trkpt><trkpt lat="59.2229770683" lon="31.4444986917"><ele>20.32</ele><time>2026-09-03T15:07:40Z</time></trkpt><trkpt lat="59.2229930777" lon="31.4444830175"><ele>22.25</ele><time>2026-09-03T15:07:43Z</time></trkpt><trkpt lat="59.2230678443" lon="31.4443660900"><ele>22.73</ele><time>2026-09-03T15:07:57Z</time></trkpt><trkpt lat="59.2230883799" lon="31.4443109371"><ele>20.81</ele><time>2026-09-03T15:08:03Z</time></trkpt><trkpt lat="59.2230920680" lon="31.4443026390"><ele>22.25</ele><time>2026-09-03T15:08:08Z</time></trkpt><trkpt lat="59.2231384199" lon="31.4443183132"><ele>22.25</ele><time>2026-09-03T15:08:27Z</time></trkpt><trkpt lat="59.2231776472" lon="31.4442883059"><ele>25.13</ele><time>2026-09-03T15:08:32Z</time></trkpt><trkpt lat="59.2231858615" lon="31.4442743082"><ele>25.13</ele><time>2026-09-03T15:08:33Z</time></trkpt><trkpt lat="59.2232226580" lon="31.4441982843"><ele>23.21</ele><time>2026-09-03T15:08:40Z</time></trkpt><trkpt lat="59.2232897971" lon="31.4441241883"><ele>23.21</ele><time>2026-09-03T15:08:50Z</time></trkpt><trkpt lat="59.2233114224" lon="31.4440906607"><ele>25.13</ele><time>2026-09-03T15:08:54Z</time></trkpt><trkpt lat="59.2232499830" lon="31.4440070093"><ele>21.77</ele><time>2026-09-03T15:09:03Z</time></trkpt><trkpt lat="59.2232158687" lon="31.4439656027"><ele>23.69</ele><time>2026-09-03T15:09:10Z</time></trkpt><trkpt lat="59.2231453769" lon="31.4439946879"><ele>25.13</ele><time>2026-09-03T15:09:37Z</time></trkpt><trkpt lat="59.2231124360" lon="31.4438691270"><ele>27.53</ele><time>2026-09-03T15:10:02Z</time></trkpt><trkpt lat="59.2231374141" lon="31.4439609926"><ele>30.42</ele><time>2026-09-03T15:10:30Z</time></trkpt><trkpt lat="59.2231204826" lon="31.4438647684"><ele>33.30</ele><time>2026-09-03T15:11:05Z</time></trkpt><trkpt lat="59.2232017871" lon="31.4438855555"><ele>36.19</ele><time>2026-09-03T15:11:38Z</time></trkpt><trkpt lat="59.2232359014" lon="31.4439620823"><ele>38.11</ele><time>2026-09-03T15:12:15Z</time></trkpt><trkpt lat="59.2232188862" lon="31.4440055005"><ele>39.55</ele><time>2026-09-03T15:12:24Z</time></trkpt><trkpt lat="59.2232179642" lon="31.4440247789"><ele>40.03</ele><time>2026-09-03T15:13:03Z</time></trkpt><trkpt lat="59.2232296988" lon="31.4440163970"><ele>42.44</ele><time>2026-09-03T15:13:41Z</time></trkpt><trkpt lat="59.2232285254" lon="31.4440295566"><ele>44.36</ele><time>2026-09-03T15:14:13Z</time></trkpt><trkpt lat="59.2231840175" lon="31.4440082666"><ele>45.80</ele><time>2026-09-03T15:14:52Z</time></trkpt><trkpt lat="59.2232103366" lon="31.4440133795"><ele>47.72</ele><time>2026-09-03T15:15:30Z</time></trkpt><trkpt lat="59.2232151143" lon="31.4440204203"><ele>49.65</ele><time>2026-09-03T15:16:10Z</time></trkpt><trkpt lat="59.2232105881" lon="31.4439863898"><ele>51.57</ele><time>2026-09-03T15:16:54Z</time></trkpt><trkpt lat="59.2232260946" lon="31.4440100268"><ele>53.01</ele><time>2026-09-03T15:17:33Z</time></trkpt><trkpt lat="59.2232379131" lon="31.4440231863"><ele>53.49</ele><time>2026-09-03T15:17:50Z</time></trkpt><trkpt lat="59.2232115101" lon="31.4440085180"><ele>48.20</ele><time>2026-09-03T15:17:56Z</time></trkpt><trkpt lat="59.2232057266" lon="31.4439873118"><ele>53.01</ele><time>2026-09-03T15:17:57Z</time></trkpt><trkpt lat="59.2232643161" lon="31.4439195022"><ele>52.05</ele><time>2026-09-03T15:18:16Z</time></trkpt><trkpt lat="59.2233201396" lon="31.4438624214"><ele>52.53</ele><time>2026-09-03T15:18:30Z</time></trkpt><trkpt lat="59.2233217321" lon="31.4438069332"><ele>51.09</ele><time>2026-09-03T15:18:34Z</time></trkpt><trkpt lat="59.2233231571" lon="31.4437893312"><ele>52.53</ele><time>2026-09-03T15:18:49Z</time></trkpt><trkpt lat="59.2233734485" lon="31.4437399618"><ele>52.05</ele><time>2026-09-03T15:19:04Z</time></trkpt><trkpt lat="59.2233981751" lon="31.4436880779"><ele>53.49</ele><time>2026-09-03T15:19:10Z</time></trkpt><trkpt lat="59.2234137654" lon="31.4436194301"><ele>51.57</ele><time>2026-09-03T15:19:14Z</time></trkpt><trkpt lat="59.2234834190" lon="31.4435833041"><ele>51.57</ele><time>2026-09-03T15:19:33Z</time></trkpt><trkpt lat="59.2234835029" lon="31.4434439130"><ele>52.05</ele><time>2026-09-03T15:19:52Z</time></trkpt><trkpt lat="59.2234907113" lon="31.4434284065"><ele>53.01</ele><time>2026-09-03T15:19:54Z</time></trkpt><trkpt lat="59.2235721834" lon="31.4433679730"><ele>48.68</ele><time>2026-09-03T15:20:07Z</time></trkpt><trkpt lat="59.2235685792" lon="31.4433707390"><ele>47.72</ele><time>2026-09-03T15:20:09Z</time></trkpt><trkpt lat="59.2235746142" lon="31.4433672186"><ele>51.09</ele><time>2026-09-03T15:20:15Z</time></trkpt><trkpt lat="59.2235788889" lon="31.4433608484"><ele>51.09</ele><time>2026-09-03T15:20:16Z</time></trkpt><trkpt lat="59.2236447707" lon="31.4432627801"><ele>52.05</ele><time>2026-09-03T15:20:32Z</time></trkpt><trkpt lat="59.2236719280" lon="31.4431954734"><ele>53.01</ele><time>2026-09-03T15:20:39Z</time></trkpt><trkpt lat="59.2237065453" lon="31.4431352913"><ele>52.05</ele><time>2026-09-03T15:21:00Z</time></trkpt><trkpt lat="59.2237174418" lon="31.4431150910"><ele>52.53</ele><time>2026-09-03T15:21:07Z</time></trkpt><trkpt lat="59.2237301823" lon="31.4431398176"><ele>52.53</ele><time>2026-09-03T15:21:12Z</time></trkpt><trkpt lat="59.2237428389" lon="31.4431798831"><ele>49.65</ele><time>2026-09-03T15:21:18Z</time></trkpt><trkpt lat="59.2237433419" lon="31.4431838226"><ele>51.57</ele><time>2026-09-03T15:21:21Z</time></trkpt><trkpt lat="59.2237383127" lon="31.4430936333"><ele>50.13</ele><time>2026-09-03T15:21:45Z</time></trkpt><trkpt lat="59.2237688228" lon="31.4431054518"><ele>51.09</ele><time>2026-09-03T15:21:50Z</time></trkpt><trkpt lat="59.2237929627" lon="31.4431212097"><ele>47.72</ele><time>2026-09-03T15:21:57Z</time></trkpt><trkpt lat="59.2237923760" lon="31.4431194495"><ele>47.72</ele><time>2026-09-03T15:21:58Z</time></trkpt><trkpt lat="59.2238153424" lon="31.4430803061"><ele>46.28</ele><time>2026-09-03T15:22:09Z</time></trkpt><trkpt lat="59.2238484509" lon="31.4430248179"><ele>50.13</ele><time>2026-09-03T15:22:22Z</time></trkpt><trkpt lat="59.2238477804" lon="31.4430090599"><ele>49.65</ele><time>2026-09-03T15:22:23Z</time></trkpt><trkpt lat="59.2238427512" lon="31.4429730177"><ele>48.20</ele><time>2026-09-03T15:22:26Z</time></trkpt><trkpt lat="59.2238765303" lon="31.4428985026"><ele>49.16</ele><time>2026-09-03T15:22:37Z</time></trkpt><trkpt lat="59.2239334434" lon="31.4428464510"><ele>47.72</ele><time>2026-09-03T15:22:49Z</time></trkpt><trkpt lat="59.2239444237" lon="31.4428063016"><ele>49.16</ele><time>2026-09-03T15:23:07Z</time></trkpt><trkpt lat="59.2240351997" lon="31.4427147713"><ele>47.72</ele><time>2026-09-03T15:23:22Z</time></trkpt><trkpt lat="59.2240970582" lon="31.4426788967"><ele>47.24</ele><time>2026-09-03T15:23:35Z</time></trkpt><trkpt lat="59.2241505347" lon="31.4426236600"><ele>47.72</ele><time>2026-09-03T15:23:51Z</time></trkpt><trkpt lat="59.2242045142" lon="31.4425769728"><ele>49.16</ele><time>2026-09-03T15:24:05Z</time></trkpt><trkpt lat="59.2243037559" lon="31.4424934052"><ele>46.76</ele><time>2026-09-03T15:24:21Z</time></trkpt><trkpt lat="59.2243848089" lon="31.4423887152"><ele>46.28</ele><time>2026-09-03T15:24:37Z</time></trkpt><trkpt lat="59.2243985552" lon="31.4423184749"><ele>48.20</ele><time>2026-09-03T15:24:46Z</time></trkpt><trkpt lat="59.2244334240" lon="31.4422223344"><ele>49.16</ele><time>2026-09-03T15:24:59Z</time></trkpt><trkpt lat="59.2244381178" lon="31.4422094263"><ele>45.80</ele><time>2026-09-03T15:25:00Z</time></trkpt><trkpt lat="59.2244437337" lon="31.4421972726"><ele>45.80</ele><time>2026-09-03T15:25:01Z</time></trkpt><trkpt lat="59.2244767584" lon="31.4421095978"><ele>48.20</ele><time>2026-09-03T15:25:08Z</time></trkpt><trkpt lat="59.2244735733" lon="31.4419689495"><ele>47.24</ele><time>2026-09-03T15:25:20Z</time></trkpt><trkpt lat="59.2244765069" lon="31.4419771638"><ele>47.72</ele><time>2026-09-03T15:25:22Z</time></trkpt><trkpt lat="59.2245076038" lon="31.4419242740"><ele>44.36</ele><time>2026-09-03T15:25:28Z</time></trkpt><trkpt lat="59.2245179974" lon="31.4419047441"><ele>49.16</ele><time>2026-09-03T15:25:30Z</time></trkpt><trkpt lat="59.2245242000" lon="31.4418854658"><ele>49.16</ele><time>2026-09-03T15:25:31Z</time></trkpt><trkpt lat="59.2245452385" lon="31.4417838771"><ele>48.20</ele><time>2026-09-03T15:25:48Z</time></trkpt><trkpt lat="59.2246514373" lon="31.4416094497"><ele>47.72</ele><time>2026-09-03T15:26:05Z</time></trkpt><trkpt lat="59.2246934306" lon="31.4415098727"><ele>48.20</ele><time>2026-09-03T15:26:20Z</time></trkpt><trkpt lat="59.2247274611" lon="31.4415389579"><ele>50.13</ele><time>2026-09-03T15:26:25Z</time></trkpt><trkpt lat="59.2247164808" lon="31.4414350223"><ele>46.28</ele><time>2026-09-03T15:26:39Z</time></trkpt><trkpt lat="59.2247314006" lon="31.4414200187"><ele>45.32</ele><time>2026-09-03T15:26:41Z</time></trkpt><trkpt lat="59.2247821111" lon="31.4413974714"><ele>49.16</ele><time>2026-09-03T15:26:46Z</time></trkpt><trkpt lat="59.2248891480" lon="31.4413354453"><ele>48.68</ele><time>2026-09-03T15:27:07Z</time></trkpt><trkpt lat="59.2249619868" lon="31.4412820525"><ele>49.16</ele><time>2026-09-03T15:27:22Z</time></trkpt><trkpt lat="59.2249748949" lon="31.4411761053"><ele>50.61</ele><time>2026-09-03T15:27:39Z</time></trkpt><trkpt lat="59.2250051536" lon="31.4411279932"><ele>52.05</ele><time>2026-09-03T15:27:46Z</time></trkpt><trkpt lat="59.2250715382" lon="31.4409965649"><ele>48.20</ele><time>2026-09-03T15:27:56Z</time></trkpt><trkpt lat="59.2250801716" lon="31.4409920387"><ele>48.20</ele><time>2026-09-03T15:27:57Z</time></trkpt><trkpt lat="59.2250790820" lon="31.4409569185"><ele>51.09</ele><time>2026-09-03T15:28:03Z</time></trkpt><trkpt lat="59.2250763997" lon="31.4409402385"><ele>50.13</ele><time>2026-09-03T15:28:04Z</time></trkpt><trkpt lat="59.2251205724" lon="31.4407507237"><ele>46.76</ele><time>2026-09-03T15:28:19Z</time></trkpt><trkpt lat="59.2251281999" lon="31.4407446887"><ele>47.24</ele><time>2026-09-03T15:28:20Z</time></trkpt><trkpt lat="59.2251414433" lon="31.4407371450"><ele>51.09</ele><time>2026-09-03T15:28:33Z</time></trkpt><trkpt lat="59.2251478136" lon="31.4407176990"><ele>51.09</ele><time>2026-09-03T15:28:34Z</time></trkpt><trkpt lat="59.2252040561" lon="31.4405350573"><ele>51.57</ele><time>2026-09-03T15:28:50Z</time></trkpt><trkpt lat="59.2252318840" lon="31.4404760487"><ele>50.61</ele><time>2026-09-03T15:29:16Z</time></trkpt><trkpt lat="59.2252696864" lon="31.4404874481"><ele>49.65</ele><time>2026-09-03T15:29:49Z</time></trkpt><trkpt lat="59.2253790703" lon="31.4404462092"><ele>47.72</ele><time>2026-09-03T15:30:06Z</time></trkpt><trkpt lat="59.2254152801" lon="31.4403825067"><ele>49.65</ele><time>2026-09-03T15:30:21Z</time></trkpt><trkpt lat="59.2254830059" lon="31.4401478972"><ele>48.68</ele><time>2026-09-03T15:30:34Z</time></trkpt><trkpt lat="59.2254875321" lon="31.4401167165"><ele>47.72</ele><time>2026-09-03T15:30:38Z</time></trkpt><trkpt lat="59.2255420983" lon="31.4400359150"><ele>50.13</ele><time>2026-09-03T15:30:55Z</time></trkpt><trkpt lat="59.2255876958" lon="31.4399531856"><ele>48.20</ele><time>2026-09-03T15:31:09Z</time></trkpt><trkpt lat="59.2256073095" lon="31.4399334043"><ele>47.72</ele><time>2026-09-03T15:31:14Z</time></trkpt><trkpt lat="59.2256126739" lon="31.4399323147"><ele>51.09</ele><time>2026-09-03T15:31:15Z</time></trkpt><trkpt lat="59.2256125901" lon="31.4399185684"><ele>47.24</ele><time>2026-09-03T15:31:22Z</time></trkpt><trkpt lat="59.2256155238" lon="31.4399106894"><ele>48.68</ele><time>2026-09-03T15:31:23Z</time></trkpt><trkpt lat="59.2256841715" lon="31.4398391079"><ele>47.72</ele><time>2026-09-03T15:31:36Z</time></trkpt><trkpt lat="59.2256903742" lon="31.4398188237"><ele>48.68</ele><time>2026-09-03T15:31:38Z</time></trkpt><trkpt lat="59.2257042881" lon="31.4397108648"><ele>47.72</ele><time>2026-09-03T15:31:54Z</time></trkpt><trkpt lat="59.2257584352" lon="31.4395161532"><ele>50.13</ele><time>2026-09-03T15:32:10Z</time></trkpt><trkpt lat="59.2258183658" lon="31.4394349325"><ele>50.61</ele><time>2026-09-03T15:32:23Z</time></trkpt><trkpt lat="59.2258232273" lon="31.4393436536"><ele>50.13</ele><time>2026-09-03T15:32:39Z</time></trkpt><trkpt lat="59.2258830741" lon="31.4393247105"><ele>51.09</ele><time>2026-09-03T15:32:52Z</time></trkpt><trkpt lat="59.2259582598" lon="31.4392080344"><ele>50.13</ele><time>2026-09-03T15:33:05Z</time></trkpt><trkpt lat="59.2260103114" lon="31.4391266461"><ele>49.65</ele><time>2026-09-03T15:33:21Z</time></trkpt><trkpt lat="59.2260222975" lon="31.4391145762"><ele>50.61</ele><time>2026-09-03T15:33:28Z</time></trkpt><trkpt lat="59.2260346189" lon="31.4390767738"><ele>46.76</ele><time>2026-09-03T15:33:46Z</time></trkpt><trkpt lat="59.2260623630" lon="31.4390367083"><ele>48.20</ele><time>2026-09-03T15:33:52Z</time></trkpt><trkpt lat="59.2261432484" lon="31.4390310086"><ele>48.68</ele><time>2026-09-03T15:34:06Z</time></trkpt><trkpt lat="59.2262341082" lon="31.4388090558"><ele>47.72</ele><time>2026-09-03T15:34:22Z</time></trkpt><trkpt lat="59.2262398079" lon="31.4387930464"><ele>47.72</ele><time>2026-09-03T15:34:23Z</time></trkpt><trkpt lat="59.2262755148" lon="31.4387348760"><ele>49.65</ele><time>2026-09-03T15:34:33Z</time></trkpt><trkpt lat="59.2263241298" lon="31.4385135099"><ele>48.68</ele><time>2026-09-03T15:34:48Z</time></trkpt><trkpt lat="59.2264195997" lon="31.4383097459"><ele>49.16</ele><time>2026-09-03T15:35:05Z</time></trkpt><trkpt lat="59.2264869064" lon="31.4381598774"><ele>49.65</ele><time>2026-09-03T15:35:21Z</time></trkpt><trkpt lat="59.2265166622" lon="31.4380966779"><ele>50.13</ele><time>2026-09-03T15:35:38Z</time></trkpt><trkpt lat="59.2265419755" lon="31.4380768128"><ele>49.16</ele><time>2026-09-03T15:36:03Z</time></trkpt><trkpt lat="59.2265264690" lon="31.4380510803"><ele>47.72</ele><time>2026-09-03T15:36:33Z</time></trkpt><trkpt lat="59.2265372816" lon="31.4382537547"><ele>47.72</ele><time>2026-09-03T15:36:53Z</time></trkpt><trkpt lat="59.2265553027" lon="31.4384201355"><ele>48.20</ele><time>2026-09-03T15:37:01Z</time></trkpt><trkpt lat="59.2265527882" lon="31.4385182038"><ele>43.88</ele><time>2026-09-03T15:37:06Z</time></trkpt><trkpt lat="59.2265541293" lon="31.4385343809"><ele>46.76</ele><time>2026-09-03T15:37:07Z</time></trkpt><trkpt lat="59.2265428975" lon="31.4387567528"><ele>49.65</ele><time>2026-09-03T15:37:26Z</time></trkpt><trkpt lat="59.2265624274" lon="31.4388046134"><ele>48.20</ele><time>2026-09-03T15:37:31Z</time></trkpt><trkpt lat="59.2265715636" lon="31.4388442598"><ele>44.84</ele><time>2026-09-03T15:37:35Z</time></trkpt><trkpt lat="59.2265865672" lon="31.4388632029"><ele>46.76</ele><time>2026-09-03T15:37:42Z</time></trkpt><trkpt lat="59.2266367748" lon="31.4390368760"><ele>46.76</ele><time>2026-09-03T15:37:57Z</time></trkpt><trkpt lat="59.2266560532" lon="31.4391519595"><ele>46.76</ele><time>2026-09-03T15:38:11Z</time></trkpt><trkpt lat="59.2266211845" lon="31.4392161649"><ele>47.72</ele><time>2026-09-03T15:38:18Z</time></trkpt><trkpt lat="59.2266378645" lon="31.4392583258"><ele>49.16</ele><time>2026-09-03T15:38:28Z</time></trkpt><trkpt lat="59.2266319972" lon="31.4392734971"><ele>45.80</ele><time>2026-09-03T15:38:35Z</time></trkpt><trkpt lat="59.2266323324" lon="31.4392756764"><ele>33.30</ele><time>2026-09-03T15:38:36Z</time></trkpt><trkpt lat="59.2266335897" lon="31.4392780233"><ele>33.30</ele><time>2026-09-03T15:38:37Z</time></trkpt><trkpt lat="59.2266596574" lon="31.4393360261"><ele>47.72</ele><time>2026-09-03T15:38:57Z</time></trkpt><trkpt lat="59.2266625911" lon="31.4393354394"><ele>47.72</ele><time>2026-09-03T15:38:58Z</time></trkpt><trkpt lat="59.2266532034" lon="31.4392890036"><ele>46.76</ele><time>2026-09-03T15:39:23Z</time></trkpt><trkpt lat="59.2266397923" lon="31.4393457491"><ele>47.72</ele><time>2026-09-03T15:39:52Z</time></trkpt><trkpt lat="59.2266814504" lon="31.4393702243"><ele>48.68</ele><time>2026-09-03T15:40:15Z</time></trkpt><trkpt lat="59.2266920954" lon="31.4393607527"><ele>47.72</ele><time>2026-09-03T15:40:30Z</time></trkpt><trkpt lat="59.2266837973" lon="31.4394034166"><ele>48.20</ele><time>2026-09-03T15:40:36Z</time></trkpt><trkpt lat="59.2267455719" lon="31.4394357707"><ele>46.76</ele><time>2026-09-03T15:40:55Z</time></trkpt><trkpt lat="59.2267620843" lon="31.4394684602"><ele>46.76</ele><time>2026-09-03T15:40:58Z</time></trkpt><trkpt lat="59.2267773394" lon="31.4395008981"><ele>45.80</ele><time>2026-09-03T15:41:12Z</time></trkpt><trkpt lat="59.2267879844" lon="31.4395941049"><ele>48.20</ele><time>2026-09-03T15:41:35Z</time></trkpt><trkpt lat="59.2267972883" lon="31.4396193344"><ele>47.72</ele><time>2026-09-03T15:41:37Z</time></trkpt><trkpt lat="59.2268471606" lon="31.4397749025"><ele>46.28</ele><time>2026-09-03T15:41:49Z</time></trkpt><trkpt lat="59.2268903274" lon="31.4399644174"><ele>48.20</ele><time>2026-09-03T15:42:03Z</time></trkpt><trkpt lat="59.2269481625" lon="31.4401146211"><ele>45.80</ele><time>2026-09-03T15:42:15Z</time></trkpt><trkpt lat="59.2269540299" lon="31.4401248470"><ele>45.80</ele><time>2026-09-03T15:42:16Z</time></trkpt><trkpt lat="59.2270271201" lon="31.4402525034"><ele>44.84</ele><time>2026-09-03T15:42:29Z</time></trkpt><trkpt lat="59.2270176485" lon="31.4402721170"><ele>45.80</ele><time>2026-09-03T15:42:56Z</time></trkpt><trkpt lat="59.2270200793" lon="31.4402834326"><ele>45.80</ele><time>2026-09-03T15:42:57Z</time></trkpt><trkpt lat="59.2270277906" lon="31.4403301198"><ele>45.80</ele><time>2026-09-03T15:43:00Z</time></trkpt><trkpt lat="59.2270660121" lon="31.4405632205"><ele>45.80</ele><time>2026-09-03T15:43:14Z</time></trkpt><trkpt lat="59.2270757351" lon="31.4406234026"><ele>45.80</ele><time>2026-09-03T15:43:18Z</time></trkpt><trkpt lat="59.2271146271" lon="31.4408861753"><ele>46.28</ele><time>2026-09-03T15:43:34Z</time></trkpt><trkpt lat="59.2271307204" lon="31.4410746004"><ele>48.20</ele><time>2026-09-03T15:43:49Z</time></trkpt><trkpt lat="59.2271233443" lon="31.4411080442"><ele>50.13</ele><time>2026-09-03T15:44:12Z</time></trkpt><trkpt lat="59.2271242663" lon="31.4410928730"><ele>51.57</ele><time>2026-09-03T15:44:44Z</time></trkpt><trkpt lat="59.2271378450" lon="31.4411248080"><ele>50.61</ele><time>2026-09-03T15:44:48Z</time></trkpt><trkpt lat="59.2271567043" lon="31.4412469324"><ele>52.05</ele><time>2026-09-03T15:44:55Z</time></trkpt><trkpt lat="59.2271970212" lon="31.4415273909"><ele>53.01</ele><time>2026-09-03T15:45:12Z</time></trkpt><trkpt lat="59.2272374220" lon="31.4417441469"><ele>53.97</ele><time>2026-09-03T15:45:26Z</time></trkpt><trkpt lat="59.2272516713" lon="31.4419054147"><ele>54.45</ele><time>2026-09-03T15:45:37Z</time></trkpt><trkpt lat="59.2272855341" lon="31.4420829434"><ele>54.93</ele><time>2026-09-03T15:45:49Z</time></trkpt><trkpt lat="59.2272911500" lon="31.4421303850"><ele>55.41</ele><time>2026-09-03T15:45:52Z</time></trkpt><trkpt lat="59.2272910662" lon="31.4421995357"><ele>53.01</ele><time>2026-09-03T15:45:57Z</time></trkpt><trkpt lat="59.2272864562" lon="31.4422033075"><ele>50.61</ele><time>2026-09-03T15:46:01Z</time></trkpt><trkpt lat="59.2272886354" lon="31.4422182273"><ele>55.89</ele><time>2026-09-03T15:46:07Z</time></trkpt><trkpt lat="59.2273195647" lon="31.4424600452"><ele>55.89</ele><time>2026-09-03T15:46:21Z</time></trkpt><trkpt lat="59.2273595463" lon="31.4426737837"><ele>56.37</ele><time>2026-09-03T15:46:34Z</time></trkpt><trkpt lat="59.2273890506" lon="31.4428872708"><ele>57.34</ele><time>2026-09-03T15:46:46Z</time></trkpt><trkpt lat="59.2274101730" lon="31.4431031048"><ele>58.30</ele><time>2026-09-03T15:46:58Z</time></trkpt><trkpt lat="59.2274560221" lon="31.4433025941"><ele>59.26</ele><time>2026-09-03T15:47:10Z</time></trkpt><trkpt lat="59.2274863645" lon="31.4435015805"><ele>59.74</ele><time>2026-09-03T15:47:22Z</time></trkpt><trkpt lat="59.2275040504" lon="31.4437436499"><ele>60.70</ele><time>2026-09-03T15:47:35Z</time></trkpt><trkpt lat="59.2275078222" lon="31.4437598269"><ele>60.70</ele><time>2026-09-03T15:47:36Z</time></trkpt><trkpt lat="59.2275553476" lon="31.4439939335"><ele>62.14</ele><time>2026-09-03T15:47:50Z</time></trkpt><trkpt lat="59.2275613826" lon="31.4440288860"><ele>62.62</ele><time>2026-09-03T15:47:52Z</time></trkpt><trkpt lat="59.2275621369" lon="31.4440743998"><ele>62.14</ele><time>2026-09-03T15:47:54Z</time></trkpt><trkpt lat="59.2275632266" lon="31.4441152196"><ele>60.70</ele><time>2026-09-03T15:47:56Z</time></trkpt><trkpt lat="59.2275573593" lon="31.4441758208"><ele>58.78</ele><time>2026-09-03T15:48:02Z</time></trkpt><trkpt lat="59.2275724467" lon="31.4442432113"><ele>63.10</ele><time>2026-09-03T15:48:19Z</time></trkpt><trkpt lat="59.2275750451" lon="31.4442549460"><ele>63.58</ele><time>2026-09-03T15:48:20Z</time></trkpt><trkpt lat="59.2276025377" lon="31.4445131086"><ele>63.10</ele><time>2026-09-03T15:48:35Z</time></trkpt><trkpt lat="59.2276309524" lon="31.4447269309"><ele>62.62</ele><time>2026-09-03T15:48:46Z</time></trkpt><trkpt lat="59.2276252527" lon="31.4448797330"><ele>62.14</ele><time>2026-09-03T15:48:55Z</time></trkpt><trkpt lat="59.2276229896" lon="31.4449422620"><ele>60.70</ele><time>2026-09-03T15:48:58Z</time></trkpt><trkpt lat="59.2276382446" lon="31.4450644702"><ele>62.14</ele><time>2026-09-03T15:49:13Z</time></trkpt><trkpt lat="59.2276581936" lon="31.4452488720"><ele>60.70</ele><time>2026-09-03T15:49:28Z</time></trkpt><trkpt lat="59.2276504822" lon="31.4453224652"><ele>60.70</ele><time>2026-09-03T15:49:57Z</time></trkpt><trkpt lat="59.2276837584" lon="31.4452857524"><ele>60.22</ele><time>2026-09-03T15:50:19Z</time></trkpt><trkpt lat="59.2277115025" lon="31.4453699905"><ele>60.70</ele><time>2026-09-03T15:50:31Z</time></trkpt><trkpt lat="59.2277507298" lon="31.4454997424"><ele>59.26</ele><time>2026-09-03T15:50:42Z</time></trkpt><trkpt lat="59.2277578544" lon="31.4456681348"><ele>60.22</ele><time>2026-09-03T15:50:56Z</time></trkpt><trkpt lat="59.2277423479" lon="31.4456807077"><ele>58.30</ele><time>2026-09-03T15:51:04Z</time></trkpt><trkpt lat="59.2277692538" lon="31.4456888381"><ele>59.74</ele><time>2026-09-03T15:51:07Z</time></trkpt><trkpt lat="59.2277727742" lon="31.4458827954"><ele>58.30</ele><time>2026-09-03T15:51:21Z</time></trkpt><trkpt lat="59.2277860176" lon="31.4461077657"><ele>58.30</ele><time>2026-09-03T15:51:35Z</time></trkpt><trkpt lat="59.2277697567" lon="31.4463938400"><ele>59.26</ele><time>2026-09-03T15:51:51Z</time></trkpt><trkpt lat="59.2277581897" lon="31.4466143679"><ele>59.26</ele><time>2026-09-03T15:52:06Z</time></trkpt><trkpt lat="59.2277554236" lon="31.4468248375"><ele>59.74</ele><time>2026-09-03T15:52:19Z</time></trkpt><trkpt lat="59.2277707625" lon="31.4469392505"><ele>61.18</ele><time>2026-09-03T15:52:36Z</time></trkpt><trkpt lat="59.2277638055" lon="31.4470032882"><ele>62.14</ele><time>2026-09-03T15:53:01Z</time></trkpt><trkpt lat="59.2277712654" lon="31.4471491333"><ele>61.18</ele><time>2026-09-03T15:53:21Z</time></trkpt><trkpt lat="59.2277918849" lon="31.4473728463"><ele>60.70</ele><time>2026-09-03T15:53:34Z</time></trkpt><trkpt lat="59.2278016079" lon="31.4474371355"><ele>61.66</ele><time>2026-09-03T15:53:38Z</time></trkpt><trkpt lat="59.2278533243" lon="31.4475125726"><ele>64.07</ele><time>2026-09-03T15:53:50Z</time></trkpt><trkpt lat="59.2278659809" lon="31.4475562423"><ele>60.70</ele><time>2026-09-03T15:53:57Z</time></trkpt><trkpt lat="59.2279462796" lon="31.4476909395"><ele>57.34</ele><time>2026-09-03T15:54:09Z</time></trkpt><trkpt lat="59.2279551644" lon="31.4477005787"><ele>57.34</ele><time>2026-09-03T15:54:10Z</time></trkpt><trkpt lat="59.2279845849" lon="31.4477433264"><ele>60.70</ele><time>2026-09-03T15:54:14Z</time></trkpt><trkpt lat="59.2280499637" lon="31.4478729945"><ele>62.14</ele><time>2026-09-03T15:54:27Z</time></trkpt><trkpt lat="59.2280580103" lon="31.4478993975"><ele>61.18</ele><time>2026-09-03T15:54:41Z</time></trkpt><trkpt lat="59.2281129118" lon="31.4480228629"><ele>58.30</ele><time>2026-09-03T15:54:52Z</time></trkpt><trkpt lat="59.2281864211" lon="31.4481232781"><ele>59.74</ele><time>2026-09-03T15:55:07Z</time></trkpt><trkpt lat="59.2281974014" lon="31.4482209273"><ele>57.82</ele><time>2026-09-03T15:55:17Z</time></trkpt><trkpt lat="59.2282062024" lon="31.4482456539"><ele>59.26</ele><time>2026-09-03T15:55:28Z</time></trkpt><trkpt lat="59.2283099703" lon="31.4483778365"><ele>58.78</ele><time>2026-09-03T15:55:42Z</time></trkpt><trkpt lat="59.2283504549" lon="31.4484330732"><ele>57.82</ele><time>2026-09-03T15:55:47Z</time></trkpt><trkpt lat="59.2283921968" lon="31.4487103466"><ele>56.86</ele><time>2026-09-03T15:56:06Z</time></trkpt><trkpt lat="59.2284053564" lon="31.4487481490"><ele>54.93</ele><time>2026-09-03T15:56:20Z</time></trkpt><trkpt lat="59.2284051888" lon="31.4487447962"><ele>53.97</ele><time>2026-09-03T15:56:22Z</time></trkpt><trkpt lat="59.2284040991" lon="31.4487296250"><ele>59.26</ele><time>2026-09-03T15:56:28Z</time></trkpt><trkpt lat="59.2284077033" lon="31.4487191476"><ele>58.78</ele><time>2026-09-03T15:56:29Z</time></trkpt><trkpt lat="59.2284858227" lon="31.4486506674"><ele>57.82</ele><time>2026-09-03T15:56:36Z</time></trkpt><trkpt lat="59.2286076955" lon="31.4488677587"><ele>57.82</ele><time>2026-09-03T15:56:53Z</time></trkpt><trkpt lat="59.2286768463" lon="31.4490326308"><ele>57.82</ele><time>2026-09-03T15:57:06Z</time></trkpt><trkpt lat="59.2286890000" lon="31.4492351376"><ele>54.45</ele><time>2026-09-03T15:57:19Z</time></trkpt><trkpt lat="59.2286892515" lon="31.4492770471"><ele>57.82</ele><time>2026-09-03T15:57:21Z</time></trkpt><trkpt lat="59.2286829650" lon="31.4493216388"><ele>59.26</ele><time>2026-09-03T15:57:24Z</time></trkpt><trkpt lat="59.2286238726" lon="31.4494332019"><ele>59.74</ele><time>2026-09-03T15:57:37Z</time></trkpt><trkpt lat="59.2286237888" lon="31.4494361356"><ele>60.70</ele><time>2026-09-03T15:58:00Z</time></trkpt><trkpt lat="59.2286009900" lon="31.4493979141"><ele>58.78</ele><time>2026-09-03T15:58:09Z</time></trkpt><trkpt lat="59.2285978887" lon="31.4493993390"><ele>55.89</ele><time>2026-09-03T15:58:35Z</time></trkpt><trkpt lat="59.2285990622" lon="31.4493992552"><ele>55.89</ele><time>2026-09-03T15:58:36Z</time></trkpt><trkpt lat="59.2286024150" lon="31.4493988361"><ele>59.74</ele><time>2026-09-03T15:58:44Z</time></trkpt><trkpt lat="59.2286031693" lon="31.4494005125"><ele>59.74</ele><time>2026-09-03T15:58:45Z</time></trkpt><trkpt lat="59.2285731621" lon="31.4495486207"><ele>55.89</ele><time>2026-09-03T15:58:55Z</time></trkpt><trkpt lat="59.2285121419" lon="31.4495865069"><ele>55.41</ele><time>2026-09-03T15:59:08Z</time></trkpt><trkpt lat="59.2285132315" lon="31.4496207051"><ele>55.41</ele><time>2026-09-03T15:59:23Z</time></trkpt><trkpt lat="59.2285175063" lon="31.4496300090"><ele>55.41</ele><time>2026-09-03T15:59:24Z</time></trkpt><trkpt lat="59.2285490222" lon="31.4497087989"><ele>49.65</ele><time>2026-09-03T15:59:32Z</time></trkpt><trkpt lat="59.2285507824" lon="31.4497132413"><ele>58.30</ele><time>2026-09-03T15:59:33Z</time></trkpt><trkpt lat="59.2285520397" lon="31.4497191086"><ele>57.82</ele><time>2026-09-03T15:59:34Z</time></trkpt><trkpt lat="59.2285541352" lon="31.4497295022"><ele>56.86</ele><time>2026-09-03T15:59:36Z</time></trkpt><trkpt lat="59.2284579948" lon="31.4497462660"><ele>54.93</ele><time>2026-09-03T15:59:55Z</time></trkpt><trkpt lat="59.2284379620" lon="31.4497714955"><ele>54.45</ele><time>2026-09-03T16:00:14Z</time></trkpt><trkpt lat="59.2284698132" lon="31.4498277381"><ele>54.45</ele><time>2026-09-03T16:00:37Z</time></trkpt><trkpt lat="59.2284447514" lon="31.4499370381"><ele>54.93</ele><time>2026-09-03T16:00:48Z</time></trkpt><trkpt lat="59.2284267303" lon="31.4499614295"><ele>55.41</ele><time>2026-09-03T16:00:54Z</time></trkpt><trkpt lat="59.2284047697" lon="31.4500201866"><ele>56.86</ele><time>2026-09-03T16:01:09Z</time></trkpt><trkpt lat="59.2283806298" lon="31.4500921033"><ele>56.86</ele><time>2026-09-03T16:01:21Z</time></trkpt><trkpt lat="59.2284073681" lon="31.4501238707"><ele>57.34</ele><time>2026-09-03T16:01:45Z</time></trkpt><trkpt lat="59.2283973936" lon="31.4501178358"><ele>55.41</ele><time>2026-09-03T16:01:54Z</time></trkpt><trkpt lat="59.2283905204" lon="31.4501095377"><ele>56.37</ele><time>2026-09-03T16:02:00Z</time></trkpt><trkpt lat="59.2283754330" lon="31.4502371941"><ele>55.89</ele><time>2026-09-03T16:02:21Z</time></trkpt><trkpt lat="59.2283606809" lon="31.4502760023"><ele>55.89</ele><time>2026-09-03T16:02:27Z</time></trkpt><trkpt lat="59.2283083778" lon="31.4504656009"><ele>55.89</ele><time>2026-09-03T16:02:41Z</time></trkpt><trkpt lat="59.2282194458" lon="31.4505131263"><ele>56.86</ele><time>2026-09-03T16:02:56Z</time></trkpt><trkpt lat="59.2281745188" lon="31.4504311513"><ele>58.78</ele><time>2026-09-03T16:03:12Z</time></trkpt><trkpt lat="59.2281658016" lon="31.4504319895"><ele>59.74</ele><time>2026-09-03T16:03:27Z</time></trkpt><trkpt lat="59.2281388119" lon="31.4504087716"><ele>58.30</ele><time>2026-09-03T16:03:35Z</time></trkpt><trkpt lat="59.2281397339" lon="31.4502806123"><ele>59.26</ele><time>2026-09-03T16:03:49Z</time></trkpt><trkpt lat="59.2281752732" lon="31.4501811191"><ele>57.34</ele><time>2026-09-03T16:04:04Z</time></trkpt><trkpt lat="59.2281845771" lon="31.4501541294"><ele>59.74</ele><time>2026-09-03T16:04:07Z</time></trkpt><trkpt lat="59.2281725910" lon="31.4501391258"><ele>58.78</ele><time>2026-09-03T16:04:23Z</time></trkpt><trkpt lat="59.2281258199" lon="31.4501686301"><ele>60.70</ele><time>2026-09-03T16:04:57Z</time></trkpt><trkpt lat="59.2281490378" lon="31.4501551352"><ele>62.14</ele><time>2026-09-03T16:05:30Z</time></trkpt><trkpt lat="59.2282228824" lon="31.4501495194"><ele>63.58</ele><time>2026-09-03T16:05:57Z</time></trkpt><trkpt lat="59.2281466909" lon="31.4501154050"><ele>64.55</ele><time>2026-09-03T16:06:22Z</time></trkpt><trkpt lat="59.2281399015" lon="31.4501827117"><ele>65.51</ele><time>2026-09-03T16:06:49Z</time></trkpt><trkpt lat="59.2281062901" lon="31.4502095338"><ele>66.47</ele><time>2026-09-03T16:07:18Z</time></trkpt><trkpt lat="59.2281261552" lon="31.4501247928"><ele>67.43</ele><time>2026-09-03T16:07:54Z</time></trkpt><trkpt lat="59.2281510495" lon="31.4501920156"><ele>68.39</ele><time>2026-09-03T16:08:27Z</time></trkpt><trkpt lat="59.2281528935" lon="31.4501594100"><ele>69.35</ele><time>2026-09-03T16:08:57Z</time></trkpt><trkpt lat="59.2281468585" lon="31.4501436520"><ele>69.35</ele><time>2026-09-03T16:09:19Z</time></trkpt><trkpt lat="59.2281480320" lon="31.4501223620"><ele>63.10</ele><time>2026-09-03T16:09:21Z</time></trkpt><trkpt lat="59.2281519715" lon="31.4501132257"><ele>63.10</ele><time>2026-09-03T16:09:22Z</time></trkpt><trkpt lat="59.2281644605" lon="31.4500886668"><ele>68.39</ele><time>2026-09-03T16:09:26Z</time></trkpt><trkpt lat="59.2281686515" lon="31.4500884153"><ele>68.39</ele><time>2026-09-03T16:09:27Z</time></trkpt><trkpt lat="59.2281948030" lon="31.4498859085"><ele>67.43</ele><time>2026-09-03T16:09:44Z</time></trkpt><trkpt lat="59.2282020953" lon="31.4497800451"><ele>66.95</ele><time>2026-09-03T16:10:02Z</time></trkpt><trkpt lat="59.2282248940" lon="31.4499106351"><ele>65.51</ele><time>2026-09-03T16:10:21Z</time></trkpt><trkpt lat="59.2282157578" lon="31.4497486129"><ele>65.03</ele><time>2026-09-03T16:10:40Z</time></trkpt><trkpt lat="59.2282540631" lon="31.4494844154"><ele>63.10</ele><time>2026-09-03T16:10:56Z</time></trkpt><trkpt lat="59.2282712460" lon="31.4494237304"><ele>59.26</ele><time>2026-09-03T16:11:04Z</time></trkpt><trkpt lat="59.2282747664" lon="31.4494125824"><ele>59.74</ele><time>2026-09-03T16:11:05Z</time></trkpt><trkpt lat="59.2282243911" lon="31.4493247401"><ele>59.26</ele><time>2026-09-03T16:11:20Z</time></trkpt><trkpt lat="59.2281514686" lon="31.4492824115"><ele>58.78</ele><time>2026-09-03T16:11:32Z</time></trkpt><trkpt lat="59.2281212099" lon="31.4491846785"><ele>57.34</ele><time>2026-09-03T16:11:48Z</time></trkpt><trkpt lat="59.2280606925" lon="31.4490261767"><ele>56.37</ele><time>2026-09-03T16:12:02Z</time></trkpt><trkpt lat="59.2280372232" lon="31.4490467962"><ele>50.61</ele><time>2026-09-03T16:12:24Z</time></trkpt><trkpt lat="59.2280348763" lon="31.4490477182"><ele>50.61</ele><time>2026-09-03T16:12:25Z</time></trkpt><trkpt lat="59.2280281708" lon="31.4490502328"><ele>53.01</ele><time>2026-09-03T16:12:31Z</time></trkpt><trkpt lat="59.2280168552" lon="31.4489856921"><ele>50.61</ele><time>2026-09-03T16:12:58Z</time></trkpt><trkpt lat="59.2279902846" lon="31.4488075767"><ele>49.65</ele><time>2026-09-03T16:13:10Z</time></trkpt><trkpt lat="59.2278752849" lon="31.4487349894"><ele>48.68</ele><time>2026-09-03T16:13:25Z</time></trkpt><trkpt lat="59.2278388236" lon="31.4487706963"><ele>43.88</ele><time>2026-09-03T16:13:36Z</time></trkpt><trkpt lat="59.2278261669" lon="31.4487786591"><ele>48.20</ele><time>2026-09-03T16:13:40Z</time></trkpt><trkpt lat="59.2278205510" lon="31.4487732109"><ele>48.20</ele><time>2026-09-03T16:13:41Z</time></trkpt><trkpt lat="59.2277021986" lon="31.4488485642"><ele>46.76</ele><time>2026-09-03T16:13:57Z</time></trkpt><trkpt lat="59.2276809923" lon="31.4488745481"><ele>45.32</ele><time>2026-09-03T16:14:00Z</time></trkpt><trkpt lat="59.2276698444" lon="31.4489405975"><ele>47.72</ele><time>2026-09-03T16:14:10Z</time></trkpt><trkpt lat="59.2275897972" lon="31.4488798287"><ele>44.84</ele><time>2026-09-03T16:14:25Z</time></trkpt><trkpt lat="59.2275674175" lon="31.4488752186"><ele>43.40</ele><time>2026-09-03T16:14:30Z</time></trkpt><trkpt lat="59.2275637295" lon="31.4488929044"><ele>46.76</ele><time>2026-09-03T16:14:37Z</time></trkpt><trkpt lat="59.2275605444" lon="31.4488972630"><ele>46.28</ele><time>2026-09-03T16:14:38Z</time></trkpt><trkpt lat="59.2274903879" lon="31.4489664137"><ele>45.32</ele><time>2026-09-03T16:14:49Z</time></trkpt><trkpt lat="59.2274178006" lon="31.4490239974"><ele>44.84</ele><time>2026-09-03T16:15:03Z</time></trkpt><trkpt lat="59.2273392621" lon="31.4489879552"><ele>44.36</ele><time>2026-09-03T16:15:15Z</time></trkpt><trkpt lat="59.2273091711" lon="31.4490004443"><ele>43.40</ele><time>2026-09-03T16:15:20Z</time></trkpt><trkpt lat="59.2272591311" lon="31.4490805753"><ele>43.88</ele><time>2026-09-03T16:15:36Z</time></trkpt><trkpt lat="59.2271938361" lon="31.4490784798"><ele>44.36</ele><time>2026-09-03T16:15:52Z</time></trkpt><trkpt lat="59.2271519266" lon="31.4490006119"><ele>43.40</ele><time>2026-09-03T16:16:01Z</time></trkpt><trkpt lat="59.2271056585" lon="31.4489725325"><ele>42.92</ele><time>2026-09-03T16:16:10Z</time></trkpt><trkpt lat="59.2270829435" lon="31.4489766397"><ele>40.99</ele><time>2026-09-03T16:16:13Z</time></trkpt><trkpt lat="59.2270638328" lon="31.4489425253"><ele>42.92</ele><time>2026-09-03T16:16:18Z</time></trkpt><trkpt lat="59.2269916646" lon="31.4488231670"><ele>42.44</ele><time>2026-09-03T16:16:33Z</time></trkpt><trkpt lat="59.2269238550" lon="31.4488437865"><ele>43.40</ele><time>2026-09-03T16:16:46Z</time></trkpt><trkpt lat="59.2268562969" lon="31.4488790743"><ele>41.47</ele><time>2026-09-03T16:17:02Z</time></trkpt><trkpt lat="59.2267642636" lon="31.4488967601"><ele>41.47</ele><time>2026-09-03T16:17:18Z</time></trkpt><trkpt lat="59.2266652733" lon="31.4488628972"><ele>43.88</ele><time>2026-09-03T16:17:31Z</time></trkpt><trkpt lat="59.2266450729" lon="31.4488965925"><ele>41.47</ele><time>2026-09-03T16:17:35Z</time></trkpt><trkpt lat="59.2266184185" lon="31.4488690160"><ele>43.40</ele><time>2026-09-03T16:17:51Z</time></trkpt><trkpt lat="59.2264927737" lon="31.4488833491"><ele>40.03</ele><time>2026-09-03T16:18:11Z</time></trkpt><trkpt lat="59.2263353616" lon="31.4488264360"><ele>42.44</ele><time>2026-09-03T16:18:28Z</time></trkpt><trkpt lat="59.2262641154" lon="31.4488153718"><ele>40.99</ele><time>2026-09-03T16:18:37Z</time></trkpt><trkpt lat="59.2262530513" lon="31.4487958420"><ele>42.92</ele><time>2026-09-03T16:18:42Z</time></trkpt><trkpt lat="59.2261978146" lon="31.4488302916"><ele>41.95</ele><time>2026-09-03T16:18:56Z</time></trkpt><trkpt lat="59.2261289991" lon="31.4488103427"><ele>40.03</ele><time>2026-09-03T16:19:05Z</time></trkpt><trkpt lat="59.2260869220" lon="31.4487557765"><ele>37.63</ele><time>2026-09-03T16:19:10Z</time></trkpt><trkpt lat="59.2260670569" lon="31.4487569500"><ele>41.47</ele><time>2026-09-03T16:19:15Z</time></trkpt><trkpt lat="59.2260550708" lon="31.4487414435"><ele>42.92</ele><time>2026-09-03T16:19:17Z</time></trkpt><trkpt lat="59.2260418274" lon="31.4487370849"><ele>44.84</ele><time>2026-09-03T16:19:19Z</time></trkpt><trkpt lat="59.2259539012" lon="31.4487018809"><ele>40.99</ele><time>2026-09-03T16:19:33Z</time></trkpt><trkpt lat="59.2259407416" lon="31.4486914035"><ele>40.99</ele><time>2026-09-03T16:19:34Z</time></trkpt><trkpt lat="59.2258402426" lon="31.4487453829"><ele>39.55</ele><time>2026-09-03T16:19:52Z</time></trkpt><trkpt lat="59.2257691640" lon="31.4487072453"><ele>39.07</ele><time>2026-09-03T16:20:07Z</time></trkpt><trkpt lat="59.2257601954" lon="31.4487171359"><ele>38.59</ele><time>2026-09-03T16:20:32Z</time></trkpt><trkpt lat="59.2256539967" lon="31.4487713668"><ele>38.11</ele><time>2026-09-03T16:21:02Z</time></trkpt><trkpt lat="59.2257047910" lon="31.4486846980"><ele>34.74</ele><time>2026-09-03T16:21:22Z</time></trkpt><trkpt lat="59.2257109098" lon="31.4486803394"><ele>34.74</ele><time>2026-09-03T16:21:23Z</time></trkpt><trkpt lat="59.2257213034" lon="31.4486748911"><ele>38.59</ele><time>2026-09-03T16:21:29Z</time></trkpt><trkpt lat="59.2257203814" lon="31.4486785792"><ele>38.59</ele><time>2026-09-03T16:21:30Z</time></trkpt><trkpt lat="59.2257252429" lon="31.4486637432"><ele>35.23</ele><time>2026-09-03T16:21:47Z</time></trkpt><trkpt lat="59.2257247400" lon="31.4486666769"><ele>36.19</ele><time>2026-09-03T16:21:48Z</time></trkpt><trkpt lat="59.2257176153" lon="31.4486595523"><ele>37.63</ele><time>2026-09-03T16:21:50Z</time></trkpt><trkpt lat="59.2257001810" lon="31.4486311376"><ele>37.15</ele><time>2026-09-03T16:21:55Z</time></trkpt><trkpt lat="59.2256798130" lon="31.4486775734"><ele>33.78</ele><time>2026-09-03T16:22:05Z</time></trkpt><trkpt lat="59.2256804835" lon="31.4487032220"><ele>37.63</ele><time>2026-09-03T16:22:06Z</time></trkpt><trkpt lat="59.2256596126" lon="31.4487230871"><ele>30.90</ele><time>2026-09-03T16:22:14Z</time></trkpt><trkpt lat="59.2256632168" lon="31.4487008750"><ele>32.82</ele><time>2026-09-03T16:22:15Z</time></trkpt><trkpt lat="59.2256643903" lon="31.4486717898"><ele>36.19</ele><time>2026-09-03T16:22:18Z</time></trkpt><trkpt lat="59.2256311141" lon="31.4486313891"><ele>32.82</ele><time>2026-09-03T16:22:23Z</time></trkpt><trkpt lat="59.2256235704" lon="31.4486254379"><ele>32.82</ele><time>2026-09-03T16:22:24Z</time></trkpt><trkpt lat="59.2255993467" lon="31.4486126136"><ele>35.23</ele><time>2026-09-03T16:22:28Z</time></trkpt><trkpt lat="59.2254849337" lon="31.4486994501"><ele>33.78</ele><time>2026-09-03T16:22:42Z</time></trkpt><trkpt lat="59.2254003603" lon="31.4486128651"><ele>33.30</ele><time>2026-09-03T16:22:57Z</time></trkpt><trkpt lat="59.2252444569" lon="31.4487030543"><ele>32.34</ele><time>2026-09-03T16:23:13Z</time></trkpt><trkpt lat="59.2251218297" lon="31.4487122744"><ele>31.86</ele><time>2026-09-03T16:23:27Z</time></trkpt><trkpt lat="59.2249793373" lon="31.4487915672"><ele>30.90</ele><time>2026-09-03T16:23:42Z</time></trkpt><trkpt lat="59.2248522677" lon="31.4488500729"><ele>29.94</ele><time>2026-09-03T16:23:58Z</time></trkpt><trkpt lat="59.2248052452" lon="31.4488398470"><ele>31.38</ele><time>2026-09-03T16:24:12Z</time></trkpt><trkpt lat="59.2246757448" lon="31.4488518331"><ele>29.46</ele><time>2026-09-03T16:24:29Z</time></trkpt><trkpt lat="59.2246094439" lon="31.4488516655"><ele>28.50</ele><time>2026-09-03T16:24:42Z</time></trkpt><trkpt lat="59.2245897464" lon="31.4488314651"><ele>31.86</ele><time>2026-09-03T16:24:52Z</time></trkpt><trkpt lat="59.2245639302" lon="31.4488634001"><ele>28.98</ele><time>2026-09-03T16:25:04Z</time></trkpt><trkpt lat="59.2245284747" lon="31.4489006996"><ele>27.53</ele><time>2026-09-03T16:25:13Z</time></trkpt><trkpt lat="59.2245053407" lon="31.4488773141"><ele>30.90</ele><time>2026-09-03T16:25:24Z</time></trkpt><trkpt lat="59.2244903371" lon="31.4488346502"><ele>27.05</ele><time>2026-09-03T16:25:32Z</time></trkpt><trkpt lat="59.2243994772" lon="31.4487354923"><ele>28.02</ele><time>2026-09-03T16:25:51Z</time></trkpt><trkpt lat="59.2243374512" lon="31.4487680979"><ele>24.65</ele><time>2026-09-03T16:26:01Z</time></trkpt><trkpt lat="59.2243294884" lon="31.4487690199"><ele>28.50</ele><time>2026-09-03T16:26:03Z</time></trkpt><trkpt lat="59.2243193462" lon="31.4487566985"><ele>29.94</ele><time>2026-09-03T16:26:05Z</time></trkpt><trkpt lat="59.2242992297" lon="31.4487604704"><ele>28.02</ele><time>2026-09-03T16:26:09Z</time></trkpt><trkpt lat="59.2242817115" lon="31.4487715345"><ele>20.32</ele><time>2026-09-03T16:26:12Z</time></trkpt><trkpt lat="59.2242751736" lon="31.4487769827"><ele>21.29</ele><time>2026-09-03T16:26:13Z</time></trkpt><trkpt lat="59.2242330965" lon="31.4488017093"><ele>27.53</ele><time>2026-09-03T16:26:20Z</time></trkpt><trkpt lat="59.2242198531" lon="31.4487952553"><ele>28.50</ele><time>2026-09-03T16:26:22Z</time></trkpt><trkpt lat="59.2241447512" lon="31.4486992825"><ele>25.61</ele><time>2026-09-03T16:26:33Z</time></trkpt><trkpt lat="59.2241359502" lon="31.4487035573"><ele>25.61</ele><time>2026-09-03T16:26:34Z</time></trkpt><trkpt lat="59.2240588367" lon="31.4487547707"><ele>25.61</ele><time>2026-09-03T16:26:50Z</time></trkpt><trkpt lat="59.2239650432" lon="31.4487278648"><ele>27.05</ele><time>2026-09-03T16:27:08Z</time></trkpt><trkpt lat="59.2239573319" lon="31.4487247635"><ele>23.69</ele><time>2026-09-03T16:27:09Z</time></trkpt><trkpt lat="59.2239269055" lon="31.4487108495"><ele>27.53</ele><time>2026-09-03T16:27:12Z</time></trkpt><trkpt lat="59.2239176016" lon="31.4487017971"><ele>27.05</ele><time>2026-09-03T16:27:13Z</time></trkpt><trkpt lat="59.2238499597" lon="31.4487571176"><ele>25.13</ele><time>2026-09-03T16:27:19Z</time></trkpt><trkpt lat="59.2238078825" lon="31.4487820119"><ele>26.57</ele><time>2026-09-03T16:27:29Z</time></trkpt><trkpt lat="59.2238098942" lon="31.4488553535"><ele>26.57</ele><time>2026-09-03T16:27:50Z</time></trkpt><trkpt lat="59.2237986624" lon="31.4486587979"><ele>24.65</ele><time>2026-09-03T16:28:11Z</time></trkpt><trkpt lat="59.2237102333" lon="31.4486190677"><ele>26.09</ele><time>2026-09-03T16:28:23Z</time></trkpt><trkpt lat="59.2235928029" lon="31.4487093408"><ele>23.21</ele><time>2026-09-03T16:28:38Z</time></trkpt><trkpt lat="59.2235434335" lon="31.4487185609"><ele>26.57</ele><time>2026-09-03T16:28:44Z</time></trkpt><trkpt lat="59.2235389072" lon="31.4487182256"><ele>26.09</ele><time>2026-09-03T16:28:45Z</time></trkpt><trkpt lat="59.2234461196" lon="31.4487111848"><ele>20.81</ele><time>2026-09-03T16:29:01Z</time></trkpt><trkpt lat="59.2234390788" lon="31.4487085026"><ele>21.29</ele><time>2026-09-03T16:29:02Z</time></trkpt><trkpt lat="59.2234321218" lon="31.4487044793"><ele>24.65</ele><time>2026-09-03T16:29:03Z</time></trkpt><trkpt lat="59.2234269250" lon="31.4487027191"><ele>24.17</ele><time>2026-09-03T16:29:04Z</time></trkpt><trkpt lat="59.2234322894" lon="31.4487040602"><ele>25.61</ele><time>2026-09-03T16:29:07Z</time></trkpt><trkpt lat="59.2234356422" lon="31.4487593807"><ele>23.69</ele><time>2026-09-03T16:29:12Z</time></trkpt><trkpt lat="59.2234379891" lon="31.4487825148"><ele>25.61</ele><time>2026-09-03T16:29:15Z</time></trkpt><trkpt lat="59.2234082334" lon="31.4488831814"><ele>25.13</ele><time>2026-09-03T16:29:27Z</time></trkpt><trkpt lat="59.2233620491" lon="31.4489133563"><ele>24.65</ele><time>2026-09-03T16:29:46Z</time></trkpt><trkpt lat="59.2233459558" lon="31.4488835167"><ele>21.29</ele><time>2026-09-03T16:29:50Z</time></trkpt><trkpt lat="59.2233431898" lon="31.4488797449"><ele>21.77</ele><time>2026-09-03T16:29:51Z</time></trkpt><trkpt lat="59.2233393341" lon="31.4488622267"><ele>23.69</ele><time>2026-09-03T16:29:56Z</time></trkpt><trkpt lat="59.2232768051" lon="31.4488829300"><ele>26.09</ele><time>2026-09-03T16:30:16Z</time></trkpt><trkpt lat="59.2232136056" lon="31.4489285275"><ele>27.05</ele><time>2026-09-03T16:30:35Z</time></trkpt><trkpt lat="59.2231701873" lon="31.4488304593"><ele>24.65</ele><time>2026-09-03T16:30:49Z</time></trkpt><trkpt lat="59.2231412698" lon="31.4488411881"><ele>27.53</ele><time>2026-09-03T16:30:53Z</time></trkpt><trkpt lat="59.2231212370" lon="31.4488350693"><ele>20.32</ele><time>2026-09-03T16:30:56Z</time></trkpt><trkpt lat="59.2231141124" lon="31.4488258492"><ele>26.57</ele><time>2026-09-03T16:30:57Z</time></trkpt><trkpt lat="59.2230008729" lon="31.4487292897"><ele>26.57</ele><time>2026-09-03T16:31:14Z</time></trkpt><trkpt lat="59.2229547724" lon="31.4487907290"><ele>24.17</ele><time>2026-09-03T16:31:37Z</time></trkpt><trkpt lat="59.2228598893" lon="31.4486864582"><ele>24.17</ele><time>2026-09-03T16:31:54Z</time></trkpt><trkpt lat="59.2228255235" lon="31.4485744759"><ele>24.65</ele><time>2026-09-03T16:32:10Z</time></trkpt><trkpt lat="59.2228088435" lon="31.4485847857"><ele>26.09</ele><time>2026-09-03T16:32:12Z</time></trkpt><trkpt lat="59.2227758188" lon="31.4486029744"><ele>23.21</ele><time>2026-09-03T16:32:15Z</time></trkpt><trkpt lat="59.2227132898" lon="31.4487276133"><ele>23.69</ele><time>2026-09-03T16:32:28Z</time></trkpt><trkpt lat="59.2226282135" lon="31.4487285353"><ele>23.69</ele><time>2026-09-03T16:32:43Z</time></trkpt><trkpt lat="59.2225978710" lon="31.4487134479"><ele>26.57</ele><time>2026-09-03T16:32:52Z</time></trkpt><trkpt lat="59.2224995513" lon="31.4487603027"><ele>23.21</ele><time>2026-09-03T16:33:09Z</time></trkpt><trkpt lat="59.2224182468" lon="31.4487915672"><ele>24.65</ele><time>2026-09-03T16:33:25Z</time></trkpt><trkpt lat="59.2223691288" lon="31.4487497415"><ele>24.17</ele><time>2026-09-03T16:33:35Z</time></trkpt><trkpt lat="59.2222939432" lon="31.4486835245"><ele>28.50</ele><time>2026-09-03T16:33:50Z</time></trkpt><trkpt lat="59.2222939432" lon="31.4486822672"><ele>25.13</ele><time>2026-09-03T16:33:51Z</time></trkpt><trkpt lat="59.2222930212" lon="31.4486805070"><ele>27.53</ele><time>2026-09-03T16:34:19Z</time></trkpt><trkpt lat="59.2223268840" lon="31.4486515056"><ele>25.61</ele><time>2026-09-03T16:34:37Z</time></trkpt><trkpt lat="59.2222491000" lon="31.4485481568"><ele>27.05</ele><time>2026-09-03T16:34:54Z</time></trkpt><trkpt lat="59.2222299892" lon="31.4485483244"><ele>25.13</ele><time>2026-09-03T16:34:56Z</time></trkpt><trkpt lat="59.2221476790" lon="31.4486931637"><ele>23.69</ele><time>2026-09-03T16:35:10Z</time></trkpt><trkpt lat="59.2220937833" lon="31.4487482328"><ele>27.05</ele><time>2026-09-03T16:35:19Z</time></trkpt><trkpt lat="59.2220561486" lon="31.4486830216"><ele>25.61</ele><time>2026-09-03T16:35:40Z</time></trkpt><trkpt lat="59.2220439948" lon="31.4486603066"><ele>24.17</ele><time>2026-09-03T16:35:42Z</time></trkpt><trkpt lat="59.2219963856" lon="31.4486205764"><ele>23.69</ele><time>2026-09-03T16:35:54Z</time></trkpt><trkpt lat="59.2219802924" lon="31.4486298803"><ele>25.13</ele><time>2026-09-03T16:35:59Z</time></trkpt><trkpt lat="59.2218108941" lon="31.4486781601"><ele>24.17</ele><time>2026-09-03T16:36:16Z</time></trkpt><trkpt lat="59.2216620315" lon="31.4487598836"><ele>23.21</ele><time>2026-09-03T16:36:33Z</time></trkpt><trkpt lat="59.2215623707" lon="31.4488375001"><ele>25.13</ele><time>2026-09-03T16:36:46Z</time></trkpt><trkpt lat="59.2215240654" lon="31.4488518331"><ele>26.57</ele><time>2026-09-03T16:36:55Z</time></trkpt><trkpt lat="59.2215119116" lon="31.4488448761"><ele>25.61</ele><time>2026-09-03T16:36:57Z</time></trkpt><trkpt lat="59.2213855963" lon="31.4487812575"><ele>25.61</ele><time>2026-09-03T16:37:11Z</time></trkpt><trkpt lat="59.2213726882" lon="31.4487686846"><ele>24.17</ele><time>2026-09-03T16:37:15Z</time></trkpt><trkpt lat="59.2213734426" lon="31.4487815090"><ele>26.09</ele><time>2026-09-03T16:37:22Z</time></trkpt><trkpt lat="59.2213278450" lon="31.4487068262"><ele>24.17</ele><time>2026-09-03T16:37:34Z</time></trkpt><trkpt lat="59.2212900426" lon="31.4486350771"><ele>24.65</ele><time>2026-09-03T16:37:46Z</time></trkpt><trkpt lat="59.2212819122" lon="31.4486035611"><ele>23.21</ele><time>2026-09-03T16:37:50Z</time></trkpt><trkpt lat="59.2211866938" lon="31.4485645015"><ele>23.69</ele><time>2026-09-03T16:38:05Z</time></trkpt><trkpt lat="59.2210793216" lon="31.4485050738"><ele>23.69</ele><time>2026-09-03T16:38:21Z</time></trkpt><trkpt lat="59.2210265156" lon="31.4485251065"><ele>23.21</ele><time>2026-09-03T16:38:30Z</time></trkpt><trkpt lat="59.2209103424" lon="31.4485301357"><ele>24.65</ele><time>2026-09-03T16:38:45Z</time></trkpt><trkpt lat="59.2208078317" lon="31.4485802595"><ele>25.13</ele><time>2026-09-03T16:38:59Z</time></trkpt><trkpt lat="59.2207090091" lon="31.4486489072"><ele>22.73</ele><time>2026-09-03T16:39:09Z</time></trkpt><trkpt lat="59.2206702009" lon="31.4486263599"><ele>25.13</ele><time>2026-09-03T16:39:14Z</time></trkpt><trkpt lat="59.2205857113" lon="31.4486805908"><ele>24.65</ele><time>2026-09-03T16:39:26Z</time></trkpt><trkpt lat="59.2204614077" lon="31.4486203250"><ele>24.65</ele><time>2026-09-03T16:39:40Z</time></trkpt><trkpt lat="59.2203793488" lon="31.4485932514"><ele>24.65</ele><time>2026-09-03T16:39:53Z</time></trkpt><trkpt lat="59.2202773411" lon="31.4485586341"><ele>26.09</ele><time>2026-09-03T16:40:06Z</time></trkpt><trkpt lat="59.2202735692" lon="31.4485451393"><ele>22.73</ele><time>2026-09-03T16:40:10Z</time></trkpt><trkpt lat="59.2202732340" lon="31.4485450555"><ele>23.21</ele><time>2026-09-03T16:40:11Z</time></trkpt><trkpt lat="59.2202689592" lon="31.4485064987"><ele>25.61</ele><time>2026-09-03T16:40:14Z</time></trkpt><trkpt lat="59.2202294804" lon="31.4483952709"><ele>24.17</ele><time>2026-09-03T16:40:28Z</time></trkpt><trkpt lat="59.2202314921" lon="31.4483937621"><ele>26.57</ele><time>2026-09-03T16:40:32Z</time></trkpt><trkpt lat="59.2201834638" lon="31.4483573847"><ele>26.09</ele><time>2026-09-03T16:40:45Z</time></trkpt><trkpt lat="59.2201289814" lon="31.4484645054"><ele>26.57</ele><time>2026-09-03T16:40:58Z</time></trkpt><trkpt lat="59.2201061826" lon="31.4485030621"><ele>21.77</ele><time>2026-09-03T16:41:06Z</time></trkpt><trkpt lat="59.2201093677" lon="31.4485012181"><ele>26.57</ele><time>2026-09-03T16:41:07Z</time></trkpt><trkpt lat="59.2201164085" lon="31.4485468157"><ele>22.25</ele><time>2026-09-03T16:41:12Z</time></trkpt><trkpt lat="59.2201131396" lon="31.4485570416"><ele>22.25</ele><time>2026-09-03T16:41:13Z</time></trkpt><trkpt lat="59.2201055121" lon="31.4485664293"><ele>26.09</ele><time>2026-09-03T16:41:15Z</time></trkpt><trkpt lat="59.2200819589" lon="31.4486021362"><ele>28.98</ele><time>2026-09-03T16:41:26Z</time></trkpt><trkpt lat="59.2200739123" lon="31.4486662578"><ele>32.82</ele><time>2026-09-03T16:41:38Z</time></trkpt><trkpt lat="59.2200756725" lon="31.4486694429"><ele>32.34</ele><time>2026-09-03T16:41:39Z</time></trkpt><trkpt lat="59.2200804502" lon="31.4487340674"><ele>29.94</ele><time>2026-09-03T16:41:50Z</time></trkpt><trkpt lat="59.2200472578" lon="31.4487695228"><ele>32.34</ele><time>2026-09-03T16:42:01Z</time></trkpt><trkpt lat="59.2200465035" lon="31.4487617277"><ele>32.34</ele><time>2026-09-03T16:42:02Z</time></trkpt><trkpt lat="59.2200365290" lon="31.4487473946"><ele>34.26</ele><time>2026-09-03T16:42:16Z</time></trkpt><trkpt lat="59.2200351041" lon="31.4487676788"><ele>28.98</ele><time>2026-09-03T16:42:25Z</time></trkpt><trkpt lat="59.2200340144" lon="31.4487776533"><ele>36.19</ele><time>2026-09-03T16:42:26Z</time></trkpt><trkpt lat="59.2200339306" lon="31.4487872086"><ele>36.67</ele><time>2026-09-03T16:42:27Z</time></trkpt><trkpt lat="59.2200407200" lon="31.4488705248"><ele>37.15</ele><time>2026-09-03T16:42:34Z</time></trkpt><trkpt lat="59.2200527061" lon="31.4489948284"><ele>38.59</ele><time>2026-09-03T16:42:46Z</time></trkpt><trkpt lat="59.2200271413" lon="31.4490395039"><ele>40.99</ele><time>2026-09-03T16:43:06Z</time></trkpt><trkpt lat="59.2200236209" lon="31.4490508195"><ele>44.36</ele><time>2026-09-03T16:43:24Z</time></trkpt><trkpt lat="59.2200268898" lon="31.4490321279"><ele>47.24</ele><time>2026-09-03T16:43:37Z</time></trkpt><trkpt lat="59.2200301588" lon="31.4489783160"><ele>45.32</ele><time>2026-09-03T16:43:41Z</time></trkpt><trkpt lat="59.2200195976" lon="31.4489792380"><ele>48.20</ele><time>2026-09-03T16:43:50Z</time></trkpt><trkpt lat="59.2199455854" lon="31.4489916433"><ele>49.65</ele><time>2026-09-03T16:43:58Z</time></trkpt><trkpt lat="59.2198510375" lon="31.4489740413"><ele>50.13</ele><time>2026-09-03T16:44:10Z</time></trkpt><trkpt lat="59.2197665479" lon="31.4489550143"><ele>51.09</ele><time>2026-09-03T16:44:22Z</time></trkpt><trkpt lat="59.2196517158" lon="31.4489565231"><ele>50.13</ele><time>2026-09-03T16:44:35Z</time></trkpt><trkpt lat="59.2196304258" lon="31.4489535056"><ele>50.13</ele><time>2026-09-03T16:44:37Z</time></trkpt><trkpt lat="59.2195875105" lon="31.4489659946"><ele>52.53</ele><time>2026-09-03T16:44:42Z</time></trkpt><trkpt lat="59.2194734327" lon="31.4489511587"><ele>53.97</ele><time>2026-09-03T16:44:55Z</time></trkpt><trkpt lat="59.2193160206" lon="31.4489301201"><ele>55.41</ele><time>2026-09-03T16:45:13Z</time></trkpt><trkpt lat="59.2192130070" lon="31.4489142783"><ele>56.86</ele><time>2026-09-03T16:45:26Z</time></trkpt><trkpt lat="59.2190645635" lon="31.4489278570"><ele>58.78</ele><time>2026-09-03T16:45:42Z</time></trkpt><trkpt lat="59.2190229055" lon="31.4489115961"><ele>57.82</ele><time>2026-09-03T16:45:49Z</time></trkpt><trkpt lat="59.2190280184" lon="31.4489167929"><ele>61.18</ele><time>2026-09-03T16:45:54Z</time></trkpt><trkpt lat="59.2189421877" lon="31.4489168767"><ele>63.10</ele><time>2026-09-03T16:46:12Z</time></trkpt><trkpt lat="59.2188061494" lon="31.4489182178"><ele>62.62</ele><time>2026-09-03T16:46:28Z</time></trkpt><trkpt lat="59.2187779024" lon="31.4489241689"><ele>62.62</ele><time>2026-09-03T16:46:40Z</time></trkpt><trkpt lat="59.2187746335" lon="31.4489242528"><ele>63.58</ele><time>2026-09-03T16:46:52Z</time></trkpt><trkpt lat="59.2187481467" lon="31.4489239175"><ele>66.95</ele><time>2026-09-03T16:47:02Z</time></trkpt><trkpt lat="59.2186999507" lon="31.4489363227"><ele>65.51</ele><time>2026-09-03T16:47:08Z</time></trkpt><trkpt lat="59.2186497431" lon="31.4489245880"><ele>65.99</ele><time>2026-09-03T16:47:13Z</time></trkpt><trkpt lat="59.2185791675" lon="31.4489233308"><ele>66.47</ele><time>2026-09-03T16:47:21Z</time></trkpt><trkpt lat="59.2184389383" lon="31.4488706086"><ele>68.39</ele><time>2026-09-03T16:47:35Z</time></trkpt><trkpt lat="59.2182536144" lon="31.4488679264"><ele>68.39</ele><time>2026-09-03T16:47:54Z</time></trkpt><trkpt lat="59.2180937715" lon="31.4488521684"><ele>67.91</ele><time>2026-09-03T16:48:13Z</time></trkpt><trkpt lat="59.2179486807" lon="31.4488510787"><ele>67.43</ele><time>2026-09-03T16:48:29Z</time></trkpt><trkpt lat="59.2177745048" lon="31.4488294534"><ele>66.95</ele><time>2026-09-03T16:48:49Z</time></trkpt><trkpt lat="59.2176139913" lon="31.4488379192"><ele>66.95</ele><time>2026-09-03T16:49:07Z</time></trkpt><trkpt lat="59.2174655478" lon="31.4488286152"><ele>66.47</ele><time>2026-09-03T16:49:25Z</time></trkpt><trkpt lat="59.2172864266" lon="31.4488224965"><ele>66.47</ele><time>2026-09-03T16:49:45Z</time></trkpt><trkpt lat="59.2171932198" lon="31.4487676788"><ele>65.99</ele><time>2026-09-03T16:49:58Z</time></trkpt><trkpt lat="59.2172118276" lon="31.4484771620"><ele>65.51</ele><time>2026-09-03T16:50:15Z</time></trkpt><trkpt lat="59.2172181979" lon="31.4481642656"><ele>65.51</ele><time>2026-09-03T16:50:33Z</time></trkpt><trkpt lat="59.2172091454" lon="31.4480862301"><ele>62.14</ele><time>2026-09-03T16:50:37Z</time></trkpt><trkpt lat="59.2172073852" lon="31.4480695501"><ele>62.14</ele><time>2026-09-03T16:50:38Z</time></trkpt><trkpt lat="59.2172125820" lon="31.4478499442"><ele>63.58</ele><time>2026-09-03T16:50:51Z</time></trkpt><trkpt lat="59.2172101513" lon="31.4477428235"><ele>64.07</ele><time>2026-09-03T16:50:58Z</time></trkpt><trkpt lat="59.2172169406" lon="31.4476276562"><ele>62.62</ele><time>2026-09-03T16:51:04Z</time></trkpt><trkpt lat="59.2172233108" lon="31.4473601058"><ele>61.18</ele><time>2026-09-03T16:51:19Z</time></trkpt><trkpt lat="59.2172234785" lon="31.4473420009"><ele>64.55</ele><time>2026-09-03T16:51:20Z</time></trkpt><trkpt lat="59.2172239814" lon="31.4473241474"><ele>64.55</ele><time>2026-09-03T16:51:21Z</time></trkpt><trkpt lat="59.2172275018" lon="31.4470812399"><ele>62.14</ele><time>2026-09-03T16:51:37Z</time></trkpt><trkpt lat="59.2172342911" lon="31.4469896257"><ele>61.18</ele><time>2026-09-03T16:51:42Z</time></trkpt><trkpt lat="59.2172288429" lon="31.4469040465"><ele>60.22</ele><time>2026-09-03T16:51:47Z</time></trkpt><trkpt lat="59.2172302678" lon="31.4466288686"><ele>60.22</ele><time>2026-09-03T16:52:03Z</time></trkpt><trkpt lat="59.2172424216" lon="31.4464951772"><ele>54.45</ele><time>2026-09-03T16:52:20Z</time></trkpt><trkpt lat="59.2172428407" lon="31.4464771561"><ele>57.34</ele><time>2026-09-03T16:52:21Z</time></trkpt><trkpt lat="59.2172263283" lon="31.4462308120"><ele>56.37</ele><time>2026-09-03T16:52:37Z</time></trkpt><trkpt lat="59.2172396556" lon="31.4461212605"><ele>57.82</ele><time>2026-09-03T16:52:44Z</time></trkpt><trkpt lat="59.2172375601" lon="31.4460673649"><ele>60.70</ele><time>2026-09-03T16:52:47Z</time></trkpt><trkpt lat="59.2172465287" lon="31.4459564723"><ele>53.49</ele><time>2026-09-03T16:53:02Z</time></trkpt><trkpt lat="59.2172466125" lon="31.4459537063"><ele>52.05</ele><time>2026-09-03T16:53:04Z</time></trkpt><trkpt lat="59.2172400746" lon="31.4457180072"><ele>52.05</ele><time>2026-09-03T16:53:20Z</time></trkpt><trkpt lat="59.2172501329" lon="31.4454652090"><ele>52.05</ele><time>2026-09-03T16:53:36Z</time></trkpt><trkpt lat="59.2172549944" lon="31.4451762009"><ele>51.09</ele><time>2026-09-03T16:53:53Z</time></trkpt><trkpt lat="59.2173672281" lon="31.4451887738"><ele>50.13</ele><time>2026-09-03T16:54:07Z</time></trkpt><trkpt lat="59.2173837405" lon="31.4451961499"><ele>48.20</ele><time>2026-09-03T16:54:09Z</time></trkpt><trkpt lat="59.2174015101" lon="31.4451953955"><ele>49.16</ele><time>2026-09-03T16:54:11Z</time></trkpt><trkpt lat="59.2175306752" lon="31.4451991674"><ele>48.68</ele><time>2026-09-03T16:54:26Z</time></trkpt><trkpt lat="59.2176793702" lon="31.4451982453"><ele>48.20</ele><time>2026-09-03T16:54:44Z</time></trkpt><trkpt lat="59.2177556455" lon="31.4452288393"><ele>48.20</ele><time>2026-09-03T16:54:58Z</time></trkpt><trkpt lat="59.2177992314" lon="31.4452246483"><ele>49.65</ele><time>2026-09-03T16:55:03Z</time></trkpt><trkpt lat="59.2178525403" lon="31.4452233911"><ele>47.72</ele><time>2026-09-03T16:55:10Z</time></trkpt><trkpt lat="59.2178586591" lon="31.4452197030"><ele>47.72</ele><time>2026-09-03T16:55:11Z</time></trkpt><trkpt lat="59.2179955356" lon="31.4452329464"><ele>47.24</ele><time>2026-09-03T16:55:28Z</time></trkpt><trkpt lat="59.2180614173" lon="31.4452131651"><ele>49.16</ele><time>2026-09-03T16:55:36Z</time></trkpt><trkpt lat="59.2181546241" lon="31.4451961499"><ele>49.65</ele><time>2026-09-03T16:55:48Z</time></trkpt><trkpt lat="59.2182130460" lon="31.4451794699"><ele>49.65</ele><time>2026-09-03T16:55:59Z</time></trkpt><trkpt lat="59.2183024809" lon="31.4451922942"><ele>49.65</ele><time>2026-09-03T16:56:11Z</time></trkpt><trkpt lat="59.2183679435" lon="31.4452057891"><ele>49.65</ele><time>2026-09-03T16:56:20Z</time></trkpt><trkpt lat="59.2183858808" lon="31.4452093933"><ele>50.61</ele><time>2026-09-03T16:56:31Z</time></trkpt><trkpt lat="59.2184176482" lon="31.4451553300"><ele>53.49</ele><time>2026-09-03T16:56:57Z</time></trkpt><trkpt lat="59.2184238508" lon="31.4451062959"><ele>56.37</ele><time>2026-09-03T16:57:20Z</time></trkpt><trkpt lat="59.2184125353" lon="31.4451133367"><ele>59.74</ele><time>2026-09-03T16:57:47Z</time></trkpt><trkpt lat="59.2184278741" lon="31.4451108221"><ele>62.62</ele><time>2026-09-03T16:58:14Z</time></trkpt><trkpt lat="59.2184270360" lon="31.4450744446"><ele>65.51</ele><time>2026-09-03T16:58:42Z</time></trkpt><trkpt lat="59.2184281256" lon="31.4450820722"><ele>65.03</ele><time>2026-09-03T16:58:50Z</time></trkpt><trkpt lat="59.2184076738" lon="31.4452012628"><ele>67.91</ele><time>2026-09-03T16:59:24Z</time></trkpt><trkpt lat="59.2184062488" lon="31.4452008437"><ele>67.91</ele><time>2026-09-03T16:59:25Z</time></trkpt><trkpt lat="59.2183976155" lon="31.4451806433"><ele>65.99</ele><time>2026-09-03T16:59:46Z</time></trkpt><trkpt lat="59.2184168100" lon="31.4451706689"><ele>65.51</ele><time>2026-09-03T17:00:07Z</time></trkpt><trkpt lat="59.2184199952" lon="31.4452254865"><ele>62.14</ele><time>2026-09-03T17:00:36Z</time></trkpt><trkpt lat="59.2184211686" lon="31.4452252351"><ele>62.14</ele><time>2026-09-03T17:00:37Z</time></trkpt></trkseg></trk></gpx>